[[{"header":{"parameterUnit":"m.s-1","parameterCategory":1,"la1":31.0,"la2":29.5877,"lo1":-88.7671,"lo2":-86.6584,"dy":0.0162,"dx":0.0185,"nx":115,"ny":88,"refTime":"2026-05-21T12:00:00:Z","depth":0,"parameterNumber":2,"parameterNumberName":"U-component_of_WINDS"},"data":[0.0,0.0,0.0,0.0,0.0,0.0,0.0,0.0,0.0,0.0,0.0,0.0,0.0,0.0,0.0,0.0,0.0,0.0,0.0,0.0,0.0,0.0,0.0,0.0,0.0,0.0,0.0,0.0,0.0,0.0,0.0,0.0,0.0,0.0,0.0,0.0,0.0,0.0,0.0,0.0,0.0,0.0,0.0,0.0,0.0,0.0,0.0,0.0,0.0,0.0,0.0,0.0,0.0,0.0,0.0,0.0,0.0,0.0,0.0,0.0,0.0,0.0,0.0,0.0,0.0,0.0,0.0,0.0,0.0,0.0,0.0,0.0,0.0,0.0,0.0,0.0,0.0,0.0,0.0,0.0,0.0,0.0,0.0,0.0,0.0,0.0,0.0,0.0,0.0,0.0,0.0,0.0,0.0,0.0,0.0,0.0,0.0,0.0,0.0,0.0,0.0,0.0,0.0,0.0,0.0,0.0,0.0,0.0,0.0,0.0,0.0,0.0,0.0,0.0,0.0,0.0,0.0,0.0,0.0,0.0,0.0,0.0,0.0,0.0,0.0,0.0,0.0,0.0,0.0,0.0,0.0,0.0,0.0,0.0,0.0,0.0,0.0,0.0,0.0,0.0,0.0,0.0,0.0,0.0,0.0,0.0,0.0,0.0,0.0,0.0,0.0,0.0,0.0,0.0,0.0,0.0,0.0,0.0,0.0,0.0,0.0,0.0,0.0,0.0,0.0,0.0,0.0,0.0,0.0,0.0,0.0,0.0,0.0,0.0,0.0,0.0,0.0,0.0,0.0,0.0,0.0,0.0,0.0,0.0,0.0,0.0,0.0,0.0,0.0,0.0,0.0,0.0,0.0,0.0,0.0,0.0,0.0,0.0,0.0,0.0,0.0,0.0,0.0,0.0,0.0,0.0,0.0,0.0,0.0,0.0,0.0,0.0,0.0,0.0,0.0,0.0,0.0,0.0,0.0,0.0,0.0,0.0,0.0,0.0,0.0,0.0,0.0,0.0,0.0,0.0,0.0,0.0,0.0,0.0,0.0,0.0,0.0,0.0,0.0,0.0,0.0,0.0,0.0,0.0,0.0,0.0,0.0,0.0,0.0,0.0,0.0,0.0,0.0,0.0,0.0,0.0,0.0,0.0,0.0,0.0,0.0,0.0,0.0,0.0,0.0,0.0,0.0,0.0,0.0,0.0,0.0,0.0,0.0,0.0,0.0,0.0,0.0,0.0,0.0,0.0,0.0,0.0,0.0,0.0,0.0,0.0,0.0,0.0,0.0,0.0,0.0,0.0,0.0,0.0,0.0,0.0,0.0,0.0,0.0,0.0,0.0,0.0,0.0,0.0,0.0,0.0,0.0,0.0,0.0,0.0,0.0,0.0,0.0,0.0,0.0,0.0,0.0,0.0,0.0,0.0,0.0,0.0,0.0,0.0,0.0,0.0,0.0,0.0,0.0,0.0,0.0,0.0,0.0,0.0,0.0,0.0,0.0,0.0,0.0,0.0,0.0,0.0,0.0,0.0,0.0,0.0,0.0,0.0,0.0,0.0,0.0,0.0,0.0,0.0,0.0,0.0,0.0,0.0,0.0,0.0,0.0,0.0,0.0,0.0,0.0,0.0,0.0,0.0,0.0,0.0,0.0,0.0,0.0,0.0,0.0,0.0,0.0,0.0,0.0,0.0,0.0,0.0,0.0,0.0,0.0,0.0,0.0,0.0,0.0,0.0,0.0,0.0,0.0,0.0,0.0,0.0,0.0,0.0,0.0,0.0,0.0,0.0,0.0,0.0,0.0,0.0,0.0,0.0,0.0,0.0,0.0,0.0,0.0,0.0,0.0,0.0,0.0,0.0,0.0,0.0,0.0,0.0,0.0,0.0,0.0,0.0,0.0,0.0,0.0,0.0,0.0,0.0,0.0,0.0,0.0,0.0,0.0,0.0,0.0,0.0,0.0,0.0,0.0,0.0,0.0,0.0,0.0,0.0,0.0,0.0,0.0,0.0,0.0,0.0,0.0,0.0,0.0,0.0,0.0,0.0,0.0,0.0,0.0,0.0,0.0,0.0,0.0,0.0,0.0,0.0,0.0,0.0,0.0,0.0,0.0,0.0,0.0,0.0,0.0,0.0,0.0,0.0,0.0,0.0,0.0,0.0,0.0,0.0,0.0,0.0,0.0,0.0,0.0,0.0,0.0,0.0,0.0,0.0,0.0,0.0,0.0,0.0,0.0,0.0,0.0,0.0,0.0,0.0,0.0,0.0,0.0,0.0,0.0,0.0,0.0,0.0,0.0,0.0,0.0,0.0,0.0,0.0,0.0,0.0,0.0,0.0,0.0,0.0,0.0,0.0,0.0,0.0,0.0,0.0,0.0,0.0,0.0,0.0,0.0,0.0,0.0,0.0,0.0,0.0,0.0,0.0,0.0,0.0,0.0,0.0,0.0,0.0,0.0,0.0,0.0,0.0,0.0,0.0,0.0,0.0,0.0,0.0,0.0,0.0,0.0,0.0,0.0,0.0,0.0,0.0,0.0,0.0,0.0,0.0,0.0,0.0,0.0,0.0,0.0,0.0,0.0,0.0,0.0,0.0,0.0,0.0,0.0,0.0,0.0,0.0,0.0,0.0,0.0,0.0,0.0,0.0,0.0,0.0,0.0,0.0,0.0,0.0,0.0,0.0,0.0,0.0,0.0,0.0,0.0,0.0,0.0,0.0,0.0,0.0,0.0,0.0,0.0,0.0,0.0,0.0,0.0,0.0,0.0,0.0,0.0,0.0,0.0,0.0,0.0,0.0,0.0,0.0,0.0,0.0,0.0,0.0,0.0,0.0,0.0,0.0,0.0,0.0,0.0,0.0,0.0,0.0,0.0,0.0,0.0,0.0,0.0,0.0,0.0,0.0,0.0,0.0,0.0,0.0,0.0,0.0,0.0,0.0,0.0,0.0,0.0,0.0,0.0,0.0,0.0,0.0,0.0,0.0,0.0,0.0,0.0,0.0,0.0,0.0,0.0,0.0,0.0,0.0,0.0,0.0,0.0,0.0,0.0,0.0,0.0,0.0,0.0,0.0,0.0,0.0,0.0,0.0,0.0,0.0,0.0,0.0,0.0,0.0,0.0,0.0,0.0,0.0,0.0,0.0,0.0,0.0,0.0,0.0,0.0,0.0,0.0,0.0,0.0,0.0,0.0,0.0,0.0,0.0,0.0,0.0,0.0,0.0,0.0,0.0,0.0,0.0,0.0,0.0,0.0,0.0,0.0,0.0,0.0,0.0,0.0,0.0,0.0,0.0,0.0,0.0,0.0,0.0,0.0,0.0,0.0,0.0,0.0,0.0,0.0,0.0,0.0,0.0,0.0,0.0,0.0,0.0,0.0,0.0,0.0,0.0,0.0,0.0,0.0,0.0,0.0,0.0,0.0,0.0,0.0,0.0,0.0,0.0,0.0,0.0,0.0,0.0,0.0,0.0,0.0,0.0,0.0,0.0,0.0,0.0,0.0,0.0,0.0,0.0,0.0,0.0,0.0,0.0,0.0,0.0,0.0,0.0,0.0,0.0,0.0,0.0,0.0,0.0,0.0,0.0,0.0,0.0,0.0,0.0,0.0,0.0,0.0,0.0,0.0,0.0,0.0,0.0,0.0,0.0,0.0,0.0,0.0,0.0,0.0,0.0,0.0,0.0,0.0,0.0,0.0,0.0,0.0,0.0,0.0,0.0,0.0,0.0,0.0,0.0,0.0,0.0,0.0,0.0,0.0,0.0,0.0,0.0,0.0,0.0,0.0,0.0,0.0,0.0,0.0,0.0,0.0,0.0,0.0,0.0,0.0,0.0,0.0,0.0,0.0,0.0,0.0,0.0,0.0,0.0,0.0,0.0,0.0,0.0,0.0,0.0,0.0,0.0,0.0,0.0,0.0,0.0,0.0,0.0,0.0,0.0,0.0,0.0,0.0,0.0,0.0,0.0,0.0,0.0,0.0,0.0,0.0,0.0,0.0,0.0,0.0,0.0,0.0,0.0,0.0,0.0,0.0,0.0,0.0,0.0,0.0,0.0,0.0,0.0,0.0,0.0,0.0,0.0,0.0,0.0,0.0,0.0,0.0,0.0,0.0,0.0,0.0,0.0,0.0,0.0,0.0,0.0,0.0,0.0,0.0,0.0,0.0,0.0,0.0,0.0,0.0,0.0,0.0,0.0,0.0,0.0,0.0,0.0,0.0,0.0,0.0,0.0,0.0,0.0,0.0,0.0,0.0,0.0,0.0,0.0,0.0,0.0,0.0,0.0,-1.4385,0.0,0.0,0.0,0.0,0.0,0.0,0.0,0.0,0.0,0.0,0.0,0.0,0.0,0.0,0.0,0.0,0.0,0.0,0.0,0.0,0.0,0.0,0.0,0.0,0.0,0.0,0.0,0.0,0.0,0.0,0.0,0.0,0.0,0.0,0.0,0.0,0.0,0.0,0.0,0.0,0.0,0.0,0.0,0.0,0.0,0.0,0.0,0.0,0.0,0.0,0.0,0.0,0.0,0.0,0.0,0.0,0.0,0.0,0.0,0.0,0.0,0.0,0.0,0.0,0.0,0.0,0.0,0.0,0.0,0.0,0.0,0.0,0.0,0.0,0.0,0.0,0.0,0.0,0.0,0.0,0.0,0.0,0.0,0.0,0.0,0.0,0.0,0.0,0.0,0.0,0.0,0.0,0.0,0.0,0.0,0.0,0.0,0.0,0.0,0.0,0.0,0.0,0.0,0.0,0.0,0.0,0.0,0.0,0.0,0.0,-1.5781,-1.618,-1.5825,-1.5257,-1.4545,0.0,0.0,0.0,0.0,0.0,0.0,0.0,0.0,0.0,0.0,0.0,0.0,0.0,0.0,0.0,0.0,0.0,0.0,0.0,0.0,0.0,0.0,0.0,0.0,0.0,0.0,0.0,0.0,0.0,0.0,0.0,0.0,0.0,0.0,0.0,0.0,0.0,0.0,0.0,0.0,0.0,0.0,0.0,0.0,0.0,0.0,0.0,0.0,0.0,0.0,0.0,0.0,0.0,0.0,0.0,0.0,0.0,0.0,0.0,0.0,0.0,0.0,0.0,0.0,0.0,0.0,0.0,0.0,0.0,0.0,0.0,0.0,0.0,0.0,0.0,0.0,0.0,0.0,0.0,0.0,0.0,0.0,0.0,0.0,0.0,0.0,0.0,0.0,0.0,0.0,0.0,0.0,0.0,0.0,0.0,0.0,0.0,0.0,0.0,0.0,0.0,0.0,0.0,0.0,0.0,0.0,0.0,0.0,0.0,0.0,0.0,0.0,-1.6739,-1.6001,-1.5298,0.0,0.0,0.0,0.0,0.0,0.0,0.0,0.0,0.0,0.0,0.0,0.0,0.0,0.0,0.0,0.0,0.0,0.0,0.0,0.0,0.0,0.0,0.0,0.0,0.0,0.0,0.0,0.0,0.0,0.0,0.0,0.0,0.0,0.0,0.0,0.0,0.0,0.0,0.0,0.0,0.0,0.0,0.0,0.0,0.0,0.0,0.0,0.0,0.0,0.0,0.0,0.0,0.0,0.0,0.0,0.0,0.0,0.0,0.0,0.0,0.0,0.0,0.0,0.0,0.0,0.0,0.0,0.0,0.0,0.0,0.0,0.0,0.0,0.0,0.0,0.0,0.0,0.0,0.0,0.0,0.0,0.0,0.0,0.0,0.0,0.0,0.0,0.0,0.0,0.0,0.0,0.0,0.0,0.0,0.0,0.0,0.0,0.0,0.0,0.0,0.0,0.0,0.0,0.0,0.0,0.0,0.0,0.0,0.0,0.0,-1.6915,-1.9608,-1.8961,0.0,-1.7546,0.0,0.0,0.0,0.0,0.0,0.0,0.0,0.0,0.0,0.0,0.0,0.0,0.0,0.0,0.0,0.0,0.0,0.0,0.0,0.0,0.0,0.0,0.0,0.0,0.0,0.0,0.0,0.0,0.0,0.0,0.0,0.0,0.0,0.0,0.0,0.0,0.0,0.0,0.0,0.0,0.0,0.0,0.0,0.0,0.0,0.0,0.0,0.0,0.0,0.0,0.0,0.0,0.0,0.0,0.0,0.0,0.0,0.0,0.0,0.0,0.0,0.0,0.0,0.0,0.0,0.0,0.0,0.0,0.0,0.0,0.0,0.0,0.0,0.0,0.0,0.0,0.0,0.0,0.0,0.0,0.0,0.0,0.0,0.0,0.0,0.0,0.0,0.0,0.0,0.0,0.0,0.0,0.0,0.0,0.0,0.0,0.0,0.0,0.0,0.0,0.0,0.0,0.0,0.0,0.0,0.0,0.0,0.0,0.0,0.0,-1.7901,-1.9951,-1.8865,-1.8115,0.0,0.0,0.0,0.0,0.0,0.0,0.0,0.0,0.0,0.0,0.0,0.0,0.0,0.0,0.0,0.0,0.0,0.0,0.0,0.0,0.0,0.0,0.0,0.0,0.0,0.0,0.0,0.0,0.0,0.0,0.0,0.0,0.0,0.0,0.0,0.0,0.0,0.0,0.0,0.0,0.0,0.0,0.0,0.0,0.0,0.0,0.0,0.0,0.0,0.0,0.0,0.0,0.0,0.0,0.0,0.0,0.0,0.0,0.0,0.0,0.0,0.0,0.0,0.0,0.0,0.0,0.0,0.0,0.0,0.0,0.0,0.0,0.0,0.0,0.0,0.0,0.0,0.0,0.0,0.0,0.0,0.0,0.0,0.0,0.0,0.0,0.0,0.0,0.0,0.0,0.0,0.0,0.0,0.0,0.0,0.0,0.0,0.0,0.0,0.0,0.0,0.0,0.0,0.0,0.0,0.0,0.0,0.0,0.0,0.0,-1.7495,0.0,-2.0454,-1.9186,-1.8222,-1.78,0.0,0.0,0.0,0.0,0.0,0.0,0.0,0.0,0.0,0.0,0.0,0.0,0.0,0.0,0.0,0.0,0.0,0.0,0.0,0.0,0.0,0.0,0.0,0.0,0.0,0.0,0.0,0.0,0.0,0.0,0.0,0.0,0.0,0.0,0.0,0.0,0.0,0.0,0.0,0.0,0.0,0.0,0.0,0.0,0.0,0.0,0.0,0.0,0.0,0.0,0.0,0.0,0.0,0.0,0.0,0.0,0.0,0.0,0.0,0.0,0.0,0.0,0.0,0.0,0.0,0.0,0.0,0.0,0.0,0.0,0.0,0.0,0.0,0.0,0.0,0.0,0.0,0.0,0.0,0.0,0.0,0.0,0.0,0.0,0.0,0.0,0.0,0.0,0.0,0.0,0.0,0.0,0.0,0.0,0.0,0.0,0.0,0.0,0.0,0.0,0.0,0.0,0.0,0.0,0.0,0.0,0.0,0.0,0.0,-1.8591,-1.922,-2.2087,-2.069,-1.9237,0.0,0.0,0.0,0.0,0.0,0.0,0.0,0.0,0.0,0.0,0.0,0.0,0.0,0.0,0.0,0.0,0.0,0.0,0.0,0.0,0.0,0.0,0.0,0.0,0.0,0.0,0.0,0.0,0.0,0.0,0.0,0.0,0.0,0.0,0.0,0.0,0.0,0.0,0.0,0.0,0.0,0.0,0.0,0.0,0.0,0.0,0.0,0.0,0.0,0.0,0.0,0.0,0.0,0.0,0.0,0.0,0.0,0.0,0.0,0.0,0.0,0.0,0.0,0.0,0.0,0.0,0.0,0.0,0.0,0.0,0.0,0.0,0.0,0.0,0.0,0.0,0.0,0.0,0.0,0.0,0.0,0.0,0.0,0.0,0.0,0.0,0.0,0.0,0.0,0.0,0.0,0.0,0.0,0.0,0.0,0.0,0.0,0.0,0.0,0.0,0.0,0.0,0.0,0.0,0.0,0.0,0.0,0.0,0.0,-1.7665,-1.9018,-2.1208,-2.4068,-2.0787,-1.9075,0.0,0.0,0.0,0.0,0.0,0.0,0.0,0.0,0.0,0.0,0.0,0.0,0.0,0.0,0.0,0.0,0.0,0.0,0.0,0.0,0.0,0.0,0.0,0.0,0.0,0.0,0.0,0.0,0.0,0.0,0.0,0.0,0.0,0.0,0.0,0.0,0.0,0.0,0.0,0.0,0.0,0.0,0.0,0.0,0.0,0.0,0.0,0.0,0.0,0.0,0.0,0.0,0.0,0.0,0.0,0.0,0.0,0.0,0.0,0.0,0.0,0.0,0.0,0.0,0.0,0.0,0.0,0.0,0.0,0.0,0.0,0.0,0.0,0.0,0.0,0.0,0.0,0.0,0.0,0.0,0.0,0.0,0.0,0.0,0.0,0.0,0.0,0.0,0.0,0.0,0.0,0.0,0.0,0.0,0.0,0.0,0.0,0.0,0.0,0.0,0.0,0.0,0.0,0.0,0.0,0.0,0.0,0.0,0.0,-1.8518,0.0,-2.3548,0.0,-2.1212,-1.9091,0.0,0.0,0.0,0.0,0.0,0.0,0.0,0.0,0.0,0.0,0.0,0.0,0.0,0.0,0.0,0.0,0.0,0.0,0.0,0.0,0.0,0.0,0.0,0.0,0.0,0.0,0.0,0.0,0.0,0.0,0.0,0.0,0.0,0.0,0.0,0.0,0.0,0.0,0.0,0.0,0.0,0.0,0.0,0.0,0.0,0.0,0.0,0.0,0.0,0.0,0.0,0.0,0.0,0.0,0.0,0.0,0.0,0.0,0.0,0.0,0.0,0.0,0.0,0.0,0.0,0.0,0.0,0.0,0.0,0.0,0.0,0.0,0.0,0.0,0.0,0.0,0.0,0.0,0.0,0.0,0.0,0.0,0.0,0.0,0.0,0.0,0.0,0.0,0.0,0.0,0.0,0.0,0.0,0.0,0.0,0.0,0.0,0.0,0.0,0.0,0.0,0.0,0.0,0.0,0.0,0.0,0.0,0.0,-1.8042,-2.2996,-2.5406,-2.5887,-2.4477,-2.2107,-1.9374,0.0,0.0,0.0,0.0,0.0,0.0,0.0,0.0,0.0,0.0,0.0,0.0,0.0,0.0,0.0,0.0,0.0,0.0,0.0,0.0,0.0,0.0,0.0,0.0,0.0,0.0,0.0,0.0,0.0,0.0,0.0,0.0,0.0,0.0,0.0,0.0,0.0,0.0,0.0,0.0,0.0,0.0,0.0,0.0,0.0,0.0,0.0,0.0,0.0,0.0,0.0,0.0,0.0,0.0,0.0,0.0,0.0,0.0,0.0,0.0,0.0,0.0,0.0,0.0,0.0,0.0,0.0,0.0,0.0,0.0,0.0,0.0,0.0,0.0,0.0,0.0,0.0,0.0,0.0,0.0,0.0,0.0,0.0,0.0,0.0,0.0,0.0,0.0,0.0,0.0,0.0,0.0,0.0,0.0,0.0,0.0,0.0,0.0,0.0,0.0,0.0,0.0,0.0,0.0,0.0,0.0,0.0,0.0,0.0,-2.1434,-2.4466,-2.6321,-2.6602,-2.2506,-2.0273,0.0,0.0,0.0,0.0,0.0,0.0,0.0,0.0,0.0,0.0,0.0,0.0,0.0,0.0,0.0,0.0,0.0,0.0,0.0,0.0,0.0,0.0,0.0,0.0,0.0,0.0,0.0,0.0,0.0,0.0,0.0,0.0,0.0,0.0,0.0,0.0,0.0,0.0,0.0,0.0,0.0,0.0,0.0,0.0,0.0,0.0,0.0,0.0,0.0,0.0,0.0,0.0,0.0,0.0,0.0,0.0,0.0,0.0,0.0,0.0,0.0,0.0,0.0,0.0,0.0,0.0,0.0,0.0,0.0,0.0,0.0,0.0,0.0,0.0,0.0,0.0,0.0,0.0,0.0,0.0,0.0,0.0,0.0,0.0,0.0,0.0,0.0,0.0,0.0,0.0,0.0,0.0,0.0,0.0,0.0,0.0,0.0,0.0,0.0,0.0,0.0,0.0,0.0,0.0,0.0,0.0,0.0,0.0,0.0,-2.4638,-2.7382,-2.89,-2.8899,-2.4281,-2.1685,-2.1376,0.0,0.0,0.0,0.0,0.0,0.0,0.0,0.0,0.0,0.0,0.0,0.0,0.0,0.0,0.0,0.0,0.0,0.0,0.0,0.0,0.0,0.0,0.0,0.0,0.0,0.0,0.0,0.0,0.0,0.0,0.0,0.0,0.0,0.0,0.0,0.0,0.0,0.0,0.0,0.0,0.0,0.0,0.0,0.0,0.0,0.0,0.0,0.0,0.0,0.0,0.0,0.0,0.0,0.0,0.0,0.0,0.0,0.0,0.0,0.0,0.0,0.0,0.0,0.0,0.0,0.0,0.0,0.0,0.0,0.0,0.0,0.0,0.0,0.0,0.0,0.0,0.0,0.0,0.0,0.0,0.0,0.0,0.0,0.0,0.0,0.0,0.0,0.0,0.0,0.0,0.0,0.0,0.0,0.0,0.0,0.0,0.0,0.0,0.0,0.0,0.0,0.0,0.0,0.0,0.0,0.0,0.0,0.0,-3.1377,-3.3481,-3.3418,-3.1015,-2.7152,-2.3545,0.0,0.0,0.0,0.0,0.0,0.0,0.0,0.0,0.0,0.0,0.0,0.0,0.0,0.0,0.0,0.0,0.0,0.0,0.0,0.0,0.0,0.0,0.0,0.0,0.0,0.0,0.0,0.0,0.0,0.0,0.0,0.0,0.0,0.0,0.0,0.0,0.0,0.0,0.0,0.0,0.0,0.0,0.0,0.0,0.0,0.0,0.0,0.0,0.0,0.0,0.0,0.0,0.0,0.0,0.0,0.0,0.0,0.0,0.0,0.0,0.0,0.0,0.0,0.0,0.0,0.0,0.0,0.0,0.0,0.0,0.0,0.0,0.0,0.0,0.0,0.0,0.0,0.0,0.0,0.0,0.0,0.0,0.0,0.0,0.0,0.0,0.0,0.0,0.0,0.0,0.0,0.0,0.0,0.0,0.0,0.0,0.0,0.0,0.0,0.0,0.0,0.0,0.0,0.0,0.0,0.0,0.0,0.0,0.0,-3.5166,-3.7757,-3.7537,-3.4323,-2.9186,-2.5482,0.0,0.0,0.0,0.0,0.0,0.0,0.0,0.0,0.0,0.0,0.0,0.0,0.0,0.0,0.0,0.0,0.0,0.0,0.0,0.0,0.0,0.0,0.0,0.0,0.0,0.0,0.0,0.0,0.0,0.0,0.0,0.0,0.0,0.0,0.0,0.0,0.0,0.0,0.0,0.0,0.0,0.0,0.0,0.0,0.0,0.0,0.0,0.0,0.0,0.0,0.0,0.0,0.0,0.0,0.0,0.0,0.0,0.0,0.0,0.0,0.0,0.0,0.0,0.0,0.0,0.0,0.0,0.0,0.0,0.0,0.0,0.0,0.0,0.0,0.0,0.0,0.0,0.0,0.0,0.0,0.0,0.0,0.0,0.0,0.0,0.0,0.0,0.0,0.0,0.0,0.0,0.0,0.0,0.0,0.0,0.0,0.0,0.0,0.0,0.0,0.0,0.0,0.0,0.0,0.0,0.0,0.0,0.0,-3.4234,-3.8742,-4.049,-4.0388,-3.8416,-3.2839,-2.8362,0.0,0.0,0.0,0.0,0.0,0.0,0.0,0.0,0.0,0.0,0.0,0.0,0.0,0.0,0.0,0.0,0.0,0.0,0.0,0.0,0.0,0.0,0.0,0.0,0.0,0.0,0.0,0.0,0.0,0.0,0.0,0.0,0.0,0.0,0.0,0.0,0.0,0.0,0.0,0.0,0.0,0.0,0.0,0.0,0.0,0.0,0.0,0.0,0.0,0.0,0.0,0.0,0.0,0.0,0.0,0.0,0.0,0.0,0.0,0.0,0.0,0.0,0.0,0.0,0.0,0.0,0.0,0.0,0.0,0.0,0.0,0.0,0.0,0.0,0.0,0.0,0.0,0.0,0.0,0.0,0.0,0.0,0.0,0.0,0.0,0.0,0.0,0.0,0.0,0.0,0.0,0.0,0.0,0.0,0.0,0.0,0.0,0.0,0.0,0.0,0.0,0.0,0.0,0.0,0.0,0.0,0.0,0.0,-3.6315,-4.1923,-4.2379,-4.2502,-4.2288,-3.6956,-3.1484,0.0,0.0,0.0,0.0,0.0,0.0,0.0,0.0,0.0,0.0,0.0,0.0,0.0,0.0,0.0,0.0,0.0,0.0,0.0,0.0,0.0,0.0,0.0,0.0,0.0,0.0,0.0,0.0,0.0,0.0,0.0,0.0,0.0,0.0,0.0,0.0,0.0,0.0,0.0,0.0,0.0,0.0,0.0,0.0,0.0,0.0,0.0,0.0,0.0,0.0,0.0,0.0,0.0,0.0,0.0,0.0,0.0,0.0,0.0,0.0,0.0,0.0,0.0,0.0,0.0,0.0,0.0,0.0,0.0,0.0,0.0,0.0,0.0,0.0,0.0,0.0,0.0,0.0,0.0,0.0,0.0,0.0,0.0,0.0,0.0,0.0,0.0,0.0,0.0,0.0,0.0,0.0,0.0,0.0,0.0,0.0,0.0,0.0,0.0,0.0,0.0,0.0,0.0,0.0,0.0,0.0,0.0,0.0,-3.9835,-4.3654,-4.4848,-4.4972,-4.409,-3.7833,-3.2324,0.0,0.0,0.0,0.0,0.0,0.0,0.0,0.0,0.0,0.0,0.0,0.0,0.0,0.0,0.0,0.0,0.0,0.0,0.0,0.0,0.0,0.0,0.0,0.0,0.0,0.0,0.0,0.0,0.0,0.0,0.0,0.0,0.0,0.0,0.0,0.0,0.0,0.0,0.0,0.0,0.0,0.0,0.0,0.0,0.0,0.0,0.0,0.0,-1.3506,0.0,0.0,0.0,0.0,0.0,0.0,0.0,0.0,0.0,0.0,0.0,0.0,0.0,0.0,0.0,0.0,0.0,0.0,0.0,0.0,0.0,0.0,0.0,0.0,0.0,0.0,0.0,0.0,0.0,0.0,0.0,0.0,0.0,0.0,0.0,0.0,0.0,0.0,0.0,0.0,0.0,0.0,0.0,0.0,0.0,0.0,0.0,0.0,0.0,0.0,0.0,0.0,0.0,0.0,0.0,0.0,0.0,0.0,0.0,-4.1324,-4.5365,-4.6009,-4.5955,-4.5054,-3.9737,-3.442,0.0,0.0,0.0,0.0,0.0,0.0,0.0,0.0,0.0,0.0,0.0,0.0,0.0,0.0,0.0,0.0,0.0,0.0,0.0,0.0,0.0,0.0,0.0,0.0,0.0,0.0,0.0,0.0,0.0,0.0,0.0,0.0,0.0,0.0,0.0,0.0,0.0,0.0,0.0,0.0,0.0,0.0,0.0,0.0,0.0,0.0,0.0,0.0,0.0,0.0,0.0,0.0,0.0,0.0,0.0,0.0,0.0,0.0,0.0,0.0,0.0,0.0,0.0,0.0,0.0,0.0,0.0,0.0,0.0,0.0,0.0,0.0,0.0,0.0,0.0,0.0,0.0,0.0,0.0,0.0,0.0,0.0,0.0,0.0,0.0,0.0,0.0,0.0,0.0,0.0,0.0,0.0,0.0,0.0,0.0,0.0,0.0,0.0,0.0,0.0,0.0,0.0,0.0,0.0,0.0,0.0,0.0,-3.7161,-4.1931,-4.6808,-4.6758,-4.6443,-4.6089,-4.1807,-3.6848,-3.1325,0.0,0.0,0.0,0.0,0.0,0.0,0.0,0.0,0.0,0.0,0.0,0.0,0.0,0.0,0.0,0.0,0.0,0.0,0.0,0.0,0.0,0.0,0.0,0.0,0.0,0.0,0.0,0.0,0.0,0.0,0.0,0.0,0.0,0.0,0.0,0.0,0.0,0.0,-1.3749,-1.5349,0.0,0.0,0.0,0.0,0.0,0.0,0.0,0.0,-1.4687,0.0,0.0,0.0,0.0,0.0,0.0,0.0,0.0,0.0,0.0,0.0,0.0,0.0,0.0,0.0,0.0,0.0,0.0,0.0,0.0,0.0,0.0,0.0,0.0,0.0,0.0,0.0,0.0,0.0,0.0,0.0,0.0,0.0,0.0,0.0,0.0,0.0,0.0,0.0,0.0,0.0,0.0,0.0,0.0,0.0,0.0,0.0,0.0,0.0,0.0,0.0,0.0,0.0,0.0,0.0,0.0,-3.6834,-3.9188,-4.2786,-4.774,-4.7837,-4.7661,-4.7209,-4.2969,-3.8339,-3.3498,0.0,0.0,0.0,0.0,0.0,0.0,0.0,0.0,0.0,0.0,0.0,0.0,0.0,0.0,0.0,0.0,0.0,0.0,0.0,0.0,0.0,0.0,0.0,0.0,0.0,0.0,0.0,0.0,0.0,0.0,0.0,0.0,0.0,0.0,0.0,0.0,0.0,0.0,0.0,-1.8687,-1.9455,0.0,0.0,0.0,0.0,0.0,0.0,0.0,0.0,-1.4278,0.0,0.0,0.0,0.0,0.0,0.0,0.0,0.0,0.0,0.0,0.0,0.0,0.0,0.0,0.0,0.0,0.0,0.0,0.0,0.0,0.0,0.0,0.0,0.0,0.0,0.0,0.0,0.0,0.0,0.0,0.0,0.0,0.0,0.0,0.0,0.0,0.0,0.0,0.0,0.0,0.0,0.0,0.0,0.0,0.0,0.0,0.0,0.0,0.0,0.0,0.0,0.0,0.0,0.0,0.0,-3.5815,-4.0277,-4.4297,-4.7932,-4.8096,-4.7933,-4.7476,-4.2047,-3.7405,0.0,0.0,0.0,0.0,0.0,0.0,0.0,0.0,0.0,0.0,0.0,0.0,0.0,0.0,0.0,0.0,0.0,0.0,0.0,0.0,0.0,0.0,0.0,0.0,0.0,0.0,0.0,0.0,0.0,0.0,0.0,0.0,0.0,0.0,0.0,0.0,0.0,0.0,0.0,0.0,-1.9759,-2.0505,-2.0501,0.0,0.0,0.0,0.0,0.0,0.0,-1.6989,-1.5444,0.0,0.0,0.0,0.0,0.0,0.0,0.0,0.0,0.0,0.0,0.0,0.0,0.0,0.0,0.0,0.0,0.0,0.0,0.0,0.0,0.0,0.0,0.0,0.0,0.0,0.0,0.0,0.0,0.0,0.0,0.0,0.0,0.0,0.0,0.0,0.0,0.0,0.0,0.0,0.0,0.0,0.0,0.0,0.0,0.0,0.0,0.0,0.0,0.0,0.0,0.0,0.0,0.0,0.0,0.0,-3.443,-4.0623,-4.5201,-4.7923,-4.8096,-4.7972,-4.7603,-4.1417,-3.6785,0.0,0.0,0.0,0.0,0.0,0.0,0.0,0.0,0.0,0.0,0.0,0.0,0.0,0.0,0.0,0.0,0.0,0.0,0.0,0.0,0.0,0.0,0.0,0.0,0.0,0.0,0.0,0.0,0.0,0.0,0.0,0.0,0.0,0.0,0.0,0.0,0.0,0.0,0.0,0.0,0.0,-2.1813,-2.2014,-2.1447,0.0,0.0,0.0,0.0,-2.016,-1.8911,0.0,0.0,0.0,0.0,0.0,0.0,0.0,0.0,0.0,0.0,0.0,0.0,0.0,0.0,0.0,0.0,0.0,0.0,0.0,0.0,0.0,0.0,0.0,0.0,0.0,0.0,0.0,0.0,0.0,0.0,0.0,0.0,0.0,0.0,0.0,0.0,0.0,0.0,0.0,0.0,0.0,0.0,0.0,0.0,0.0,0.0,0.0,0.0,0.0,0.0,0.0,0.0,0.0,0.0,0.0,0.0,-3.5192,-3.9788,-4.4038,-4.7846,-4.8096,-4.8087,-4.7982,-4.3126,-3.8691,0.0,0.0,0.0,0.0,0.0,0.0,0.0,0.0,0.0,0.0,0.0,0.0,0.0,0.0,0.0,0.0,0.0,0.0,0.0,0.0,0.0,0.0,0.0,0.0,0.0,0.0,0.0,0.0,0.0,0.0,0.0,0.0,0.0,0.0,0.0,0.0,0.0,0.0,0.0,0.0,0.0,-2.5152,-2.3144,-2.2767,-2.1758,0.0,0.0,0.0,-2.34,-2.2711,0.0,0.0,0.0,0.0,0.0,0.0,0.0,0.0,0.0,0.0,0.0,0.0,0.0,0.0,0.0,0.0,0.0,0.0,0.0,0.0,0.0,0.0,0.0,0.0,0.0,0.0,0.0,0.0,0.0,0.0,0.0,0.0,0.0,0.0,0.0,0.0,0.0,0.0,0.0,0.0,0.0,0.0,0.0,0.0,0.0,0.0,0.0,0.0,0.0,0.0,0.0,0.0,0.0,0.0,0.0,-2.9294,-3.5442,-4.1085,-4.5066,-4.7327,-4.7846,-4.7894,-4.7404,-4.1864,-3.7409,0.0,0.0,0.0,0.0,0.0,0.0,0.0,0.0,0.0,0.0,0.0,0.0,0.0,0.0,0.0,0.0,0.0,0.0,0.0,0.0,0.0,0.0,0.0,0.0,0.0,0.0,0.0,0.0,0.0,0.0,0.0,0.0,0.0,0.0,0.0,0.0,0.0,0.0,0.0,0.0,0.0,0.0,-2.4919,-2.4949,0.0,0.0,0.0,-2.4337,-2.5805,0.0,0.0,0.0,0.0,0.0,0.0,0.0,0.0,0.0,0.0,0.0,0.0,0.0,0.0,0.0,0.0,0.0,0.0,0.0,0.0,0.0,0.0,0.0,0.0,0.0,0.0,0.0,0.0,0.0,0.0,0.0,0.0,0.0,0.0,0.0,0.0,0.0,0.0,0.0,0.0,0.0,0.0,0.0,0.0,0.0,0.0,0.0,0.0,0.0,0.0,0.0,0.0,0.0,0.0,0.0,0.0,0.0,-3.5481,-4.2162,-4.6124,-4.7182,-4.7798,-4.7817,-4.7135,-4.1227,0.0,0.0,0.0,0.0,0.0,0.0,0.0,0.0,0.0,0.0,0.0,0.0,0.0,0.0,0.0,0.0,0.0,0.0,0.0,0.0,0.0,0.0,0.0,0.0,0.0,0.0,0.0,-1.0386,0.0,0.0,0.0,0.0,0.0,0.0,0.0,0.0,0.0,0.0,0.0,0.0,0.0,0.0,-2.6376,-2.6591,-2.6935,-2.7629,0.0,0.0,-2.6953,-2.7684,-2.662,-2.4539,0.0,0.0,0.0,0.0,0.0,0.0,0.0,0.0,0.0,0.0,0.0,0.0,0.0,0.0,0.0,0.0,0.0,0.0,0.0,0.0,0.0,0.0,0.0,0.0,0.0,0.0,0.0,0.0,0.0,0.0,0.0,0.0,0.0,0.0,0.0,0.0,0.0,0.0,0.0,0.0,0.0,0.0,0.0,0.0,0.0,0.0,0.0,0.0,0.0,0.0,0.0,0.0,0.0,0.0,0.0,-3.5519,-4.2162,-4.6374,-4.7932,-4.8067,-4.8086,-4.7932,-4.2747,-3.802,0.0,0.0,0.0,0.0,0.0,0.0,0.0,0.0,0.0,0.0,0.0,0.0,0.0,0.0,0.0,0.0,0.0,0.0,0.0,0.0,0.0,0.0,0.0,0.0,0.0,0.0,0.0,0.0,0.0,0.0,0.0,0.0,0.0,0.0,0.0,0.0,0.0,0.0,0.0,0.0,0.0,-2.8484,-2.7783,-2.8349,-2.8895,0.0,0.0,-2.9946,-2.9023,-2.939,-2.8112,-2.3226,0.0,0.0,0.0,0.0,0.0,0.0,0.0,0.0,0.0,0.0,0.0,0.0,0.0,0.0,0.0,0.0,0.0,0.0,0.0,0.0,0.0,0.0,0.0,0.0,0.0,0.0,0.0,0.0,0.0,0.0,0.0,0.0,0.0,0.0,0.0,0.0,0.0,0.0,0.0,0.0,0.0,0.0,0.0,0.0,0.0,0.0,0.0,0.0,0.0,0.0,0.0,0.0,0.0,-3.0891,-3.55,-4.2162,-4.6163,-4.7308,-4.7855,-4.7875,-4.7375,-4.3159,-3.8954,0.0,0.0,0.0,0.0,0.0,0.0,0.0,0.0,0.0,0.0,0.0,0.0,0.0,0.0,0.0,0.0,0.0,0.0,0.0,0.0,0.0,0.0,0.0,0.0,0.0,0.0,0.0,0.0,-1.4028,-1.445,-1.4744,0.0,0.0,0.0,0.0,0.0,0.0,0.0,0.0,0.0,0.0,-2.9446,-3.0643,-3.0621,0.0,0.0,-3.1458,-3.1127,-3.1207,-3.0216,-2.8404,-2.5317,-2.3737,0.0,0.0,0.0,0.0,0.0,0.0,0.0,0.0,0.0,0.0,0.0,0.0,0.0,0.0,0.0,0.0,0.0,0.0,0.0,0.0,0.0,0.0,0.0,0.0,0.0,0.0,0.0,0.0,0.0,0.0,0.0,0.0,0.0,0.0,0.0,0.0,0.0,0.0,0.0,0.0,0.0,0.0,0.0,0.0,0.0,0.0,0.0,0.0,0.0,0.0,0.0,0.0,-3.1583,-3.5846,-4.2547,-4.6394,-4.7231,-4.7798,-4.7836,-4.7173,-4.353,-3.9674,0.0,0.0,0.0,0.0,0.0,0.0,0.0,0.0,0.0,0.0,0.0,0.0,0.0,0.0,0.0,0.0,0.0,0.0,0.0,0.0,0.0,0.0,0.0,0.0,0.0,0.0,0.0,0.0,-1.5527,-1.5607,-1.5362,0.0,0.0,0.0,0.0,0.0,0.0,0.0,0.0,0.0,0.0,-3.0433,-3.2372,-3.2342,-3.2517,-3.3642,-3.2559,-3.1782,-3.2192,-3.0815,-2.8952,-2.669,0.0,0.0,0.0,0.0,0.0,0.0,0.0,0.0,0.0,0.0,0.0,0.0,0.0,0.0,0.0,0.0,0.0,0.0,0.0,0.0,0.0,0.0,0.0,0.0,0.0,0.0,0.0,0.0,0.0,0.0,-1.8225,0.0,0.0,0.0,0.0,0.0,0.0,0.0,0.0,0.0,0.0,0.0,0.0,0.0,0.0,0.0,0.0,0.0,0.0,0.0,0.0,0.0,0.0,0.0,-3.668,-4.3327,-4.7212,-4.8009,-4.8086,-4.8067,-4.7952,-4.4019,-4.0192,-3.6685,0.0,0.0,0.0,0.0,0.0,0.0,0.0,0.0,0.0,0.0,0.0,0.0,0.0,0.0,0.0,0.0,0.0,0.0,0.0,0.0,0.0,0.0,0.0,0.0,0.0,0.0,-1.7013,-1.6288,-1.5435,0.0,0.0,0.0,0.0,0.0,0.0,0.0,0.0,0.0,0.0,-2.9818,-3.1641,-3.2517,-3.3275,-3.3752,-3.3807,-3.2908,-3.2039,-3.1599,-3.1378,-3.0277,0.0,0.0,0.0,0.0,0.0,0.0,0.0,0.0,0.0,0.0,0.0,0.0,0.0,0.0,0.0,0.0,0.0,0.0,0.0,0.0,0.0,0.0,0.0,0.0,0.0,0.0,0.0,-2.6745,-2.4868,0.0,0.0,0.0,0.0,0.0,0.0,0.0,0.0,0.0,0.0,0.0,-3.388,-3.4931,0.0,0.0,0.0,0.0,0.0,0.0,0.0,0.0,0.0,0.0,0.0,0.0,-3.3596,-3.6827,-4.2874,-4.6451,-4.7278,-4.7317,-4.7288,-4.7278,-4.4816,-4.1014,-3.5841,0.0,0.0,0.0,0.0,0.0,0.0,0.0,0.0,0.0,0.0,0.0,0.0,0.0,0.0,0.0,0.0,0.0,0.0,0.0,0.0,0.0,0.0,0.0,0.0,0.0,-1.685,0.0,0.0,0.0,0.0,0.0,0.0,0.0,0.0,0.0,0.0,0.0,-2.7273,-2.9145,-3.1017,-3.2674,-3.4014,-3.4417,-3.4601,0.0,0.0,0.0,0.0,0.0,0.0,0.0,0.0,0.0,0.0,0.0,0.0,0.0,0.0,-2.7265,-2.2639,-2.1335,-2.0894,-2.0619,0.0,0.0,0.0,0.0,0.0,0.0,0.0,0.0,0.0,0.0,0.0,0.0,0.0,0.0,0.0,0.0,-2.9193,0.0,0.0,0.0,0.0,0.0,0.0,0.0,0.0,-3.6301,-3.8267,-3.8851,-3.9863,-3.9533,0.0,-3.6358,-3.2852,0.0,0.0,0.0,0.0,0.0,0.0,0.0,0.0,-3.518,-3.8104,-4.3316,-4.6317,-4.6874,-4.6904,-4.6904,-4.6846,-4.4643,-4.1014,-3.5887,-3.2488,-2.8862,0.0,0.0,0.0,0.0,0.0,0.0,0.0,0.0,0.0,0.0,0.0,0.0,0.0,0.0,0.0,0.0,0.0,0.0,0.0,0.0,0.0,0.0,0.0,-1.8222,0.0,0.0,0.0,0.0,0.0,0.0,0.0,0.0,0.0,-2.6282,-2.8191,-3.0063,-3.1665,-3.2784,-3.3922,-3.5261,0.0,0.0,0.0,0.0,0.0,0.0,0.0,-3.1953,-3.2205,-3.1421,-3.065,-3.0308,-2.9317,-2.8778,-2.9317,0.0,0.0,-2.5962,-2.4667,-2.43,-2.43,-2.4502,-2.452,-2.3997,-2.452,-2.4822,0.0,0.0,0.0,0.0,0.0,0.0,0.0,0.0,-3.7737,-3.7281,0.0,-3.3956,0.0,0.0,0.0,0.0,0.0,0.0,0.0,0.0,-4.2076,-4.3552,-4.3552,-4.3571,-4.2782,-4.1425,-4.2653,-4.0891,-3.624,-3.0524,0.0,0.0,0.0,0.0,0.0,0.0,-3.7238,-4.0496,-4.4662,-4.6827,-4.6836,-4.6846,-4.6827,-4.6721,-4.3615,-4.0308,-3.6981,-3.5013,-3.1993,-2.7669,-2.496,0.0,0.0,0.0,0.0,0.0,0.0,0.0,0.0,0.0,0.0,0.0,0.0,0.0,0.0,0.0,0.0,0.0,0.0,0.0,0.0,-1.9838,0.0,0.0,0.0,0.0,0.0,0.0,0.0,0.0,0.0,0.0,-3.0442,-3.1806,-3.3243,-3.4734,0.0,0.0,0.0,0.0,-3.5389,-3.6211,-3.5642,-3.5096,-3.5041,-3.4986,-3.4692,-3.399,0.0,0.0,-3.3096,-3.3348,-3.3036,-3.0815,-3.1127,-3.1507,-3.1397,-2.9916,-2.895,-2.8913,-2.8319,-2.7934,-2.7934,-2.8319,-2.8601,-4.418,0.0,0.0,0.0,0.0,-4.099,-4.2563,-4.478,-4.4114,-4.2881,-4.1191,-3.9127,0.0,0.0,0.0,0.0,0.0,0.0,-3.9434,-4.1875,-4.3586,-4.4966,-4.6049,-4.6085,-4.581,-4.5351,-4.4103,-4.2488,-4.0522,-3.7877,-3.3522,-2.7726,0.0,0.0,0.0,0.0,-3.9277,-4.147,-4.4432,-4.597,-4.5951,-4.597,-4.5663,-4.5066,-4.3547,-4.17,-3.9469,-3.774,-3.5074,-3.1309,-2.8567,0.0,0.0,0.0,0.0,0.0,0.0,0.0,0.0,0.0,0.0,0.0,0.0,0.0,0.0,0.0,0.0,0.0,0.0,0.0,-1.8863,-1.9461,-2.0241,0.0,0.0,0.0,0.0,0.0,0.0,0.0,0.0,0.0,-3.3445,-3.4069,-3.4491,0.0,0.0,-3.6009,-3.6266,-3.656,-3.6872,-3.7125,0.0,0.0,0.0,-3.5408,-3.5151,-3.5514,-3.5973,-3.6046,-3.5349,-3.544,-3.5165,-3.383,-3.3812,-3.3793,-3.3146,-3.1806,-3.0779,-3.0687,-3.0503,-3.0368,-3.0387,-3.0558,-3.0613,-5.0375,-4.6644,-4.4432,-4.4316,-4.5605,-4.597,-4.7451,-4.9548,-4.883,-4.7712,-4.6263,-4.4363,-4.1618,-3.8303,-3.6853,0.0,0.0,0.0,-4.2344,-4.4814,-4.5397,-4.6324,-4.7535,-4.7571,-4.7388,-4.7058,-4.5626,-4.436,-4.324,-4.2113,-3.8915,-3.3855,0.0,0.0,-3.4971,-3.8485,-4.1104,-4.2797,-4.4643,-4.5594,-4.5594,-4.5267,-4.4682,-4.3835,-4.3028,-4.1912,-4.0535,-3.8892,-3.6834,-3.4247,-3.0909,-2.7422,0.0,0.0,0.0,0.0,0.0,0.0,0.0,0.0,0.0,0.0,0.0,-1.4927,-1.398,0.0,0.0,0.0,-1.8364,-1.9502,-2.1096,-2.1804,0.0,0.0,0.0,0.0,0.0,0.0,0.0,-3.0889,-3.2357,-3.3642,-3.5316,-3.6343,-3.6839,-3.6509,-3.6652,-3.689,-3.7202,0.0,-3.7621,-3.7933,-3.7973,-3.779,-3.7331,-3.6835,-3.6637,-3.7165,-3.7239,-3.7239,-3.7239,-3.7,-3.6578,-3.6119,-3.572,-3.5243,-3.4431,-3.3458,-3.2706,-3.2412,-3.2357,-3.2339,-3.2339,-3.2357,-3.2357,-5.5472,-5.4453,-5.0471,-4.9144,-4.9779,-5.0635,-5.1414,-5.2096,-5.2057,-5.1658,-5.0873,-4.9202,-4.676,-4.3772,-4.1724,0.0,0.0,-4.3837,-4.5441,-4.775,-4.7389,-4.759,-4.8287,-4.8306,-4.7921,-4.7204,-4.7131,-4.6342,-4.4893,-4.4066,-4.267,-4.0746,-3.9747,-3.9623,-4.031,-4.1407,-4.2797,-4.4393,-4.519,-4.5594,-4.5594,-4.4739,-4.3912,-4.3124,-4.2181,-4.1277,-4.04,-3.8854,-3.751,-3.6328,-3.2368,-2.8871,-2.6153,0.0,0.0,0.0,0.0,0.0,0.0,0.0,0.0,0.0,0.0,0.0,0.0,0.0,0.0,0.0,-2.2309,0.0,-2.4337,-2.5731,0.0,0.0,0.0,-2.7501,-2.928,-2.8473,-2.9097,-3.2491,0.0,0.0,0.0,0.0,-3.9735,-3.8982,-3.8248,-3.8006,-3.8524,-3.8083,-3.7918,-3.8579,-3.8689,-3.8689,-3.8542,-3.8524,-3.8487,-3.8542,-3.8707,-3.8597,-3.856,-3.808,-3.7621,-3.7401,-3.6868,-3.6119,-3.5243,-3.5041,-3.4857,-3.4009,-3.3788,-3.3752,-3.3697,-3.366,-3.366,-5.7569,-5.7242,-5.5598,-5.3876,-5.2375,-5.3222,-5.3703,-5.3855,-5.3548,-5.3128,-5.25,-5.0606,-4.8796,-4.7187,-4.7895,-4.7922,-4.7497,-4.8575,-4.888,-4.8602,-4.82,-4.8122,-4.8306,-4.8324,-4.8214,-4.7975,-4.7388,-4.6911,-4.6507,-4.5718,-4.5344,-4.5341,-4.4542,-4.3076,-4.1187,-4.282,-4.4239,-4.5287,-4.5498,-4.5594,-4.5575,-4.4739,-4.3912,-4.3104,-4.1604,-4.0412,-3.9611,-3.8565,-3.7483,-3.6341,-3.3948,-3.1383,-2.8662,-2.4468,0.0,0.0,0.0,0.0,0.0,0.0,0.0,0.0,0.0,-2.0859,-1.7176,0.0,-2.3721,0.0,-2.4785,-2.5831,-2.6025,-2.6392,0.0,0.0,-2.9537,-2.9812,-3.317,-3.2082,-3.2192,-3.5092,-3.6909,-3.8212,-3.8946,-4.0084,-4.0728,-4.0545,-4.0361,-3.9662,-3.812,-3.8741,-3.9148,-3.8817,-3.8744,-3.8707,-3.8707,-3.8707,-3.8707,-3.8707,-3.8707,-3.8707,-3.8707,-3.8542,-3.8212,-3.7639,-3.7364,-3.6905,-3.6138,-3.5991,-3.5679,-3.4894,-3.4234,-3.3807,-3.3807,-3.3807,-3.3807,-5.8838,-5.8761,-5.7934,-5.653,-5.4895,-5.4991,-5.503,-5.5019,-5.4787,-5.4257,-5.3395,-5.1546,-5.0231,-4.9483,-5.0377,-5.0428,-4.9769,-5.0109,-4.9869,-4.9195,-4.8586,-4.8324,-4.8324,-4.8324,-4.8324,-4.8268,-4.7865,-4.7443,-4.7094,-4.6654,-4.6568,-4.6757,-4.6464,-4.5414,-4.3637,-4.4431,-4.5105,-4.5594,-4.5594,-4.5594,-4.5556,-4.4393,-4.3355,-4.2527,-4.1219,-3.9938,-3.8765,-3.8257,-3.731,-3.5825,-3.3949,-3.2015,-3.0015,-2.6549,-2.3997,0.0,0.0,0.0,0.0,0.0,0.0,0.0,0.0,0.0,0.0,0.0,-2.6198,0.0,-2.7805,0.0,-2.9732,-3.0124,-3.139,-3.3972,-3.3054,-3.3408,-3.6325,-3.5092,-3.5147,-3.8102,-3.9205,-3.9937,-4.0396,-4.1113,-4.148,-4.1168,-4.1717,-4.1442,-3.9625,-3.99,-4.0267,-3.9845,-3.946,-3.9074,-3.8781,-3.8707,-3.8707,-3.8707,-3.8707,-3.8707,-3.8707,-3.8707,-3.8542,-3.812,-3.8028,-3.7771,-3.7,-3.685,-3.656,-3.5752,-3.4894,-3.427,-3.388,-3.3807,-3.3807,-5.9665,-5.9588,-5.88,-5.8011,-5.7253,-5.628,-5.5799,-5.5684,-5.5684,-5.5044,-5.3884,-5.2381,-5.1473,-5.1096,-5.1176,-5.1101,-5.0912,-5.0276,-4.9908,-4.9702,-4.8857,-4.8471,-4.8471,-4.8343,-4.8324,-4.8324,-4.8324,-4.7938,-4.7259,-4.7259,-4.7129,-4.6906,-4.7084,-4.7005,-4.6688,-4.6081,-4.5729,-4.5594,-4.5594,-4.5594,-4.5575,-4.4066,-4.2835,-4.197,-4.0931,-3.9611,-3.8084,-3.7862,-3.6926,-3.5124,-3.3402,-3.1965,-3.0873,-2.8344,-2.6869,0.0,-2.5328,0.0,0.0,0.0,0.0,0.0,0.0,0.0,0.0,-2.7787,-2.8161,-2.9354,-3.1017,-3.2572,-3.3825,-3.4674,-3.5555,-3.6486,-3.6615,-3.7221,-3.8634,-3.7771,-3.8083,-4.0875,-4.1315,-4.137,-4.1297,-4.1974,-4.2158,-4.1735,-4.2561,-4.2818,-4.1682,-4.1313,-4.1187,-4.1132,-4.0414,-3.9588,-3.9056,-3.8799,-3.8707,-3.8707,-3.8707,-3.8707,-3.8707,-3.8707,-3.8689,-3.867,-3.8634,-3.8432,-3.7768,-3.7658,-3.7382,-3.6615,-3.5862,-3.5096,-3.4247,-3.388,-3.3807,-6.055,-6.0473,-5.9627,-5.9184,-5.8896,-5.7396,-5.6349,-5.5684,-5.5684,-5.5198,-5.4333,-5.3636,-5.3122,-5.2771,-5.3101,-5.2711,-5.1816,-5.1972,-5.1509,-5.0545,-4.9719,-4.9334,-4.9335,-4.8636,-4.8324,-4.8324,-4.8324,-4.8233,-4.8067,-4.8067,-4.8361,-4.8897,-4.831,-4.8258,-4.8711,0.0,0.0,0.0,-4.5594,-4.5594,-4.5575,-4.4605,-4.3682,-4.2835,-4.07,0.0,-3.8038,-3.7119,-3.6062,-3.484,-3.4148,0.0,0.0,0.0,0.0,0.0,0.0,0.0,0.0,0.0,0.0,0.0,-3.0858,-3.0216,-2.8987,-3.1598,-3.3005,-3.2106,-3.4009,-3.5202,-3.4821,-3.5536,-3.6633,-3.8046,-3.8248,-3.8726,-3.9863,-4.0451,-4.1128,-4.1642,-4.2506,-4.2782,-4.2231,-4.2782,-4.3185,-4.3002,-4.3294,-4.3386,-4.3057,-4.2451,-4.1864,-4.1205,-4.0487,-3.9882,-3.9698,-3.9129,-3.8707,-3.8707,-3.8707,-3.8707,-3.8707,-3.8707,-3.8707,-3.8707,-3.8707,-3.8689,-3.8487,-3.8469,-3.8175,-3.7437,-3.7107,-3.6578,-3.5078,-3.4252,-3.3807,-6.08,0.0,-6.0319,-5.9896,0.0,-5.8165,-5.7146,-5.631,-5.5876,-5.5237,-5.4487,-5.3995,-5.3585,-5.3206,-5.3422,-5.318,-5.2585,-5.2389,-5.1983,-5.1334,-5.0161,-4.9592,-4.9574,-4.871,-4.8324,-4.8324,-4.8324,-4.8324,-4.8306,-4.8495,-4.8897,-4.9489,-4.927,-4.9234,-4.9327,-4.774,-4.6471,-4.5594,-4.5594,-4.5594,-4.5556,-4.4767,-4.3701,-4.2489,0.0,0.0,0.0,0.0,0.0,0.0,0.0,0.0,0.0,0.0,0.0,-3.199,-3.1623,-3.1201,-3.0821,-3.1904,-3.2944,-3.372,-3.4559,-3.4156,-3.2124,-3.4234,-3.5477,-3.511,-3.6541,-3.7477,-3.7463,-3.816,-3.9019,-3.9756,-3.9884,-4.023,-4.0983,-4.1568,-4.2101,-4.2633,-4.3166,-4.3314,-4.2928,-4.3221,-4.3461,-4.3479,-4.3479,-4.3479,-4.3478,-4.3167,-4.2598,-4.1792,-4.102,-4.0341,-3.9918,-3.9239,-3.8707,-3.8707,-3.8707,-3.8707,-3.8707,-3.8707,-3.8707,-3.8707,-3.8707,-3.8707,-3.8707,-3.8707,-3.8545,-3.8157,-3.7768,-3.7309,-3.6321,-3.5257,-3.4266,-6.08,-6.08,-6.08,-6.0377,-5.9665,-5.8704,-5.7723,-5.6703,0.0,0.0,0.0,-5.3995,-5.3585,-5.3206,-5.3185,-5.3185,-5.3148,-5.2509,-5.2197,-5.2142,-5.0692,-4.9959,-4.9776,-4.893,-4.8453,-4.8324,-4.8324,-4.8324,-4.8306,-4.8639,-4.9027,-4.9489,-4.9846,-4.9805,-4.9337,-4.7875,-4.6701,-4.5883,-4.5671,-4.5568,-4.5513,-4.4876,-4.3754,-4.2092,-4.2063,-4.091,-3.8605,-3.8765,-3.7801,-3.5426,-3.5637,-3.5364,-3.4348,-3.4876,-3.555,-3.6211,-3.6285,-3.6046,-3.55,-3.6119,-3.634,-3.5903,-3.7129,-3.7217,-3.5555,-3.6229,-3.7052,-3.786,-3.8524,-3.9239,-4.0029,-4.0689,-4.115,-4.1297,-4.1315,-4.1534,-4.2101,-4.2174,-4.256,-4.3313,-4.3478,-4.3479,-4.3461,-4.3461,-4.3479,-4.3479,-4.3479,-4.3479,-4.3479,-4.3442,-4.3204,-4.258,-4.1846,-4.1038,-4.0249,-3.9478,-3.8909,-3.8726,-3.8707,-3.8707,-3.8707,-3.8707,-3.8707,-3.8707,-3.8707,-3.8707,-3.8707,-3.8707,-3.8707,-3.8707,-3.8175,-3.7658,-3.7419,-3.6431,-3.5224,-6.08,-6.08,-6.08,-6.0723,-6.0512,-5.8954,-5.7376,-5.5874,-5.5389,-5.4919,-5.4487,-5.3995,-5.3585,-5.3185,-5.3185,-5.3185,-5.3185,-5.3096,-5.3041,0.0,-5.2087,-5.1298,-5.06,-4.9793,-4.9022,-4.8343,-4.8324,-4.8324,-4.8306,-4.8364,-4.8763,-4.9416,-4.9547,-4.9543,-4.9336,-4.8413,-4.7528,-4.674,-4.599,-4.5467,-4.5171,-4.5332,-4.4671,-4.3185,-4.2977,-4.2144,-4.0499,-3.9826,-3.8846,-3.7529,-3.7308,-3.6838,-3.6024,-3.6083,-3.6174,-3.6285,-3.6303,-3.6541,-3.7107,-3.7254,-3.7878,-3.9074,-3.9423,-3.8888,-3.7345,-3.7881,-3.8689,-3.9475,-3.9662,-4.0065,-4.0836,-4.1058,-4.1462,-4.2011,-4.2139,-4.2415,-4.3129,-4.3221,-4.3276,-4.3461,-4.3479,-4.3479,-4.3479,-4.3479,-4.3479,-4.3479,-4.3479,-4.3479,-4.3479,-4.3479,-4.3478,-4.3258,-4.2635,-4.1846,-4.1056,-4.0249,-3.9533,-3.8817,-3.8762,-3.8781,-3.8707,-3.8707,-3.8707,-3.8707,-3.8707,-3.8707,-3.8707,-3.8707,-3.8707,-3.8707,-3.8505,-3.8267,-3.7731,-3.7254,-3.6541,-6.08,-6.08,-6.08,-6.0531,-5.9954,-5.83,-5.6857,-5.5701,-5.5282,-5.4881,-5.4471,-5.3995,-5.3565,-5.3206,-5.3185,-5.3185,-5.3185,-5.3185,-5.3185,-5.313,-5.2362,-5.1793,-5.1353,-5.018,-4.9408,-4.8985,-4.8526,-4.8324,-4.8325,-4.8513,-4.8932,-4.9489,-4.9943,-5.0144,-5.0019,-4.8779,-4.7809,-4.7258,-4.6157,-4.5457,-4.5107,-4.5243,-4.4666,-4.3341,-4.3251,-4.2682,-4.15,-4.0953,-4.0216,-3.9239,-3.9379,-3.9074,-3.8322,-3.867,-3.8909,-3.8909,-3.8909,-3.9074,-3.9423,-3.946,-3.9772,-4.0487,-4.0561,-4.0267,-3.9515,-3.979,-4.0175,-4.0543,-4.0928,-4.135,-4.1735,-4.2139,-4.2543,-4.291,-4.2947,-4.3094,-4.3404,-4.3479,-4.3479,-4.3479,-4.3479,-4.3479,-4.3479,-4.3479,-4.3479,-4.3479,-4.3479,-4.3479,-4.3479,-4.3479,-4.3479,-4.3424,-4.2818,-4.2249,-4.1772,-4.1075,-4.0286,-3.9478,-3.935,-3.9166,-3.8836,-3.8707,-3.8707,-3.8707,-3.8707,-3.8707,-3.8707,-3.8707,-3.8707,-3.8707,-3.8707,-3.8505,-3.8212,-3.7823,-3.6758,-6.0685,-6.0512,-6.0512,-5.9896,-5.8838,-5.7561,-5.6492,-5.5701,-5.5282,-5.4881,-5.4452,-5.4013,-5.3585,-5.3227,-5.3185,-5.3185,-5.3185,-5.3185,-5.3185,-5.313,-5.2564,-5.216,-5.1848,-5.0508,-4.9794,-4.9519,-4.871,-4.8324,-4.8344,-4.8604,-4.9011,-4.9532,-5.0313,-5.0683,-5.0664,-4.8904,-4.7853,-4.7518,-4.6144,-4.5203,-4.4865,-4.4943,-4.4447,-4.345,-4.3508,-4.3194,-4.2388,-4.2034,-4.1518,-4.0822,-4.0977,-4.0836,-4.0249,-4.0763,-4.1113,-4.1113,-4.1113,-4.1113,-4.1113,-4.1113,-4.1187,-4.137,-4.137,-4.1425,-4.1625,-4.1644,-4.1552,-4.1497,-4.1901,-4.2323,-4.258,-4.3075,-4.3479,-4.3479,-4.3479,-4.3461,-4.3479,-4.3479,-4.3479,-4.3479,-4.3479,-4.3479,-4.3479,-4.3479,-4.3479,-4.3479,-4.3479,-4.3479,-4.3479,-4.3479,-4.3479,-4.3387,-4.2947,-4.2506,-4.2323,-4.1809,-4.1075,-4.0322,-4.0175,-3.9827,-3.9276,-3.8891,-3.8707,-3.8707,-3.8707,-3.8707,-3.8707,-3.8707,-3.8707,-3.8707,-3.8707,-3.8689,-3.8634,-3.801,-3.6798,-6.0339,-5.9685,-5.9665,-5.8684,-5.7368,-5.708,-5.6503,-5.5709,-5.5282,-5.4881,-5.4487,-5.3995,-5.3585,-5.3227,-5.3185,-5.3185,-5.3185,-5.3185,-5.3185,-5.3185,-5.3112,-5.2711,-5.1995,-5.1096,-5.0306,-4.961,-4.8746,-4.8361,-4.8306,-4.8383,-4.8761,-4.9504,-5.0294,-5.0673,-5.0471,-4.8654,-4.7632,-4.756,-4.5695,-4.4514,-4.4146,-4.4474,-4.4271,-4.352,-4.4125,-4.4135,-4.333,-4.2919,-4.2526,-4.211,-4.1493,-4.1095,-4.1022,-4.1077,-4.1132,-4.115,-4.1132,-4.1113,-4.1132,-4.1113,-4.1462,-4.2103,-4.2194,-4.2488,-4.3112,-4.3222,-4.2947,-4.2415,-4.2268,-4.2653,-4.3259,-4.3442,-4.3479,-4.3479,-4.3479,-4.3479,-4.3479,-4.3479,-4.3479,-4.3479,-4.3479,-4.3479,-4.3479,-4.3479,-4.3479,-4.3479,-4.3479,-4.3479,-4.3479,-4.3479,-4.3479,-4.3479,-4.3369,-4.3057,-4.2543,-4.2286,-4.1846,-4.1187,-4.0985,-4.0634,-3.9992,-3.9203,-3.8726,-3.8927,-3.8707,-3.8707,-3.8707,-3.8707,-3.8707,-3.8707,-3.8707,-3.8707,-3.8615,-3.812,-3.6923,-6.0281,-5.955,-6.005,-5.93,-5.7819,-5.7234,-5.6503,-5.5701,-5.5282,-5.4881,-5.4452,-5.3995,-5.3585,-5.3206,-5.3185,-5.3185,-5.3185,-5.3185,-5.3185,-5.3185,-5.3185,-5.3002,-5.2656,-5.1885,-5.1077,-5.0288,-4.9462,-4.8802,-4.8456,-4.878,-4.9295,-4.9813,-5.0195,-5.0347,-5.0191,-4.8288,-4.7148,-4.6887,-4.5176,-4.4043,-4.3788,-4.4046,-4.402,-4.3597,-4.3791,-4.3839,-4.3511,-4.3314,-4.3148,-4.3001,-4.269,-4.2525,-4.2525,-4.2506,-4.2525,-4.2525,-4.2506,-4.2506,-4.2506,-4.2506,-4.2653,-4.2983,-4.3019,-4.3167,-4.3442,-4.3479,-4.3349,-4.3094,-4.3002,-4.3167,-4.3442,-4.3479,-4.3479,-4.3479,-4.3479,-4.3479,-4.3479,-4.3479,-4.3479,-4.3479,-4.3479,-4.3479,-4.3479,-4.3479,-4.3479,-4.3479,-4.3479,-4.3479,-4.3479,-4.3479,-4.3479,-4.3479,-4.3479,-4.3404,-4.3039,-4.3002,-4.2635,-4.2066,-4.1827,-4.1534,-4.0708,-3.9478,-3.8836,-3.9331,-3.8964,-3.8726,-3.8707,-3.8707,-3.8707,-3.8707,-3.8707,-3.8707,-3.8707,-3.845,-3.7698,-6.0281,-5.9627,-5.9973,-5.9127,-5.7588,-5.7176,-5.6503,-5.569,-5.5282,-5.4881,-5.4452,-5.3995,-5.3565,-5.323,-5.3185,-5.3185,-5.3185,-5.3185,-5.3185,-5.3185,-5.3185,-5.3185,-5.3093,-5.238,-5.1683,-5.1041,-5.0088,-4.9151,-4.8475,-4.9108,-4.9608,-4.9787,-4.9987,-5.0043,-4.9759,-4.8074,-4.6967,-4.6408,-4.4965,-4.3964,-4.3618,-4.3742,-4.3758,-4.3531,-4.3479,-4.3479,-4.3479,-4.3479,-4.3479,-4.3479,-4.3479,-4.3479,-4.3479,-4.3479,-4.3479,-4.3479,-4.3479,-4.3479,-4.3479,-4.3479,-4.3479,-4.3479,-4.3479,-4.3479,-4.3479,-4.3479,-4.3479,-4.3461,-4.3479,-4.3461,-4.3479,-4.3479,-4.3479,-4.3479,-4.3479,-4.3479,-4.3479,-4.3479,-4.3479,-4.3479,-4.3479,-4.3479,-4.3479,-4.3479,-4.3479,-4.3479,-4.3479,-4.3479,-4.3479,-4.3479,-4.3479,-4.3479,-4.3479,-4.3479,-4.3479,-4.3424,-4.3149,-4.291,-4.2635,-4.2359,-4.1699,-4.0469,-3.9643,-4.0432,-3.9478,-3.9093,-3.946,-3.9386,-3.8744,-3.8726,-3.8707,-3.8707,-3.8707,-3.8689,-3.8469,-6.0281,-5.9454,-5.8723,-5.753,-5.5915,-5.6676,-5.6522,-5.5692,-5.5262,-5.4881,-5.4452,-5.3995,-5.3585,-5.3206,-5.3185,-5.3185,-5.3185,-5.3185,-5.3185,-5.3185,-5.3185,-5.3185,-5.313,-5.238,-5.1977,-5.172,-5.04,-4.9225,-4.8438,-4.9094,-4.9311,-4.9062,-4.9687,-4.9866,-4.9405,-4.8259,-4.7269,-4.6483,-4.5263,-4.4303,-4.3625,-4.355,-4.3531,-4.3496,-4.3479,-4.3479,-4.3479,-4.3479,-4.3479,-4.3479,-4.3479,-4.3479,-4.3479,-4.3479,-4.3479,-4.3479,-4.3479,-4.3479,-4.3479,-4.3479,-4.3479,-4.3479,-4.3479,-4.3479,-4.3479,-4.3479,-4.3479,-4.3479,-4.3479,-4.3479,-4.3479,-4.3479,-4.3479,-4.3479,-4.3479,-4.3479,-4.3479,-4.3479,-4.3479,-4.3479,-4.3479,-4.3479,-4.3479,-4.3479,-4.3534,-4.3588,-4.3551,-4.3552,-4.3608,-4.3571,-4.3552,-4.3497,-4.3479,-4.3479,-4.3479,-4.3479,-4.3478,-4.3313,-4.3112,-4.3129,-4.291,-4.2543,-4.2029,-4.135,-4.0304,-3.9955,-4.0414,-4.0084,-3.9166,-3.8817,-3.8744,-3.8726,-3.8707,-3.8707,-3.856,-6.0281,-5.9435,-5.8646,-5.7607,-5.6618,-5.6868,-5.6522,-5.5701,-5.5262,-5.4881,-5.4452,-5.4014,-5.3565,-5.3185,-5.3185,-5.3185,-5.3185,-5.3185,-5.3185,-5.3185,-5.3185,-5.3185,-5.317,-5.2894,-5.2472,-5.1867,-5.0894,-4.9784,-4.8804,-4.8978,-4.9187,-4.9265,-4.9292,-4.923,-4.8928,-4.793,-4.7166,-4.6761,-4.5459,-4.4544,-4.4232,-4.3754,-4.3479,-4.3479,-4.3479,-4.3479,-4.3479,-4.3479,-4.3479,-4.3479,-4.3479,-4.3479,-4.3479,-4.3479,-4.3479,-4.3479,-4.3479,-4.3479,-4.3479,-4.3479,-4.3479,-4.3479,-4.3479,-4.3479,-4.3479,-4.3479,-4.3479,-4.3479,-4.3479,-4.3479,-4.3479,-4.3479,-4.3479,-4.3479,-4.3479,-4.3497,-4.3479,-4.3479,-4.3479,-4.3479,-4.3479,-4.3479,-4.3552,-4.3497,-4.3699,-4.4176,-4.4268,-4.4268,-4.4268,-4.4268,-4.4085,-4.3643,-4.3479,-4.3479,-4.3479,-4.3479,-4.3479,-4.3479,-4.3406,-4.3369,-4.3222,-4.3167,-4.2727,-4.2268,-4.124,-4.0983,-4.1442,-4.0598,-3.968,-3.9405,-3.9294,-3.8891,-3.8707,-3.8762,-3.8744,-6.0127,-5.9146,-5.88,-5.7857,-5.6665,-5.6887,-5.6503,-5.5709,-5.5282,-5.4862,-5.4452,-5.4014,-5.3585,-5.323,-5.3185,-5.3185,-5.3185,-5.3185,-5.3185,-5.3185,-5.3185,-5.3185,-5.3185,-5.3185,-5.2784,-5.1922,-5.0894,-4.9803,-4.8841,-4.8829,-4.898,-4.9078,-4.8928,-4.8847,-4.86,-4.7868,-4.7406,-4.6929,-4.6012,-4.526,-4.4745,-4.4176,-4.3736,-4.3516,-4.3479,-4.3479,-4.3479,-4.3479,-4.3479,-4.3479,-4.3479,-4.3479,-4.3479,-4.3479,-4.3479,-4.3479,-4.3479,-4.3479,-4.3479,-4.3479,-4.3479,-4.3479,-4.3479,-4.3479,-4.3479,-4.3479,-4.3479,-4.3479,-4.3479,-4.3479,-4.3479,-4.3479,-4.3479,-4.3479,-4.3479,-4.3625,-4.3846,-4.3883,-4.3901,-4.3975,-4.4213,-4.4195,-4.3975,-4.4176,-4.4544,-4.5039,-4.5094,-4.5094,-4.5094,-4.4819,-4.4433,-4.3681,-4.3497,-4.3479,-4.3479,-4.3497,-4.3497,-4.3497,-4.3479,-4.3479,-4.3479,-4.3479,-4.3369,-4.2965,-4.269,-4.247,-4.1919,-4.1093,-4.0616,-4.0304,-3.9772,-3.9313,-3.9093,-3.8854,-3.8854,-5.9819,-5.8569,-5.9146,-5.8011,-5.6175,-5.6618,-5.6483,-5.5813,-5.5301,-5.4862,-5.4452,-5.3995,-5.3585,-5.3251,-5.3185,-5.3185,-5.3185,-5.3185,-5.3185,-5.3185,-5.3185,-5.3185,-5.3185,-5.3185,-5.2711,-5.183,-5.0418,-4.9243,-4.8419,-4.8657,-4.8692,-4.8477,-4.8709,-4.8675,-4.8307,-4.8215,-4.7884,-4.7296,-4.6984,-4.6214,-4.4947,-4.4672,-4.4232,-4.3589,-4.3479,-4.3479,-4.3479,-4.3479,-4.3479,-4.3479,-4.3479,-4.3479,-4.3479,-4.3479,-4.3479,-4.3479,-4.3479,-4.3479,-4.3479,-4.3479,-4.3479,-4.3479,-4.3479,-4.3479,-4.3479,-4.3479,-4.3479,-4.3479,-4.3479,-4.3479,-4.3479,-4.3479,-4.3479,-4.3497,-4.3552,-4.392,-4.4433,-4.469,-4.4727,-4.48,-4.5223,-4.548,-4.5112,-4.5186,-4.5626,-4.5828,-4.592,-4.5883,-4.581,-4.5388,-4.4544,-4.3773,-4.3698,-4.3863,-4.3698,-4.3533,-4.3533,-4.3515,-4.3497,-4.3479,-4.3479,-4.3479,-4.3479,-4.3204,-4.3185,-4.2965,-4.258,-4.1827,-4.1534,-4.1148,-4.0487,-3.9918,-3.9772,-3.957,-3.9074,-5.9819,-5.8396,-5.855,-5.7896,-5.6599,-5.6272,-5.6233,-5.647,-5.5568,-5.4862,-5.4452,-5.3995,-5.3603,-5.3272,-5.3185,-5.3185,-5.3185,-5.3185,-5.3185,-5.3185,-5.3185,-5.3185,-5.3185,-5.3185,-5.247,-5.1316,-5.0692,-4.9664,-4.8527,-4.8439,-4.8402,-4.8345,-4.8421,-4.8421,-4.8306,-4.8306,-4.8141,-4.7901,-4.7369,-4.6562,-4.5571,-4.5002,-4.4342,-4.3606,-4.3479,-4.3479,-4.3479,-4.3479,-4.3479,-4.3479,-4.3479,-4.3479,-4.3479,-4.3479,-4.3479,-4.3479,-4.3479,-4.3479,-4.3479,-4.3479,-4.3479,-4.3479,-4.3479,-4.3479,-4.3479,-4.3516,-4.3516,-4.3516,-4.3497,-4.3479,-4.3479,-4.3479,-4.3571,-4.3497,-4.3975,-4.4397,-4.4819,-4.5241,-4.548,-4.5535,-4.5736,-4.5736,-4.5626,-4.5883,-4.6214,-4.6673,-4.6727,-4.6672,-4.6452,-4.6195,-4.5296,-4.3956,-4.4176,-4.4433,-4.4267,-4.4158,-4.4121,-4.3828,-4.3608,-4.3497,-4.3479,-4.3479,-4.3479,-4.3479,-4.3479,-4.3332,-4.2947,-4.2635,-4.2286,-4.1919,-4.1295,-4.0928,-4.0689,-4.0267,-3.9753,-6.0012,-5.8781,-5.8742,-5.8261,-5.7462,-5.6706,-5.6513,-5.6587,-5.556,-5.4767,-5.4226,-5.3758,-5.3462,-5.3248,-5.3185,-5.3185,-5.3185,-5.3185,-5.3185,-5.3185,-5.3185,-5.3185,-5.313,-5.2858,-5.2123,-5.0967,-5.049,-4.9646,-4.8379,-4.8324,-4.8324,-4.8324,-4.8324,-4.8324,-4.8324,-4.8324,-4.8324,-4.8233,-4.7791,-4.7149,-4.6416,-4.5847,-4.5204,-4.4488,-4.4103,-4.3956,-4.392,-4.368,-4.3479,-4.3479,-4.3479,-4.3479,-4.3479,-4.3479,-4.3479,-4.3479,-4.3479,-4.3479,-4.3479,-4.3479,-4.3479,-4.3479,-4.3479,-4.3479,-4.3534,-4.3681,-4.3938,-4.3938,-4.4268,-4.4414,-4.4397,-4.4397,-4.4396,-4.4397,-4.4544,-4.4984,-4.5461,-4.6324,-4.6581,-4.6544,-4.6636,-4.6617,-4.6452,-4.6709,-4.6929,-4.7443,-4.7535,-4.7516,-4.726,-4.6929,-4.592,-4.5296,-4.5571,-4.5498,-4.4947,-4.4819,-4.4764,-4.4268,-4.3754,-4.3589,-4.3479,-4.3479,-4.3479,-4.3479,-4.3479,-4.3479,-4.3167,-4.3074,-4.2782,-4.2396,-4.2066,-4.1754,-4.1423,-4.0855,-4.0322,-6.0281,-5.955,-5.9492,-5.9008,-5.8246,-5.7722,-5.7109,-5.6378,-5.542,-5.4578,-5.3888,-5.3442,-5.3227,-5.3206,-5.3185,-5.3185,-5.3185,-5.3185,-5.3185,-5.3185,-5.3185,-5.3185,-5.3112,-5.2619,-5.1903,-5.0986,-5.0196,-4.9315,-4.8563,-4.8379,-4.8324,-4.8324,-4.8324,-4.8324,-4.8324,-4.8324,-4.8324,-4.8306,-4.8251,-4.781,-4.7076,-4.7003,-4.6562,-4.5773,-4.5131,-4.4764,-4.469,-4.4085,-4.3589,-4.3497,-4.3479,-4.3479,-4.3479,-4.3479,-4.3479,-4.3479,-4.3479,-4.3479,-4.3479,-4.3479,-4.3479,-4.3479,-4.3608,-4.357,-4.3736,-4.4342,-4.4764,-4.48,-4.5314,-4.5736,-4.5718,-4.57,-4.5736,-4.5847,-4.5461,-4.5718,-4.6947,-4.7774,-4.7719,-4.7443,-4.7792,-4.8012,-4.7259,-4.7755,-4.803,-4.8158,-4.8158,-4.8122,-4.7994,-4.7627,-4.7462,-4.7223,-4.6948,-4.6471,-4.5902,-4.5792,-4.5681,-4.5021,-4.4415,-4.4066,-4.3644,-4.3534,-4.3479,-4.3479,-4.3608,-4.3571,-4.3442,-4.3313,-4.3276,-4.3075,-4.2763,-4.247,-4.2084,-4.1589,-4.113,-6.03,-5.9531,-5.9511,-5.9177,-5.8582,-5.791,-5.7304,-5.6636,-5.5527,-5.4651,-5.385,-5.3361,-5.324,-5.3185,-5.3203,-5.3185,-5.3185,-5.3185,-5.3185,-5.3185,-5.3185,-5.3185,-5.3185,-5.3004,-5.2435,-5.1628,-5.0784,-5.0068,-4.9262,-4.86,-4.8324,-4.8324,-4.8324,-4.8324,-4.8324,-4.8324,-4.8324,-4.8324,-4.8324,-4.7921,-4.7259,-4.7131,-4.6691,-4.5957,-4.57,-4.5571,-4.5516,-4.4819,-4.4066,-4.3534,-4.3479,-4.3479,-4.3534,-4.3571,-4.3626,-4.3626,-4.3571,-4.3534,-4.3552,-4.3516,-4.3516,-4.357,-4.403,-4.4378,-4.4415,-4.5112,-4.5516,-4.5626,-4.5828,-4.5957,-4.5938,-4.5975,-4.6195,-4.6673,-4.6526,-4.6782,-4.7663,-4.8141,-4.8214,-4.8048,-4.8177,-4.8122,-4.8086,-4.8122,-4.8324,-4.8324,-4.8324,-4.8324,-4.8177,-4.8141,-4.7902,-4.8031,-4.781,-4.7333,-4.6948,-4.6838,-4.6507,-4.5847,-4.5278,-4.4782,-4.4212,-4.3643,-4.3552,-4.3479,-4.3901,-4.4011,-4.3681,-4.3406,-4.3479,-4.3479,-4.3314,-4.2965,-4.2892,-4.2543,-4.2139,-6.0492,-6.0031,-6.005,-5.976,-5.9307,-5.8635,-5.7921,-5.7077,-5.6174,-5.5303,-5.4576,-5.3942,-5.372,-5.3683,-5.3371,-5.3185,-5.3185,-5.3185,-5.3185,-5.3185,-5.3185,-5.3185,-5.3185,-5.3185,-5.2784,-5.1977,-5.1169,-5.038,-4.9555,-4.871,-4.8361,-4.8324,-4.8324,-4.8324,-4.8324,-4.8324,-4.8324,-4.8324,-4.8306,-4.803,-4.7626,-4.7608,-4.7425,-4.6893,-4.6636,-4.6305,-4.5902,-4.5443,-4.4837,-4.4213,-4.4011,-4.4011,-4.403,-4.4342,-4.4488,-4.4488,-4.4507,-4.4543,-4.4433,-4.4232,-4.4176,-4.4415,-4.4745,-4.4856,-4.5259,-4.5938,-4.6416,-4.6434,-4.6691,-4.6893,-4.6929,-4.6911,-4.7131,-4.7517,-4.7608,-4.7791,-4.8288,-4.8306,-4.8324,-4.8324,-4.8324,-4.8324,-4.8324,-4.8324,-4.8324,-4.8324,-4.8324,-4.8324,-4.8306,-4.8324,-4.8324,-4.8324,-4.8324,-4.7865,-4.7645,-4.7553,-4.7223,-4.6599,-4.6104,-4.5608,-4.5112,-4.4342,-4.4121,-4.4176,-4.4342,-4.4359,-4.3993,-4.3663,-4.3479,-4.3479,-4.3479,-4.3442,-4.3277,-4.3167,-4.2818,-6.08,-6.0781,-6.0726,-6.0469,-5.9942,-5.949,-5.8465,-5.7477,-5.6866,-5.6224,-5.5453,-5.4715,-5.4308,-5.4344,-5.3537,-5.3185,-5.3185,-5.3185,-5.3185,-5.3185,-5.3185,-5.3185,-5.3185,-5.3185,-5.2858,-5.216,-5.1279,-5.0508,-4.9719,-4.8838,-4.8343,-4.8324,-4.8324,-4.8324,-4.8324,-4.8324,-4.8324,-4.8324,-4.8324,-4.8288,-4.8177,-4.8177,-4.8086,-4.7976,-4.7516,-4.6966,-4.6471,-4.6085,-4.5718,-4.4984,-4.4892,-4.4837,-4.4929,-4.5535,-4.5755,-4.5736,-4.5645,-4.5681,-4.5736,-4.5131,-4.5076,-4.5516,-4.5241,-4.5241,-4.6012,-4.6746,-4.7223,-4.7223,-4.7902,-4.8031,-4.8086,-4.8196,-4.8141,-4.8177,-4.8233,-4.8288,-4.8324,-4.8324,-4.8324,-4.8324,-4.8324,-4.8324,-4.8324,-4.8324,-4.8324,-4.8324,-4.8324,-4.8324,-4.8324,-4.8324,-4.8324,-4.8324,-4.8324,-4.8306,-4.8233,-4.8214,-4.781,-4.7333,-4.6911,-4.6489,-4.6342,-4.5736,-4.5241,-4.5057,-4.5076,-4.4819,-4.4378,-4.4065,-4.3736,-4.3626,-4.3736,-4.3608,-4.3442,-4.3387,-4.313,-6.08,-6.0757,-6.0391,-5.9962,-5.9509,-5.9047,-5.8145,-5.7004,-5.6889,-5.6418,-5.5556,-5.4766,-5.4454,-5.4344,-5.361,-5.3185,-5.3185,-5.3185,-5.3185,-5.3185,-5.3185,-5.3185,-5.3185,-5.3185,-5.3093,-5.2601,-5.1444,-5.0729,-5.0215,-4.915,-4.8324,-4.8324,-4.8324,-4.8324,-4.8324,-4.8324,-4.8324,-4.8324,-4.8324,-4.8324,-4.8324,-4.8324,-4.8324,-4.8288,-4.8085,-4.7994,-4.77,-4.7168,-4.6764,-4.6489,-4.6012,-4.5736,-4.5718,-4.5883,-4.6049,-4.6085,-4.6012,-4.5957,-4.5883,-4.5828,-4.5718,-4.5993,-4.6305,-4.6654,-4.6819,-4.7516,-4.7957,-4.8067,-4.8233,-4.8306,-4.8324,-4.8324,-4.8324,-4.8324,-4.8324,-4.8324,-4.8324,-4.8324,-4.8324,-4.8324,-4.8324,-4.8324,-4.8324,-4.8324,-4.8324,-4.8324,-4.8324,-4.8324,-4.8324,-4.8324,-4.8324,-4.8324,-4.8324,-4.8324,-4.8324,-4.8324,-4.8122,-4.7865,-4.7553,-4.7315,-4.7168,-4.6893,-4.6305,-4.5938,-4.5718,-4.5369,-4.5057,-4.4397,-4.4066,-4.403,-4.4011,-4.3828,-4.3718,-4.3626,-4.3479,-6.0146,-6.0099,-5.987,-5.9492,-5.9047,-5.8777,-5.8198,-5.7459,-5.7354,-5.6914,-5.6106,-5.5317,-5.4766,-5.4344,-5.3592,-5.3185,-5.3185,-5.3185,-5.3185,-5.3185,-5.3185,-5.3185,-5.3185,-5.3185,-5.3167,-5.2983,-5.1977,-5.1242,-5.0527,-4.9591,-4.8728,-4.8343,-4.8324,-4.8324,-4.8324,-4.8324,-4.8324,-4.8324,-4.8324,-4.8324,-4.8324,-4.8324,-4.8324,-4.8324,-4.8324,-4.8324,-4.8214,-4.7901,-4.77,-4.7553,-4.7241,-4.6819,-4.6636,-4.6819,-4.7003,-4.7021,-4.7021,-4.7021,-4.7021,-4.6709,-4.6654,-4.6948,-4.715,-4.7296,-4.7571,-4.8085,-4.8269,-4.8324,-4.8306,-4.8324,-4.8324,-4.8324,-4.8324,-4.8324,-4.8324,-4.8324,-4.8324,-4.8324,-4.8324,-4.8324,-4.8324,-4.8324,-4.8324,-4.8324,-4.8324,-4.8324,-4.8324,-4.8324,-4.8324,-4.8324,-4.8324,-4.8324,-4.8324,-4.8324,-4.8324,-4.8324,-4.8324,-4.8177,-4.8067,-4.7957,-4.7884,-4.759,-4.7241,-4.6911,-4.6562,-4.6287,-4.5883,-4.5186,-4.4745,-4.4892,-4.4819,-4.4342,-4.3975,-4.3846,-4.3644,-5.9389,-5.9389,-5.9319,-5.9065,-5.8735,-5.863,-5.8332,-5.7987,-5.785,-5.7281,-5.6675,-5.5868,-5.4858,-5.4326,-5.3555,-5.3203,-5.3185,-5.3185,-5.3185,-5.3185,-5.3185,-5.3185,-5.3185,-5.3185,-5.3185,-5.3115,-5.2307,-5.1591,-5.0949,-5.0069,-4.9169,-4.8618,-4.8343,-4.8324,-4.8324,-4.8324,-4.8324,-4.8324,-4.8324,-4.8324,-4.8324,-4.8324,-4.8324,-4.8324,-4.8324,-4.8324,-4.8324,-4.8251,-4.8269,-4.8324,-4.8324,-4.7957,-4.7663,-4.7846,-4.8324,-4.8251,-4.8104,-4.8049,-4.7921,-4.7645,-4.7553,-4.8233,-4.7737,-4.7626,-4.8104,-4.8251,-4.8306,-4.8324,-4.8324,-4.8324,-4.8324,-4.8324,-4.8324,-4.8324,-4.8324,-4.8324,-4.8324,-4.8324,-4.8324,-4.8324,-4.8324,-4.8324,-4.8324,-4.8324,-4.8324,-4.8324,-4.8324,-4.8324,-4.8324,-4.8324,-4.8324,-4.8324,-4.8324,-4.8324,-4.8324,-4.8324,-4.8324,-4.8324,-4.8324,-4.8324,-4.8324,-4.8086,-4.7755,-4.7664,-4.7369,-4.7113,-4.6801,-4.6269,-4.5993,-4.5975,-4.5516,-4.4947,-4.4507,-4.4103,-4.3864,-5.9389,-5.9354,-5.8971,-5.8775,-5.8652,-5.8304,-5.8074,-5.7891,-5.7336,-5.695,-5.6602,-5.528,-5.4583,-5.4179,-5.3555,-5.3203,-5.3185,-5.3185,-5.3185,-5.3185,-5.3185,-5.3185,-5.3185,-5.3185,-5.3185,-5.2986,-5.2472,-5.1958,-5.1426,-5.04,-4.961,-4.9262,-4.8636,-4.8324,-4.8324,-4.8324,-4.8324,-4.8324,-4.8324,-4.8324,-4.8324,-4.8324,-4.8324,-4.8324,-4.8324,-4.8324,-4.8324,-4.8324,-4.8324,-4.8324,-4.8324,-4.8233,-4.8086,-4.8214,-4.8306,-4.8324,-4.8324,-4.8324,-4.8251,-4.8214,-4.8141,-4.8251,-4.8104,-4.8067,-4.8269,-4.8324,-4.8324,-4.8324,-4.8324,-4.8324,-4.8324,-4.8416,-4.8342,-4.8343,-4.8489,-4.8508,-4.8489,-4.8471,-4.8545,-4.8673,-4.8545,-4.8324,-4.8324,-4.8324,-4.8324,-4.8324,-4.8324,-4.8324,-4.8324,-4.8324,-4.8324,-4.8324,-4.8324,-4.8324,-4.8324,-4.8324,-4.8324,-4.8324,-4.8324,-4.8324,-4.8324,-4.8324,-4.8177,-4.8012,-4.7993,-4.7902,-4.7572,-4.7186,-4.7003,-4.6838,-4.6214,-4.5535,-4.5223,-4.4892,-4.4232,-5.8674,-5.8634,-5.8418,-5.8329,-5.8304,-5.8097,-5.7978,-5.7868,-5.7171,-5.6547,-5.5923,-5.495,-5.4161,-5.3775,-5.3405,-5.3185,-5.3185,-5.3185,-5.3185,-5.3185,-5.3185,-5.3185,-5.3185,-5.3185,-5.3185,-5.3115,-5.2784,-5.2344,-5.1903,-5.082,-5.005,-4.9445,-4.8728,-4.8324,-4.8324,-4.8324,-4.8324,-4.8324,-4.8324,-4.8324,-4.8324,-4.8324,-4.8324,-4.8324,-4.8324,-4.8324,-4.8324,-4.8324,-4.8324,-4.8324,-4.8324,-4.8324,-4.8324,-4.8324,-4.8324,-4.8324,-4.8324,-4.8324,-4.8324,-4.8324,-4.8306,-4.8306,-4.8324,-4.8324,-4.8324,-4.8324,-4.8379,-4.8343,-4.8324,-4.8324,-4.8324,-4.8691,-4.893,-4.904,-4.9279,-4.9499,-4.9499,-4.9315,-4.9279,-4.9242,-4.8875,-4.86,-4.8324,-4.8324,-4.8324,-4.8324,-4.8324,-4.8324,-4.8324,-4.8324,-4.8324,-4.8324,-4.8324,-4.8324,-4.8324,-4.8324,-4.8324,-4.8324,-4.8324,-4.8324,-4.8324,-4.8324,-4.8324,-4.8251,-4.8306,-4.8324,-4.8196,-4.7774,-4.77,-4.7571,-4.6966,-4.6416,-4.6049,-4.5608,-4.5002,-5.7978,-5.7978,-5.7978,-5.7978,-5.7978,-5.7978,-5.7978,-5.7831,-5.7152,-5.6492,-5.5757,-5.4858,-5.4069,-5.3555,-5.3277,-5.3185,-5.3185,-5.3185,-5.3185,-5.3185,-5.3185,-5.3185,-5.3185,-5.3185,-5.3185,-5.3185,-5.3133,-5.2876,-5.2307,-5.1444,-5.0637,-4.9903,-4.9022,-4.8416,-4.8361,-4.8324,-4.8324,-4.8324,-4.8324,-4.8324,-4.8324,-4.8324,-4.8324,-4.8324,-4.8324,-4.8324,-4.8324,-4.8324,-4.8324,-4.8324,-4.8324,-4.8324,-4.8324,-4.8324,-4.8324,-4.8324,-4.8324,-4.8324,-4.8324,-4.8324,-4.8324,-4.8324,-4.8324,-4.8324,-4.8434,-4.8581,-4.8746,-4.8655,-4.8618,-4.8802,-4.9058,-4.9297,-4.961,-4.9941,-5.0343,-5.0729,-5.0472,-5.0251,-5.0086,-4.9848,-4.9315,-4.9058,-4.8948,-4.8324,-4.8324,-4.8324,-4.8324,-4.8324,-4.8324,-4.8324,-4.8324,-4.8324,-4.8324,-4.8324,-4.8324,-4.8324,-4.8324,-4.8324,-4.8324,-4.8324,-4.8324,-4.8324,-4.8324,-4.8324,-4.8324,-4.8324,-4.8324,-4.8324,-4.8103,-4.7865,-4.7571,-4.7186,-4.6672,-4.6305,-4.5865,-5.7978,-5.7978,-5.7978,-5.7978,-5.7978,-5.7978,-5.7978,-5.7886,-5.7152,-5.6785,-5.6455,-5.5097,-5.4326,-5.3995,-5.3445,-5.3222,-5.3185,-5.3185,-5.3185,-5.3185,-5.3185,-5.3185,-5.3185,-5.3185,-5.3185,-5.3185,-5.3185,-5.3167,-5.2766,-5.2123,-5.1444,-5.0618,-4.9811,-4.9095,-4.8691,-4.871,-4.8324,-4.8379,-4.8379,-4.8361,-4.8324,-4.8324,-4.8324,-4.8324,-4.8324,-4.8324,-4.8324,-4.8324,-4.8324,-4.8324,-4.8324,-4.8324,-4.8324,-4.8324,-4.8324,-4.8324,-4.8324,-4.8324,-4.8324,-4.8324,-4.8324,-4.8343,-4.8379,-4.8343,-4.8673,-4.9334,-4.9793,-4.9793,-4.9591,-4.9664,-4.9958,-4.9921,-5.0106,-5.0453,-5.0967,-5.1059,-5.0949,-5.1242,-5.1077,-5.0949,-5.0582,-5.0123,-4.9829,-4.8985,-4.8324,-4.8324,-4.8343,-4.8416,-4.8563,-4.8765,-4.8838,-4.8967,-4.9003,-4.9003,-4.8875,-4.8783,-4.86,-4.8526,-4.8343,-4.8343,-4.8324,-4.8324,-4.8324,-4.8324,-4.8324,-4.8324,-4.8324,-4.8324,-4.8324,-4.8196,-4.792,-4.7571,-4.7149,-4.6856,-4.6691,-5.7574,-5.7978,-5.7978,-5.7978,-5.7978,-5.7978,-5.7978,-5.7813,-5.7171,-5.6804,-5.6492,-5.5097,-5.4179,-5.3739,-5.3316,-5.3203,-5.3185,-5.3185,-5.3185,-5.3185,-5.3185,-5.3185,-5.3185,-5.3185,-5.3185,-5.3185,-5.3185,-5.3185,-5.2949,-5.2454,-5.1756,-5.1408,-5.0674,-5.0141,-4.9572,-4.9682,-4.9738,-4.9646,-4.9315,-4.8783,-4.8453,-4.8324,-4.8324,-4.8324,-4.8324,-4.8324,-4.8343,-4.8324,-4.8324,-4.8324,-4.8324,-4.8324,-4.8324,-4.8324,-4.8324,-4.8324,-4.8324,-4.8324,-4.8324,-4.8343,-4.8398,-4.8508,-4.8728,-4.9095,-4.9426,-5.0178,-5.0875,-5.0912,-5.0508,-5.0527,-5.0875,-5.0912,-5.1151,-5.1444,-5.1738,-5.194,-5.1956,-5.2032,-5.2105,-5.1995,-5.1811,-5.1298,-5.071,-4.9903,-4.9389,-4.9462,-4.9389,-4.9334,-4.9609,-4.9976,-4.9976,-4.9921,-4.9939,-4.9939,-4.9756,-4.9591,-4.926,-4.904,-4.8453,-4.8416,-4.8343,-4.8324,-4.8324,-4.8324,-4.8324,-4.8324,-4.8324,-4.8324,-4.8324,-4.8324,-4.8306,-4.7938,-4.7645,-4.7736,-4.7425,-5.7171,-5.7721,-5.7905,-5.7978,-5.7978,-5.7978,-5.7978,-5.7905,-5.7409,-5.7005,-5.64,-5.5133,-5.3959,-5.3332,-5.3203,-5.3185,-5.3185,-5.3185,-5.3185,-5.3185,-5.3185,-5.3185,-5.3185,-5.3185,-5.3185,-5.3185,-5.3185,-5.3185,-5.302,-5.2656,-5.227,-5.2016,-5.1371,-5.0912,-5.0802,-5.0655,-5.0582,-5.0545,-5.0123,-4.9499,-4.8875,-4.8691,-4.8673,-4.86,-4.8471,-4.8378,-4.8563,-4.8361,-4.8324,-4.8324,-4.8324,-4.8324,-4.8324,-4.86,-4.8728,-4.8838,-4.8967,-4.915,-4.9058,-4.8967,-4.8765,-4.904,-4.9352,-4.9939,-5.0215,-5.1114,-5.1683,-5.161,-5.1353,-5.1224,-5.1426,-5.183,-5.1922,-5.227,-5.2711,-5.3023,-5.3148,-5.2837,-5.269,-5.2637,-5.2491,-5.2344,-5.1701,-5.0875,-5.0527,-5.0618,-5.0508,-5.0325,-5.0527,-5.0875,-5.0747,-5.0582,-5.0527,-5.0527,-5.0417,-5.0215,-4.9941,-4.9574,-4.8967,-4.8526,-4.8453,-4.8361,-4.8324,-4.8324,-4.8324,-4.8324,-4.8324,-4.8324,-4.8324,-4.8324,-4.8324,-4.8324,-4.8233,-4.8324,-4.8177,-5.684,-5.695,-5.7685,-5.796,-5.7978,-5.7978,-5.7978,-5.7978,-5.7905,-5.7391,-5.6528,-5.5152,-5.3959,-5.335,-5.3185,-5.3185,-5.3185,-5.3185,-5.3185,-5.3185,-5.3185,-5.3185,-5.3185,-5.3185,-5.3185,-5.3185,-5.3185,-5.3185,-5.3167,-5.3057,-5.2582,-5.2068,-5.1995,-5.1463,-5.1206,-5.1242,-5.1096,-5.1022,-5.0765,-5.0325,-4.9738,-4.9519,-4.9499,-4.9335,-4.8857,-4.8655,-4.939,-4.8728,-4.8324,-4.8324,-4.8508,-4.8508,-4.8655,-4.9279,-4.9572,-4.9609,-4.9958,-5.0196,-5.027,-4.9884,-4.9939,-5.0362,-5.0674,-5.0802,-5.1077,-5.1555,-5.1922,-5.2068,-5.1977,-5.2234,-5.2417,-5.2564,-5.2509,-5.2747,-5.3041,-5.3075,-5.3185,-5.3167,-5.3038,-5.317,-5.3059,-5.2821,-5.2692,-5.1867,-5.1481,-5.1536,-5.1463,-5.1279,-5.1169,-5.1371,-5.1187,-5.1059,-5.0986,-5.0949,-5.0912,-5.0747,-5.0637,-5.0198,-4.961,-4.9003,-4.8581,-4.8471,-4.8324,-4.8324,-4.8324,-4.8324,-4.8324,-4.8324,-4.8324,-4.8324,-4.8324,-4.8324,-4.8324,-4.8324,-4.8324,-5.5904,-5.684,-5.7152,-5.7538,-5.7978,-5.7978,-5.7978,-5.7978,-5.7978,-5.7244,-5.6014,-5.4895,-5.3959,-5.339,-5.3185,-5.3185,-5.3185,-5.3185,-5.3185,-5.3185,-5.3185,-5.3185,-5.3185,-5.3185,-5.3185,-5.3185,-5.3185,-5.3185,-5.3185,-5.3185,-5.3075,-5.2803,-5.2674,-5.2619,-5.2344,-5.2087,-5.194,-5.1591,-5.1463,-5.1132,-5.0527,-5.0343,-5.0343,-5.027,-4.9536,-4.9298,-4.9427,-4.8728,-4.8434,-4.8526,-4.9003,-4.9132,-4.9279,-5.0178,-5.0508,-5.0398,-5.0784,-5.1114,-5.1353,-5.0875,-5.0729,-5.1316,-5.1555,-5.1701,-5.2032,-5.2564,-5.2711,-5.2747,-5.2674,-5.2894,-5.2968,-5.2931,-5.2931,-5.3112,-5.3185,-5.3185,-5.3185,-5.3185,-5.3185,-5.3185,-5.3185,-5.3093,-5.3002,-5.2858,-5.2619,-5.2435,-5.2344,-5.2234,-5.2068,-5.1995,-5.1903,-5.1846,-5.1848,-5.1919,-5.1919,-5.1701,-5.1408,-5.0839,-5.0271,-4.9701,-4.915,-4.8453,-4.8343,-4.8324,-4.8379,-4.8416,-4.8416,-4.8343,-4.8324,-4.8324,-4.8324,-4.8324,-4.8324,-4.8324,-4.8324,-5.5207,-5.6436,-5.6693,-5.7262,-5.7941,-5.7978,-5.7978,-5.7978,-5.7978,-5.7097,-5.5537,-5.4546,-5.3757,-5.3295,-5.3185,-5.3185,-5.3185,-5.3185,-5.3185,-5.3185,-5.3185,-5.3185,-5.3185,-5.3185,-5.3185,-5.3185,-5.3185,-5.3185,-5.3185,-5.3185,-5.313,-5.313,-5.3185,-5.3093,-5.3093,-5.3148,-5.2913,-5.2509,-5.2289,-5.194,-5.1279,-5.1151,-5.1169,-5.1041,-5.0362,-5.0233,-5.0198,-4.9793,-4.9315,-4.9444,-4.9756,-5.0068,-5.0417,-5.0857,-5.1371,-5.1371,-5.1444,-5.1793,-5.1995,-5.1977,-5.1775,-5.227,-5.2362,-5.2656,-5.3041,-5.3185,-5.3075,-5.3112,-5.313,-5.3185,-5.3185,-5.3133,-5.3096,-5.3185,-5.3185,-5.3185,-5.3185,-5.3185,-5.3185,-5.3185,-5.3185,-5.3185,-5.3148,-5.3057,-5.2983,-5.2839,-5.2803,-5.2745,-5.2745,-5.2726,-5.28,-5.28,-5.2837,-5.2965,-5.3093,-5.2637,-5.2123,-5.1573,-5.1022,-5.0547,-4.9921,-4.9187,-4.882,-4.9058,-4.9022,-4.8691,-4.8489,-4.8361,-4.8324,-4.8324,-4.8324,-4.8324,-4.8324,-4.8324,-4.8324,-5.4876,-5.5684,-5.6455,-5.7226,-5.7941,-5.7978,-5.7978,-5.7941,-5.7795,-5.6969,-5.5464,-5.4069,-5.3314,-5.3185,-5.3185,-5.3185,-5.3185,-5.3185,-5.3185,-5.3185,-5.3185,-5.3185,-5.3185,-5.3185,-5.3185,-5.3185,-5.3185,-5.3185,-5.3185,-5.3185,-5.3185,-5.3185,-5.3185,-5.3185,-5.3185,-5.3185,-5.3167,-5.317,-5.3075,-5.2601,-5.2142,-5.1977,-5.1977,-5.1793,-5.1187,-5.1041,-5.1169,-5.0674,-5.027,-5.0362,-5.0618,-5.082,-5.093,-5.161,-5.2013,-5.2013,-5.2619,-5.2965,-5.3093,-5.3075,-5.2983,-5.2968,-5.2894,-5.3038,-5.3148,-5.3185,-5.3185,-5.3185,-5.3185,-5.3185,-5.3185,-5.3185,-5.3185,-5.3185,-5.3185,-5.3185,-5.3185,-5.3185,-5.3185,-5.3185,-5.3185,-5.3185,-5.3185,-5.3167,-5.3167,-5.313,-5.3167,-5.3185,-5.3185,-5.3185,-5.3185,-5.3185,-5.3185,-5.3185,-5.3185,-5.3185,-5.2818,-5.2307,-5.1756,-5.1206,-5.0729,-5.016,-4.9921,-4.9958,-4.9572,-4.9169,-4.8728,-4.8343,-4.8324,-4.8324,-4.8324,-4.8324,-4.8324,-4.8324,-4.8324,-5.4381,-5.5592,-5.5904,-5.6767,-5.7886,-5.7978,-5.7978,-5.7776,-5.6895,-5.6088,-5.5354,-5.3904,-5.3185,-5.3185,-5.3222,-5.324,-5.3222,-5.3185,-5.3185,-5.3185,-5.3185,-5.3185,-5.3185,-5.3185,-5.3185,-5.3185,-5.3185,-5.3185,-5.3185,-5.3185,-5.3185,-5.3185,-5.3185,-5.3185,-5.3185,-5.3185,-5.3185,-5.3185,-5.3148,-5.3059,-5.2821,-5.2766,-5.2747,-5.2729,-5.1977,-5.1793,-5.2032,-5.1353,-5.1059,-5.1096,-5.1316,-5.1591,-5.172,-5.2344,-5.2711,-5.2766,-5.3167,-5.3167,-5.3185,-5.3148,-5.3167,-5.3185,-5.3185,-5.3185,-5.3185,-5.3185,-5.3185,-5.3185,-5.3185,-5.3185,-5.3185,-5.3185,-5.3185,-5.3185,-5.3185,-5.3185,-5.3185,-5.3185,-5.3185,-5.3185,-5.3185,-5.3277,-5.3314,-5.3387,-5.3387,-5.3222,-5.3185,-5.3185,-5.3185,-5.3185,-5.3185,-5.3185,-5.3185,-5.3185,-5.3185,-5.3185,-5.3185,-5.2803,-5.2289,-5.1814,-5.1353,-5.1059,-5.0986,-5.0986,-5.0306,-4.9627,-4.9169,-4.8746,-4.8434,-4.8324,-4.8324,-4.8324,-4.8324,-4.8324,-4.8324,-5.4142,-5.5537,-5.5614,-5.651,-5.785,-5.7978,-5.7978,-5.7758,-5.6602,-5.5886,-5.539,-5.4454,-5.3885,-5.3739,-5.3628,-5.3628,-5.361,-5.3277,-5.3185,-5.3185,-5.3185,-5.3185,-5.3185,-5.3185,-5.3185,-5.3185,-5.3185,-5.3185,-5.3185,-5.3185,-5.3185,-5.3185,-5.3185,-5.3185,-5.3185,-5.3185,-5.3185,-5.3185,-5.3185,-5.3167,-5.3112,-5.313,-5.3148,-5.3002,-5.2711,-5.2454,-5.2289,-5.1958,-5.161,-5.1756,-5.2032,-5.2399,-5.2601,-5.2839,-5.3185,-5.3185,-5.3185,-5.3185,-5.3185,-5.3185,-5.3185,-5.3185,-5.3185,-5.3185,-5.3185,-5.3185,-5.3185,-5.3185,-5.3222,-5.3259,-5.3277,-5.3277,-5.3405,-5.3424,-5.3647,-5.3665,-5.3424,-5.3442,-5.3922,-5.3849,-5.3885,-5.383,-5.3647,-5.361,-5.3644,-5.3405,-5.3185,-5.3203,-5.3203,-5.3185,-5.3185,-5.3185,-5.3185,-5.3185,-5.3185,-5.3185,-5.3185,-5.3185,-5.2803,-5.2325,-5.2344,-5.2123,-5.2068,-5.194,-5.1298,-5.0582,-4.9719,-4.9187,-4.8728,-4.8434,-4.8324,-4.8324,-4.8324,-4.8324,-4.8324,-5.4124,-5.5445,-5.5592,-5.6492,-5.7776,-5.7941,-5.7978,-5.7923,-5.7134,-5.6345,-5.5651,-5.5537,-5.5005,-5.4509,-5.4436,-5.4436,-5.4381,-5.3757,-5.3497,-5.3369,-5.3442,-5.3332,-5.3222,-5.3185,-5.3185,-5.3185,-5.3185,-5.3185,-5.3185,-5.3185,-5.3185,-5.3185,-5.3185,-5.3185,-5.3185,-5.3185,-5.3185,-5.3185,-5.3185,-5.3185,-5.3185,-5.3185,-5.3185,-5.3112,-5.302,-5.2983,-5.2928,-5.2837,-5.2873,-5.2965,-5.3075,-5.3112,-5.3167,-5.3185,-5.3185,-5.3185,-5.3185,-5.3185,-5.3185,-5.3185,-5.3185,-5.3203,-5.3332,-5.3259,-5.3185,-5.3203,-5.3295,-5.3445,-5.3573,-5.35,-5.3482,-5.3683,-5.3867,-5.4106,-5.4399,-5.4252,-5.3922,-5.4161,-5.4803,-5.5023,-5.5115,-5.4987,-5.4546,-5.4363,-5.4234,-5.3775,-5.3555,-5.3314,-5.3295,-5.3185,-5.3185,-5.3185,-5.3185,-5.3185,-5.3185,-5.3185,-5.3185,-5.3185,-5.3185,-5.2894,-5.2983,-5.2986,-5.2745,-5.2509,-5.2234,-5.1518,-5.038,-4.9517,-4.8875,-4.869,-4.885,-4.8412,-4.8447,-4.8342,-4.8324,-5.383,-5.4766,-5.5354,-5.6198,-5.7152,-5.7758,-5.7978,-5.7868,-5.7152,-5.6638,-5.6418,-5.5831,-5.5556,-5.5244,-5.5262,-5.5244,-5.5152,-5.4968,-5.4528,-5.4252,-5.3922,-5.3647,-5.3369,-5.3185,-5.3185,-5.3185,-5.3185,-5.3185,-5.3185,-5.3185,-5.3185,-5.3185,-5.3185,-5.3185,-5.3185,-5.3185,-5.3185,-5.3185,-5.3185,-5.3185,-5.3185,-5.3185,-5.3185,-5.3185,-5.3185,-5.3185,-5.3185,-5.3185,-5.3185,-5.3185,-5.3185,-5.3185,-5.3185,-5.3185,-5.3185,-5.3185,-5.3185,-5.3185,-5.3185,-5.3185,-5.3222,-5.3405,-5.3702,-5.361,-5.3405,-5.3314,-5.3518,-5.3849,-5.4381,-5.462,-5.4528,-5.4564,-5.4766,-5.5023,-5.5244,-5.5115,-5.4895,-5.5207,-5.5776,-5.589,-5.6,-5.5794,-5.5372,-5.5244,-5.5042,-5.4418,-5.3977,-5.3775,-5.3463,-5.335,-5.3185,-5.3185,-5.3185,-5.3185,-5.3185,-5.3185,-5.3185,-5.3185,-5.3185,-5.3185,-5.313,-5.3112,-5.3167,-5.2931,-5.2435,-5.1683,-5.0747,-5.005,-4.9516,-4.9683,-4.9784,-4.9096,-4.8552,-4.8442,-4.8412,-5.3683,-5.4418,-5.4913,-5.5739,-5.6859,-5.7648,-5.7978,-5.7886,-5.7483,-5.7152,-5.6804,-5.6657,-5.6363,-5.6088,-5.6088,-5.6069,-5.6033,-5.5556,-5.5042,-5.4454,-5.4454,-5.3849,-5.3463,-5.3203,-5.3185,-5.3185,-5.3185,-5.3185,-5.3185,-5.3185,-5.3185,-5.3185,-5.3185,-5.3185,-5.3185,-5.3185,-5.3185,-5.3185,-5.3185,-5.3185,-5.3185,-5.3185,-5.3185,-5.3185,-5.3185,-5.3185,-5.3185,-5.3185,-5.3185,-5.3185,-5.3185,-5.3185,-5.3185,-5.3185,-5.3185,-5.3185,-5.3185,-5.3185,-5.3185,-5.3185,-5.335,-5.3702,-5.4142,-5.4271,-5.3995,-5.3775,-5.4179,-5.4601,-5.5427,-5.6014,-5.5776,-5.5633,-5.5812,-5.6033,-5.6051,-5.6069,-5.6216,-5.6381,-5.6528,-5.6624,-5.6547,-5.6418,-5.6253,-5.6143,-5.5831,-5.5207,-5.484,-5.4748,-5.4197,-5.3628,-5.3369,-5.3185,-5.3185,-5.3185,-5.3185,-5.3185,-5.3185,-5.3185,-5.3185,-5.3185,-5.3185,-5.3185,-5.3185,-5.2892,-5.2491,-5.1922,-5.1518,-5.0892,-5.0448,-5.0553,-5.0352,-4.9568,-4.8898,-4.8499,-4.8543,-5.3653,-5.4289,-5.4399,-5.5317,-5.6693,-5.7391,-5.774,-5.7905,-5.7758,-5.7538,-5.7134,-5.7648,-5.7464,-5.6969,-5.6895,-5.6895,-5.6767,-5.6363,-5.5629,-5.4583,-5.4675,-5.4197,-5.3482,-5.3298,-5.335,-5.3295,-5.3295,-5.3445,-5.3222,-5.3185,-5.3185,-5.3185,-5.3185,-5.3185,-5.3185,-5.3185,-5.3185,-5.3185,-5.3185,-5.3185,-5.3185,-5.3185,-5.3185,-5.3185,-5.3185,-5.3185,-5.3185,-5.3185,-5.3185,-5.3185,-5.3185,-5.3185,-5.3185,-5.3185,-5.3185,-5.3185,-5.3185,-5.3185,-5.3277,-5.3369,-5.3794,-5.4142,-5.4546,-5.5042,-5.5005,-5.4454,-5.473,-5.5574,-5.6418,-5.6748,-5.662,-5.651,-5.662,-5.6804,-5.6877,-5.6895,-5.6969,-5.7152,-5.7281,-5.7336,-5.7299,-5.7171,-5.7005,-5.6877,-5.6583,-5.5959,-5.5666,-5.5629,-5.5005,-5.4197,-5.3702,-5.335,-5.3203,-5.3203,-5.3185,-5.3185,-5.3185,-5.3185,-5.3185,-5.3185,-5.3185,-5.3185,-5.3185,-5.2947,-5.2747,-5.2803,-5.2491,-5.1901,-5.1339,-5.1012,-5.0673,-4.9944,-4.9385,-4.9127,-4.8605,-5.3576,-5.3555,-5.4142,-5.4987,-5.5831,-5.6069,-5.6547,-5.7079,-5.7079,-5.7336,-5.7685,-5.7868,-5.7905,-5.7648,-5.7593,-5.7593,-5.7519,-5.7189,-5.651,-5.5702,-5.5317,-5.4638,-5.3665,-5.3904,-5.3775,-5.3573,-5.361,-5.3849,-5.3555,-5.335,-5.3222,-5.3222,-5.3203,-5.3185,-5.3185,-5.3185,-5.3185,-5.3185,-5.3185,-5.3185,-5.3185,-5.3185,-5.3185,-5.3185,-5.3185,-5.3185,-5.3185,-5.3185,-5.3185,-5.3185,-5.3185,-5.3185,-5.3185,-5.3185,-5.3185,-5.3185,-5.3203,-5.3222,-5.3424,-5.3757,-5.4216,-5.4803,-5.5354,-5.6051,-5.6124,-5.5427,-5.55,-5.6492,-5.7097,-5.7336,-5.7446,-5.7373,-5.7354,-5.7501,-5.7648,-5.7648,-5.7648,-5.7795,-5.796,-5.7978,-5.7978,-5.785,-5.7685,-5.7483,-5.7226,-5.6914,-5.6638,-5.6326,-5.5629,-5.4876,-5.4197,-5.3794,-5.3295,-5.3203,-5.3203,-5.3185,-5.3185,-5.3185,-5.3185,-5.3185,-5.3185,-5.3185,-5.3185,-5.3167,-5.3096,-5.3078,-5.3059,-5.2965,-5.2453,-5.1766,-5.1416,-5.0854,-5.0766,-5.0554,-4.9514,-5.3663,-5.3555,-5.4136,-5.4656,-5.5078,-5.5427,-5.5868,-5.6271,-5.6638,-5.706,-5.7519,-5.7795,-5.7978,-5.7978,-5.7978,-5.7978,-5.7978,-5.796,-5.7152,-5.6418,-5.5923,-5.5372,-5.4932,-5.4656,-5.4675,-5.4491,-5.4638,-5.4656,-5.4161,-5.3867,-5.3775,-5.3665,-5.3479,-5.324,-5.3222,-5.3203,-5.3222,-5.3185,-5.3203,-5.3222,-5.3222,-5.3203,-5.3185,-5.3185,-5.3185,-5.3185,-5.3185,-5.3185,-5.3185,-5.3185,-5.3185,-5.3185,-5.3185,-5.3185,-5.3185,-5.3185,-5.3222,-5.3353,-5.372,-5.4179,-5.4785,-5.5519,-5.6014,-5.6675,-5.7281,-5.6712,-5.6693,-5.7519,-5.7574,-5.7758,-5.7758,-5.7721,-5.7703,-5.7813,-5.7831,-5.7831,-5.7831,-5.7905,-5.7978,-5.7978,-5.7978,-5.796,-5.7831,-5.7813,-5.7611,-5.7574,-5.7336,-5.7262,-5.6528,-5.5684,-5.4968,-5.4326,-5.3904,-5.3369,-5.3185,-5.3185,-5.3185,-5.3185,-5.3185,-5.3185,-5.3185,-5.3185,-5.3185,-5.3167,-5.3167,-5.3167,-5.3167,-5.3185,-5.2853,-5.2118,-5.1994,-5.1903,-5.1861,-5.1658,-5.0678,-5.3814,-5.3775,-5.4075,-5.4252,-5.4381,-5.5097,-5.55,-5.5739,-5.6455,-5.6895,-5.7171,-5.7758,-5.7941,-5.7978,-5.7978,-5.7978,-5.7978,-5.7978,-5.7428,-5.6932,-5.6712,-5.5959,-5.5629,-5.5611,-5.5611,-5.5537,-5.5519,-5.5482,-5.5299,-5.4858,-5.4473,-5.4308,-5.3922,-5.3445,-5.3295,-5.3314,-5.3405,-5.3314,-5.3335,-5.3408,-5.3353,-5.3261,-5.3203,-5.3185,-5.3185,-5.3185,-5.3185,-5.3185,-5.3185,-5.3185,-5.3185,-5.3185,-5.3185,-5.3185,-5.3185,-5.3203,-5.346,-5.3794,-5.4216,-5.473,-5.5574,-5.6345,-5.673,-5.7207,-5.7795,-5.7923,-5.7905,-5.7923,-5.796,-5.7978,-5.7978,-5.7978,-5.7978,-5.7978,-5.7978,-5.7978,-5.7978,-5.7978,-5.7978,-5.7978,-5.7978,-5.7978,-5.7978,-5.7978,-5.7978,-5.7978,-5.7978,-5.7978,-5.7666,-5.6748,-5.5923,-5.5244,-5.4675,-5.4142,-5.3387,-5.324,-5.3259,-5.3185,-5.3185,-5.3185,-5.3185,-5.3185,-5.3185,-5.3185,-5.3185,-5.3185,-5.3185,-5.3185,-5.2791,-5.2468,-5.2509,-5.2486,-5.2206,-5.1979,-5.155,-5.3943,-5.3334,-5.3393,-5.3445,-5.357,-5.4308,-5.4987,-5.5666,-5.6436,-5.7152,-5.7593,-5.7813,-5.7978,-5.7978,-5.7978,-5.7978,-5.7978,-5.7978,-5.7501,-5.6914,-5.6987,-5.6363,-5.6088,-5.6418,-5.6528,-5.6418,-5.6124,-5.5724,-5.5978,-5.5629,-5.5042,-5.4564,-5.5133,-5.4509,-5.3442,-5.3628,-5.3959,-5.3812,-5.3959,-5.4161,-5.3959,-5.3739,-5.324,-5.3185,-5.3185,-5.3185,-5.3185,-5.3185,-5.3185,-5.3185,-5.3222,-5.3259,-5.324,-5.3259,-5.3295,-5.335,-5.3647,-5.4161,-5.462,-5.5482,-5.6418,-5.6822,-5.7207,-5.7629,-5.796,-5.796,-5.796,-5.796,-5.7978,-5.7978,-5.7978,-5.7978,-5.7978,-5.7978,-5.7978,-5.7978,-5.7978,-5.7978,-5.7978,-5.7978,-5.7978,-5.7978,-5.7978,-5.7978,-5.7978,-5.7978,-5.7978,-5.7978,-5.7923,-5.7354,-5.6804,-5.6235,-5.5574,-5.4363,-5.3427,-5.3369,-5.3369,-5.3277,-5.3185,-5.3185,-5.3185,-5.3185,-5.3185,-5.3185,-5.3185,-5.3185,-5.3185,-5.3185,-5.3124,-5.2897,-5.2999,-5.2977,-5.2662,-5.2363,-5.2025]},{"header":{"parameterUnit":"m.s-1","parameterCategory":1,"la1":31.0,"la2":29.5877,"lo1":-88.7671,"lo2":-86.6584,"dy":0.0162,"dx":0.0185,"nx":115,"ny":88,"refTime":"2026-05-21T12:00:00:Z","depth":0,"parameterNumber":3,"parameterNumberName":"V-component_of_WINDS"},"data":[0.0,0.0,0.0,0.0,0.0,0.0,0.0,0.0,0.0,0.0,0.0,0.0,0.0,0.0,0.0,0.0,0.0,0.0,0.0,0.0,0.0,0.0,0.0,0.0,0.0,0.0,0.0,0.0,0.0,0.0,0.0,0.0,0.0,0.0,0.0,0.0,0.0,0.0,0.0,0.0,0.0,0.0,0.0,0.0,0.0,0.0,0.0,0.0,0.0,0.0,0.0,0.0,0.0,0.0,0.0,0.0,0.0,0.0,0.0,0.0,0.0,0.0,0.0,0.0,0.0,0.0,0.0,0.0,0.0,0.0,0.0,0.0,0.0,0.0,0.0,0.0,0.0,0.0,0.0,0.0,0.0,0.0,0.0,0.0,0.0,0.0,0.0,0.0,0.0,0.0,0.0,0.0,0.0,0.0,0.0,0.0,0.0,0.0,0.0,0.0,0.0,0.0,0.0,0.0,0.0,0.0,0.0,0.0,0.0,0.0,0.0,0.0,0.0,0.0,0.0,0.0,0.0,0.0,0.0,0.0,0.0,0.0,0.0,0.0,0.0,0.0,0.0,0.0,0.0,0.0,0.0,0.0,0.0,0.0,0.0,0.0,0.0,0.0,0.0,0.0,0.0,0.0,0.0,0.0,0.0,0.0,0.0,0.0,0.0,0.0,0.0,0.0,0.0,0.0,0.0,0.0,0.0,0.0,0.0,0.0,0.0,0.0,0.0,0.0,0.0,0.0,0.0,0.0,0.0,0.0,0.0,0.0,0.0,0.0,0.0,0.0,0.0,0.0,0.0,0.0,0.0,0.0,0.0,0.0,0.0,0.0,0.0,0.0,0.0,0.0,0.0,0.0,0.0,0.0,0.0,0.0,0.0,0.0,0.0,0.0,0.0,0.0,0.0,0.0,0.0,0.0,0.0,0.0,0.0,0.0,0.0,0.0,0.0,0.0,0.0,0.0,0.0,0.0,0.0,0.0,0.0,0.0,0.0,0.0,0.0,0.0,0.0,0.0,0.0,0.0,0.0,0.0,0.0,0.0,0.0,0.0,0.0,0.0,0.0,0.0,0.0,0.0,0.0,0.0,0.0,0.0,0.0,0.0,0.0,0.0,0.0,0.0,0.0,0.0,0.0,0.0,0.0,0.0,0.0,0.0,0.0,0.0,0.0,0.0,0.0,0.0,0.0,0.0,0.0,0.0,0.0,0.0,0.0,0.0,0.0,0.0,0.0,0.0,0.0,0.0,0.0,0.0,0.0,0.0,0.0,0.0,0.0,0.0,0.0,0.0,0.0,0.0,0.0,0.0,0.0,0.0,0.0,0.0,0.0,0.0,0.0,0.0,0.0,0.0,0.0,0.0,0.0,0.0,0.0,0.0,0.0,0.0,0.0,0.0,0.0,0.0,0.0,0.0,0.0,0.0,0.0,0.0,0.0,0.0,0.0,0.0,0.0,0.0,0.0,0.0,0.0,0.0,0.0,0.0,0.0,0.0,0.0,0.0,0.0,0.0,0.0,0.0,0.0,0.0,0.0,0.0,0.0,0.0,0.0,0.0,0.0,0.0,0.0,0.0,0.0,0.0,0.0,0.0,0.0,0.0,0.0,0.0,0.0,0.0,0.0,0.0,0.0,0.0,0.0,0.0,0.0,0.0,0.0,0.0,0.0,0.0,0.0,0.0,0.0,0.0,0.0,0.0,0.0,0.0,0.0,0.0,0.0,0.0,0.0,0.0,0.0,0.0,0.0,0.0,0.0,0.0,0.0,0.0,0.0,0.0,0.0,0.0,0.0,0.0,0.0,0.0,0.0,0.0,0.0,0.0,0.0,0.0,0.0,0.0,0.0,0.0,0.0,0.0,0.0,0.0,0.0,0.0,0.0,0.0,0.0,0.0,0.0,0.0,0.0,0.0,0.0,0.0,0.0,0.0,0.0,0.0,0.0,0.0,0.0,0.0,0.0,0.0,0.0,0.0,0.0,0.0,0.0,0.0,0.0,0.0,0.0,0.0,0.0,0.0,0.0,0.0,0.0,0.0,0.0,0.0,0.0,0.0,0.0,0.0,0.0,0.0,0.0,0.0,0.0,0.0,0.0,0.0,0.0,0.0,0.0,0.0,0.0,0.0,0.0,0.0,0.0,0.0,0.0,0.0,0.0,0.0,0.0,0.0,0.0,0.0,0.0,0.0,0.0,0.0,0.0,0.0,0.0,0.0,0.0,0.0,0.0,0.0,0.0,0.0,0.0,0.0,0.0,0.0,0.0,0.0,0.0,0.0,0.0,0.0,0.0,0.0,0.0,0.0,0.0,0.0,0.0,0.0,0.0,0.0,0.0,0.0,0.0,0.0,0.0,0.0,0.0,0.0,0.0,0.0,0.0,0.0,0.0,0.0,0.0,0.0,0.0,0.0,0.0,0.0,0.0,0.0,0.0,0.0,0.0,0.0,0.0,0.0,0.0,0.0,0.0,0.0,0.0,0.0,0.0,0.0,0.0,0.0,0.0,0.0,0.0,0.0,0.0,0.0,0.0,0.0,0.0,0.0,0.0,0.0,0.0,0.0,0.0,0.0,0.0,0.0,0.0,0.0,0.0,0.0,0.0,0.0,0.0,0.0,0.0,0.0,0.0,0.0,0.0,0.0,0.0,0.0,0.0,0.0,0.0,0.0,0.0,0.0,0.0,0.0,0.0,0.0,0.0,0.0,0.0,0.0,0.0,0.0,0.0,0.0,0.0,0.0,0.0,0.0,0.0,0.0,0.0,0.0,0.0,0.0,0.0,0.0,0.0,0.0,0.0,0.0,0.0,0.0,0.0,0.0,0.0,0.0,0.0,0.0,0.0,0.0,0.0,0.0,0.0,0.0,0.0,0.0,0.0,0.0,0.0,0.0,0.0,0.0,0.0,0.0,0.0,0.0,0.0,0.0,0.0,0.0,0.0,0.0,0.0,0.0,0.0,0.0,0.0,0.0,0.0,0.0,0.0,0.0,0.0,0.0,0.0,0.0,0.0,0.0,0.0,0.0,0.0,0.0,0.0,0.0,0.0,0.0,0.0,0.0,0.0,0.0,0.0,0.0,0.0,0.0,0.0,0.0,0.0,0.0,0.0,0.0,0.0,0.0,0.0,0.0,0.0,0.0,0.0,0.0,0.0,0.0,0.0,0.0,0.0,0.0,0.0,0.0,0.0,0.0,0.0,0.0,0.0,0.0,0.0,0.0,0.0,0.0,0.0,0.0,0.0,0.0,0.0,0.0,0.0,0.0,0.0,0.0,0.0,0.0,0.0,0.0,0.0,0.0,0.0,0.0,0.0,0.0,0.0,0.0,0.0,0.0,0.0,0.0,0.0,0.0,0.0,0.0,0.0,0.0,0.0,0.0,0.0,0.0,0.0,0.0,0.0,0.0,0.0,0.0,0.0,0.0,0.0,0.0,0.0,0.0,0.0,0.0,0.0,0.0,0.0,0.0,0.0,0.0,0.0,0.0,0.0,0.0,0.0,0.0,0.0,0.0,0.0,0.0,0.0,0.0,0.0,0.0,0.0,0.0,0.0,0.0,0.0,0.0,0.0,0.0,0.0,0.0,0.0,0.0,0.0,0.0,0.0,0.0,0.0,0.0,0.0,0.0,0.0,0.0,0.0,0.0,0.0,0.0,0.0,0.0,0.0,0.0,0.0,0.0,0.0,0.0,0.0,0.0,0.0,0.0,0.0,0.0,0.0,0.0,0.0,0.0,0.0,0.0,0.0,0.0,0.0,0.0,0.0,0.0,0.0,0.0,0.0,0.0,0.0,0.0,0.0,0.0,0.0,0.0,0.0,0.0,0.0,0.0,0.0,0.0,0.0,0.0,0.0,0.0,0.0,0.0,0.0,0.0,0.0,0.0,0.0,0.0,0.0,0.0,0.0,0.0,0.0,0.0,0.0,0.0,0.0,0.0,0.0,0.0,0.0,0.0,0.0,0.0,0.0,0.0,0.0,0.0,0.0,0.0,0.0,0.0,0.0,0.0,0.0,0.0,0.0,0.0,0.0,0.0,0.0,0.0,0.0,0.0,0.0,0.0,0.0,0.0,0.0,0.0,0.0,0.0,0.0,0.0,0.0,0.0,0.0,0.0,0.0,0.0,0.0,0.0,0.0,0.0,0.0,0.0,0.0,0.0,0.0,0.0,0.0,0.0,0.0,0.0,0.0,0.0,0.0,0.0,0.0,0.0,0.0,0.0,0.0,0.0,0.0,0.0,0.0,0.0,0.0,0.0,0.0,0.0,0.0,0.0,0.0,0.0,0.0,0.0,0.8326,0.0,0.0,0.0,0.0,0.0,0.0,0.0,0.0,0.0,0.0,0.0,0.0,0.0,0.0,0.0,0.0,0.0,0.0,0.0,0.0,0.0,0.0,0.0,0.0,0.0,0.0,0.0,0.0,0.0,0.0,0.0,0.0,0.0,0.0,0.0,0.0,0.0,0.0,0.0,0.0,0.0,0.0,0.0,0.0,0.0,0.0,0.0,0.0,0.0,0.0,0.0,0.0,0.0,0.0,0.0,0.0,0.0,0.0,0.0,0.0,0.0,0.0,0.0,0.0,0.0,0.0,0.0,0.0,0.0,0.0,0.0,0.0,0.0,0.0,0.0,0.0,0.0,0.0,0.0,0.0,0.0,0.0,0.0,0.0,0.0,0.0,0.0,0.0,0.0,0.0,0.0,0.0,0.0,0.0,0.0,0.0,0.0,0.0,0.0,0.0,0.0,0.0,0.0,0.0,0.0,0.0,0.0,0.0,0.0,0.0,0.9111,0.9318,0.9114,0.8809,0.844,0.0,0.0,0.0,0.0,0.0,0.0,0.0,0.0,0.0,0.0,0.0,0.0,0.0,0.0,0.0,0.0,0.0,0.0,0.0,0.0,0.0,0.0,0.0,0.0,0.0,0.0,0.0,0.0,0.0,0.0,0.0,0.0,0.0,0.0,0.0,0.0,0.0,0.0,0.0,0.0,0.0,0.0,0.0,0.0,0.0,0.0,0.0,0.0,0.0,0.0,0.0,0.0,0.0,0.0,0.0,0.0,0.0,0.0,0.0,0.0,0.0,0.0,0.0,0.0,0.0,0.0,0.0,0.0,0.0,0.0,0.0,0.0,0.0,0.0,0.0,0.0,0.0,0.0,0.0,0.0,0.0,0.0,0.0,0.0,0.0,0.0,0.0,0.0,0.0,0.0,0.0,0.0,0.0,0.0,0.0,0.0,0.0,0.0,0.0,0.0,0.0,0.0,0.0,0.0,0.0,0.0,0.0,0.0,0.0,0.0,0.0,0.0,0.964,0.9238,0.8855,0.0,0.0,0.0,0.0,0.0,0.0,0.0,0.0,0.0,0.0,0.0,0.0,0.0,0.0,0.0,0.0,0.0,0.0,0.0,0.0,0.0,0.0,0.0,0.0,0.0,0.0,0.0,0.0,0.0,0.0,0.0,0.0,0.0,0.0,0.0,0.0,0.0,0.0,0.0,0.0,0.0,0.0,0.0,0.0,0.0,0.0,0.0,0.0,0.0,0.0,0.0,0.0,0.0,0.0,0.0,0.0,0.0,0.0,0.0,0.0,0.0,0.0,0.0,0.0,0.0,0.0,0.0,0.0,0.0,0.0,0.0,0.0,0.0,0.0,0.0,0.0,0.0,0.0,0.0,0.0,0.0,0.0,0.0,0.0,0.0,0.0,0.0,0.0,0.0,0.0,0.0,0.0,0.0,0.0,0.0,0.0,0.0,0.0,0.0,0.0,0.0,0.0,0.0,0.0,0.0,0.0,0.0,0.0,0.0,0.0,0.9766,1.1349,1.0947,0.0,1.0156,0.0,0.0,0.0,0.0,0.0,0.0,0.0,0.0,0.0,0.0,0.0,0.0,0.0,0.0,0.0,0.0,0.0,0.0,0.0,0.0,0.0,0.0,0.0,0.0,0.0,0.0,0.0,0.0,0.0,0.0,0.0,0.0,0.0,0.0,0.0,0.0,0.0,0.0,0.0,0.0,0.0,0.0,0.0,0.0,0.0,0.0,0.0,0.0,0.0,0.0,0.0,0.0,0.0,0.0,0.0,0.0,0.0,0.0,0.0,0.0,0.0,0.0,0.0,0.0,0.0,0.0,0.0,0.0,0.0,0.0,0.0,0.0,0.0,0.0,0.0,0.0,0.0,0.0,0.0,0.0,0.0,0.0,0.0,0.0,0.0,0.0,0.0,0.0,0.0,0.0,0.0,0.0,0.0,0.0,0.0,0.0,0.0,0.0,0.0,0.0,0.0,0.0,0.0,0.0,0.0,0.0,0.0,0.0,0.0,0.0,1.0361,1.1577,1.0919,1.0459,0.0,0.0,0.0,0.0,0.0,0.0,0.0,0.0,0.0,0.0,0.0,0.0,0.0,0.0,0.0,0.0,0.0,0.0,0.0,0.0,0.0,0.0,0.0,0.0,0.0,0.0,0.0,0.0,0.0,0.0,0.0,0.0,0.0,0.0,0.0,0.0,0.0,0.0,0.0,0.0,0.0,0.0,0.0,0.0,0.0,0.0,0.0,0.0,0.0,0.0,0.0,0.0,0.0,0.0,0.0,0.0,0.0,0.0,0.0,0.0,0.0,0.0,0.0,0.0,0.0,0.0,0.0,0.0,0.0,0.0,0.0,0.0,0.0,0.0,0.0,0.0,0.0,0.0,0.0,0.0,0.0,0.0,0.0,0.0,0.0,0.0,0.0,0.0,0.0,0.0,0.0,0.0,0.0,0.0,0.0,0.0,0.0,0.0,0.0,0.0,0.0,0.0,0.0,0.0,0.0,0.0,0.0,0.0,0.0,0.0,1.005,0.0,1.1839,1.1105,1.0547,1.0303,0.0,0.0,0.0,0.0,0.0,0.0,0.0,0.0,0.0,0.0,0.0,0.0,0.0,0.0,0.0,0.0,0.0,0.0,0.0,0.0,0.0,0.0,0.0,0.0,0.0,0.0,0.0,0.0,0.0,0.0,0.0,0.0,0.0,0.0,0.0,0.0,0.0,0.0,0.0,0.0,0.0,0.0,0.0,0.0,0.0,0.0,0.0,0.0,0.0,0.0,0.0,0.0,0.0,0.0,0.0,0.0,0.0,0.0,0.0,0.0,0.0,0.0,0.0,0.0,0.0,0.0,0.0,0.0,0.0,0.0,0.0,0.0,0.0,0.0,0.0,0.0,0.0,0.0,0.0,0.0,0.0,0.0,0.0,0.0,0.0,0.0,0.0,0.0,0.0,0.0,0.0,0.0,0.0,0.0,0.0,0.0,0.0,0.0,0.0,0.0,0.0,0.0,0.0,0.0,0.0,0.0,0.0,0.0,0.0,1.0492,1.1124,1.272,1.1976,1.1134,0.0,0.0,0.0,0.0,0.0,0.0,0.0,0.0,0.0,0.0,0.0,0.0,0.0,0.0,0.0,0.0,0.0,0.0,0.0,0.0,0.0,0.0,0.0,0.0,0.0,0.0,0.0,0.0,0.0,0.0,0.0,0.0,0.0,0.0,0.0,0.0,0.0,0.0,0.0,0.0,0.0,0.0,0.0,0.0,0.0,0.0,0.0,0.0,0.0,0.0,0.0,0.0,0.0,0.0,0.0,0.0,0.0,0.0,0.0,0.0,0.0,0.0,0.0,0.0,0.0,0.0,0.0,0.0,0.0,0.0,0.0,0.0,0.0,0.0,0.0,0.0,0.0,0.0,0.0,0.0,0.0,0.0,0.0,0.0,0.0,0.0,0.0,0.0,0.0,0.0,0.0,0.0,0.0,0.0,0.0,0.0,0.0,0.0,0.0,0.0,0.0,0.0,0.0,0.0,0.0,0.0,0.0,0.0,0.0,0.8735,0.9612,1.0777,1.2263,1.0995,1.0303,0.0,0.0,0.0,0.0,0.0,0.0,0.0,0.0,0.0,0.0,0.0,0.0,0.0,0.0,0.0,0.0,0.0,0.0,0.0,0.0,0.0,0.0,0.0,0.0,0.0,0.0,0.0,0.0,0.0,0.0,0.0,0.0,0.0,0.0,0.0,0.0,0.0,0.0,0.0,0.0,0.0,0.0,0.0,0.0,0.0,0.0,0.0,0.0,0.0,0.0,0.0,0.0,0.0,0.0,0.0,0.0,0.0,0.0,0.0,0.0,0.0,0.0,0.0,0.0,0.0,0.0,0.0,0.0,0.0,0.0,0.0,0.0,0.0,0.0,0.0,0.0,0.0,0.0,0.0,0.0,0.0,0.0,0.0,0.0,0.0,0.0,0.0,0.0,0.0,0.0,0.0,0.0,0.0,0.0,0.0,0.0,0.0,0.0,0.0,0.0,0.0,0.0,0.0,0.0,0.0,0.0,0.0,0.0,0.0,0.8537,0.0,1.1012,0.0,1.0375,0.9596,0.0,0.0,0.0,0.0,0.0,0.0,0.0,0.0,0.0,0.0,0.0,0.0,0.0,0.0,0.0,0.0,0.0,0.0,0.0,0.0,0.0,0.0,0.0,0.0,0.0,0.0,0.0,0.0,0.0,0.0,0.0,0.0,0.0,0.0,0.0,0.0,0.0,0.0,0.0,0.0,0.0,0.0,0.0,0.0,0.0,0.0,0.0,0.0,0.0,0.0,0.0,0.0,0.0,0.0,0.0,0.0,0.0,0.0,0.0,0.0,0.0,0.0,0.0,0.0,0.0,0.0,0.0,0.0,0.0,0.0,0.0,0.0,0.0,0.0,0.0,0.0,0.0,0.0,0.0,0.0,0.0,0.0,0.0,0.0,0.0,0.0,0.0,0.0,0.0,0.0,0.0,0.0,0.0,0.0,0.0,0.0,0.0,0.0,0.0,0.0,0.0,0.0,0.0,0.0,0.0,0.0,0.0,0.0,0.7682,1.0389,1.1411,1.1627,1.1284,1.0221,0.9241,0.0,0.0,0.0,0.0,0.0,0.0,0.0,0.0,0.0,0.0,0.0,0.0,0.0,0.0,0.0,0.0,0.0,0.0,0.0,0.0,0.0,0.0,0.0,0.0,0.0,0.0,0.0,0.0,0.0,0.0,0.0,0.0,0.0,0.0,0.0,0.0,0.0,0.0,0.0,0.0,0.0,0.0,0.0,0.0,0.0,0.0,0.0,0.0,0.0,0.0,0.0,0.0,0.0,0.0,0.0,0.0,0.0,0.0,0.0,0.0,0.0,0.0,0.0,0.0,0.0,0.0,0.0,0.0,0.0,0.0,0.0,0.0,0.0,0.0,0.0,0.0,0.0,0.0,0.0,0.0,0.0,0.0,0.0,0.0,0.0,0.0,0.0,0.0,0.0,0.0,0.0,0.0,0.0,0.0,0.0,0.0,0.0,0.0,0.0,0.0,0.0,0.0,0.0,0.0,0.0,0.0,0.0,0.0,0.0,0.8416,0.8844,0.9515,1.0378,0.9611,0.9159,0.0,0.0,0.0,0.0,0.0,0.0,0.0,0.0,0.0,0.0,0.0,0.0,0.0,0.0,0.0,0.0,0.0,0.0,0.0,0.0,0.0,0.0,0.0,0.0,0.0,0.0,0.0,0.0,0.0,0.0,0.0,0.0,0.0,0.0,0.0,0.0,0.0,0.0,0.0,0.0,0.0,0.0,0.0,0.0,0.0,0.0,0.0,0.0,0.0,0.0,0.0,0.0,0.0,0.0,0.0,0.0,0.0,0.0,0.0,0.0,0.0,0.0,0.0,0.0,0.0,0.0,0.0,0.0,0.0,0.0,0.0,0.0,0.0,0.0,0.0,0.0,0.0,0.0,0.0,0.0,0.0,0.0,0.0,0.0,0.0,0.0,0.0,0.0,0.0,0.0,0.0,0.0,0.0,0.0,0.0,0.0,0.0,0.0,0.0,0.0,0.0,0.0,0.0,0.0,0.0,0.0,0.0,0.0,0.0,0.7591,0.8437,0.9147,0.9775,0.9503,0.9345,0.9322,0.0,0.0,0.0,0.0,0.0,0.0,0.0,0.0,0.0,0.0,0.0,0.0,0.0,0.0,0.0,0.0,0.0,0.0,0.0,0.0,0.0,0.0,0.0,0.0,0.0,0.0,0.0,0.0,0.0,0.0,0.0,0.0,0.0,0.0,0.0,0.0,0.0,0.0,0.0,0.0,0.0,0.0,0.0,0.0,0.0,0.0,0.0,0.0,0.0,0.0,0.0,0.0,0.0,0.0,0.0,0.0,0.0,0.0,0.0,0.0,0.0,0.0,0.0,0.0,0.0,0.0,0.0,0.0,0.0,0.0,0.0,0.0,0.0,0.0,0.0,0.0,0.0,0.0,0.0,0.0,0.0,0.0,0.0,0.0,0.0,0.0,0.0,0.0,0.0,0.0,0.0,0.0,0.0,0.0,0.0,0.0,0.0,0.0,0.0,0.0,0.0,0.0,0.0,0.0,0.0,0.0,0.0,0.0,0.7605,0.9719,1.0337,0.9445,0.9916,0.9813,0.0,0.0,0.0,0.0,0.0,0.0,0.0,0.0,0.0,0.0,0.0,0.0,0.0,0.0,0.0,0.0,0.0,0.0,0.0,0.0,0.0,0.0,0.0,0.0,0.0,0.0,0.0,0.0,0.0,0.0,0.0,0.0,0.0,0.0,0.0,0.0,0.0,0.0,0.0,0.0,0.0,0.0,0.0,0.0,0.0,0.0,0.0,0.0,0.0,0.0,0.0,0.0,0.0,0.0,0.0,0.0,0.0,0.0,0.0,0.0,0.0,0.0,0.0,0.0,0.0,0.0,0.0,0.0,0.0,0.0,0.0,0.0,0.0,0.0,0.0,0.0,0.0,0.0,0.0,0.0,0.0,0.0,0.0,0.0,0.0,0.0,0.0,0.0,0.0,0.0,0.0,0.0,0.0,0.0,0.0,0.0,0.0,0.0,0.0,0.0,0.0,0.0,0.0,0.0,0.0,0.0,0.0,0.0,0.0,0.6915,0.9545,1.0808,1.0453,1.1058,1.1047,0.0,0.0,0.0,0.0,0.0,0.0,0.0,0.0,0.0,0.0,0.0,0.0,0.0,0.0,0.0,0.0,0.0,0.0,0.0,0.0,0.0,0.0,0.0,0.0,0.0,0.0,0.0,0.0,0.0,0.0,0.0,0.0,0.0,0.0,0.0,0.0,0.0,0.0,0.0,0.0,0.0,0.0,0.0,0.0,0.0,0.0,0.0,0.0,0.0,0.0,0.0,0.0,0.0,0.0,0.0,0.0,0.0,0.0,0.0,0.0,0.0,0.0,0.0,0.0,0.0,0.0,0.0,0.0,0.0,0.0,0.0,0.0,0.0,0.0,0.0,0.0,0.0,0.0,0.0,0.0,0.0,0.0,0.0,0.0,0.0,0.0,0.0,0.0,0.0,0.0,0.0,0.0,0.0,0.0,0.0,0.0,0.0,0.0,0.0,0.0,0.0,0.0,0.0,0.0,0.0,0.0,0.0,0.0,0.6384,0.6919,0.9721,1.1058,1.0789,1.2442,1.2553,0.0,0.0,0.0,0.0,0.0,0.0,0.0,0.0,0.0,0.0,0.0,0.0,0.0,0.0,0.0,0.0,0.0,0.0,0.0,0.0,0.0,0.0,0.0,0.0,0.0,0.0,0.0,0.0,0.0,0.0,0.0,0.0,0.0,0.0,0.0,0.0,0.0,0.0,0.0,0.0,0.0,0.0,0.0,0.0,0.0,0.0,0.0,0.0,0.0,0.0,0.0,0.0,0.0,0.0,0.0,0.0,0.0,0.0,0.0,0.0,0.0,0.0,0.0,0.0,0.0,0.0,0.0,0.0,0.0,0.0,0.0,0.0,0.0,0.0,0.0,0.0,0.0,0.0,0.0,0.0,0.0,0.0,0.0,0.0,0.0,0.0,0.0,0.0,0.0,0.0,0.0,0.0,0.0,0.0,0.0,0.0,0.0,0.0,0.0,0.0,0.0,0.0,0.0,0.0,0.0,0.0,0.0,0.0,0.6403,0.7439,0.9881,1.1091,1.0986,1.3588,1.3894,0.0,0.0,0.0,0.0,0.0,0.0,0.0,0.0,0.0,0.0,0.0,0.0,0.0,0.0,0.0,0.0,0.0,0.0,0.0,0.0,0.0,0.0,0.0,0.0,0.0,0.0,0.0,0.0,0.0,0.0,0.0,0.0,0.0,0.0,0.0,0.0,0.0,0.0,0.0,0.0,0.0,0.0,0.0,0.0,0.0,0.0,0.0,0.0,0.0,0.0,0.0,0.0,0.0,0.0,0.0,0.0,0.0,0.0,0.0,0.0,0.0,0.0,0.0,0.0,0.0,0.0,0.0,0.0,0.0,0.0,0.0,0.0,0.0,0.0,0.0,0.0,0.0,0.0,0.0,0.0,0.0,0.0,0.0,0.0,0.0,0.0,0.0,0.0,0.0,0.0,0.0,0.0,0.0,0.0,0.0,0.0,0.0,0.0,0.0,0.0,0.0,0.0,0.0,0.0,0.0,0.0,0.0,0.0,0.7024,0.7746,0.9482,1.0797,1.1505,1.3166,1.3472,0.0,0.0,0.0,0.0,0.0,0.0,0.0,0.0,0.0,0.0,0.0,0.0,0.0,0.0,0.0,0.0,0.0,0.0,0.0,0.0,0.0,0.0,0.0,0.0,0.0,0.0,0.0,0.0,0.0,0.0,0.0,0.0,0.0,0.0,0.0,0.0,0.0,0.0,0.0,0.0,0.0,0.0,0.0,0.0,0.0,0.0,0.0,0.0,0.7778,0.0,0.0,0.0,0.0,0.0,0.0,0.0,0.0,0.0,0.0,0.0,0.0,0.0,0.0,0.0,0.0,0.0,0.0,0.0,0.0,0.0,0.0,0.0,0.0,0.0,0.0,0.0,0.0,0.0,0.0,0.0,0.0,0.0,0.0,0.0,0.0,0.0,0.0,0.0,0.0,0.0,0.0,0.0,0.0,0.0,0.0,0.0,0.0,0.0,0.0,0.0,0.0,0.0,0.0,0.0,0.0,0.0,0.0,0.0,0.724,0.805,0.9465,1.0715,1.1757,1.2577,1.2955,0.0,0.0,0.0,0.0,0.0,0.0,0.0,0.0,0.0,0.0,0.0,0.0,0.0,0.0,0.0,0.0,0.0,0.0,0.0,0.0,0.0,0.0,0.0,0.0,0.0,0.0,0.0,0.0,0.0,0.0,0.0,0.0,0.0,0.0,0.0,0.0,0.0,0.0,0.0,0.0,0.0,0.0,0.0,0.0,0.0,0.0,0.0,0.0,0.0,0.0,0.0,0.0,0.0,0.0,0.0,0.0,0.0,0.0,0.0,0.0,0.0,0.0,0.0,0.0,0.0,0.0,0.0,0.0,0.0,0.0,0.0,0.0,0.0,0.0,0.0,0.0,0.0,0.0,0.0,0.0,0.0,0.0,0.0,0.0,0.0,0.0,0.0,0.0,0.0,0.0,0.0,0.0,0.0,0.0,0.0,0.0,0.0,0.0,0.0,0.0,0.0,0.0,0.0,0.0,0.0,0.0,0.0,0.6552,0.7394,0.8306,0.9407,1.0509,1.1652,1.1791,1.224,1.2975,0.0,0.0,0.0,0.0,0.0,0.0,0.0,0.0,0.0,0.0,0.0,0.0,0.0,0.0,0.0,0.0,0.0,0.0,0.0,0.0,0.0,0.0,0.0,0.0,0.0,0.0,0.0,0.0,0.0,0.0,0.0,0.0,0.0,0.0,0.0,0.0,0.0,0.0,0.533,0.5739,0.0,0.0,0.0,0.0,0.0,0.0,0.0,0.0,0.7223,0.0,0.0,0.0,0.0,0.0,0.0,0.0,0.0,0.0,0.0,0.0,0.0,0.0,0.0,0.0,0.0,0.0,0.0,0.0,0.0,0.0,0.0,0.0,0.0,0.0,0.0,0.0,0.0,0.0,0.0,0.0,0.0,0.0,0.0,0.0,0.0,0.0,0.0,0.0,0.0,0.0,0.0,0.0,0.0,0.0,0.0,0.0,0.0,0.0,0.0,0.0,0.0,0.0,0.0,0.0,0.0,0.6495,0.6866,0.7496,0.8418,0.865,0.9372,1.0574,1.0763,1.1129,1.1657,0.0,0.0,0.0,0.0,0.0,0.0,0.0,0.0,0.0,0.0,0.0,0.0,0.0,0.0,0.0,0.0,0.0,0.0,0.0,0.0,0.0,0.0,0.0,0.0,0.0,0.0,0.0,0.0,0.0,0.0,0.0,0.0,0.0,0.0,0.0,0.0,0.0,0.0,0.0,0.6848,0.725,0.0,0.0,0.0,0.0,0.0,0.0,0.0,0.0,0.7255,0.0,0.0,0.0,0.0,0.0,0.0,0.0,0.0,0.0,0.0,0.0,0.0,0.0,0.0,0.0,0.0,0.0,0.0,0.0,0.0,0.0,0.0,0.0,0.0,0.0,0.0,0.0,0.0,0.0,0.0,0.0,0.0,0.0,0.0,0.0,0.0,0.0,0.0,0.0,0.0,0.0,0.0,0.0,0.0,0.0,0.0,0.0,0.0,0.0,0.0,0.0,0.0,0.0,0.0,0.0,0.6315,0.7102,0.7811,0.8452,0.8535,0.91,1.0362,1.0095,1.0417,0.0,0.0,0.0,0.0,0.0,0.0,0.0,0.0,0.0,0.0,0.0,0.0,0.0,0.0,0.0,0.0,0.0,0.0,0.0,0.0,0.0,0.0,0.0,0.0,0.0,0.0,0.0,0.0,0.0,0.0,0.0,0.0,0.0,0.0,0.0,0.0,0.0,0.0,0.0,0.0,0.7216,0.7565,0.7742,0.0,0.0,0.0,0.0,0.0,0.0,0.6907,0.7038,0.0,0.0,0.0,0.0,0.0,0.0,0.0,0.0,0.0,0.0,0.0,0.0,0.0,0.0,0.0,0.0,0.0,0.0,0.0,0.0,0.0,0.0,0.0,0.0,0.0,0.0,0.0,0.0,0.0,0.0,0.0,0.0,0.0,0.0,0.0,0.0,0.0,0.0,0.0,0.0,0.0,0.0,0.0,0.0,0.0,0.0,0.0,0.0,0.0,0.0,0.0,0.0,0.0,0.0,0.0,0.6071,0.7163,0.797,0.8504,0.8535,0.8999,0.9956,0.9705,0.9943,0.0,0.0,0.0,0.0,0.0,0.0,0.0,0.0,0.0,0.0,0.0,0.0,0.0,0.0,0.0,0.0,0.0,0.0,0.0,0.0,0.0,0.0,0.0,0.0,0.0,0.0,0.0,0.0,0.0,0.0,0.0,0.0,0.0,0.0,0.0,0.0,0.0,0.0,0.0,0.0,0.0,0.7966,0.7985,0.7832,0.0,0.0,0.0,0.0,0.7313,0.7307,0.0,0.0,0.0,0.0,0.0,0.0,0.0,0.0,0.0,0.0,0.0,0.0,0.0,0.0,0.0,0.0,0.0,0.0,0.0,0.0,0.0,0.0,0.0,0.0,0.0,0.0,0.0,0.0,0.0,0.0,0.0,0.0,0.0,0.0,0.0,0.0,0.0,0.0,0.0,0.0,0.0,0.0,0.0,0.0,0.0,0.0,0.0,0.0,0.0,0.0,0.0,0.0,0.0,0.0,0.0,0.0,0.6245,0.7061,0.7815,0.849,0.8535,0.8587,0.8731,0.9857,0.9916,0.0,0.0,0.0,0.0,0.0,0.0,0.0,0.0,0.0,0.0,0.0,0.0,0.0,0.0,0.0,0.0,0.0,0.0,0.0,0.0,0.0,0.0,0.0,0.0,0.0,0.0,0.0,0.0,0.0,0.0,0.0,0.0,0.0,0.0,0.0,0.0,0.0,0.0,0.0,0.0,0.0,0.9186,0.8424,0.8315,0.7946,0.0,0.0,0.0,0.8517,0.8689,0.0,0.0,0.0,0.0,0.0,0.0,0.0,0.0,0.0,0.0,0.0,0.0,0.0,0.0,0.0,0.0,0.0,0.0,0.0,0.0,0.0,0.0,0.0,0.0,0.0,0.0,0.0,0.0,0.0,0.0,0.0,0.0,0.0,0.0,0.0,0.0,0.0,0.0,0.0,0.0,0.0,0.0,0.0,0.0,0.0,0.0,0.0,0.0,0.0,0.0,0.0,0.0,0.0,0.0,0.0,0.5165,0.6289,0.7244,0.7946,0.8398,0.849,0.8445,0.8412,0.9329,0.9327,0.0,0.0,0.0,0.0,0.0,0.0,0.0,0.0,0.0,0.0,0.0,0.0,0.0,0.0,0.0,0.0,0.0,0.0,0.0,0.0,0.0,0.0,0.0,0.0,0.0,0.0,0.0,0.0,0.0,0.0,0.0,0.0,0.0,0.0,0.0,0.0,0.0,0.0,0.0,0.0,0.0,0.0,0.8127,0.8651,0.0,0.0,0.0,0.8858,0.9392,0.0,0.0,0.0,0.0,0.0,0.0,0.0,0.0,0.0,0.0,0.0,0.0,0.0,0.0,0.0,0.0,0.0,0.0,0.0,0.0,0.0,0.0,0.0,0.0,0.0,0.0,0.0,0.0,0.0,0.0,0.0,0.0,0.0,0.0,0.0,0.0,0.0,0.0,0.0,0.0,0.0,0.0,0.0,0.0,0.0,0.0,0.0,0.0,0.0,0.0,0.0,0.0,0.0,0.0,0.0,0.0,0.0,0.6296,0.7434,0.8133,0.8319,0.8428,0.8431,0.8364,0.8857,0.0,0.0,0.0,0.0,0.0,0.0,0.0,0.0,0.0,0.0,0.0,0.0,0.0,0.0,0.0,0.0,0.0,0.0,0.0,0.0,0.0,0.0,0.0,0.0,0.0,0.0,0.0,0.4117,0.0,0.0,0.0,0.0,0.0,0.0,0.0,0.0,0.0,0.0,0.0,0.0,0.0,0.0,0.9243,0.8416,0.9242,1.009,0.0,0.0,0.9777,1.011,0.9722,0.9266,0.0,0.0,0.0,0.0,0.0,0.0,0.0,0.0,0.0,0.0,0.0,0.0,0.0,0.0,0.0,0.0,0.0,0.0,0.0,0.0,0.0,0.0,0.0,0.0,0.0,0.0,0.0,0.0,0.0,0.0,0.0,0.0,0.0,0.0,0.0,0.0,0.0,0.0,0.0,0.0,0.0,0.0,0.0,0.0,0.0,0.0,0.0,0.0,0.0,0.0,0.0,0.0,0.0,0.0,0.0,0.6303,0.7434,0.8177,0.8452,0.8476,0.8479,0.8452,0.8648,0.8255,0.0,0.0,0.0,0.0,0.0,0.0,0.0,0.0,0.0,0.0,0.0,0.0,0.0,0.0,0.0,0.0,0.0,0.0,0.0,0.0,0.0,0.0,0.0,0.0,0.0,0.0,0.0,0.0,0.0,0.0,0.0,0.0,0.0,0.0,0.0,0.0,0.0,0.0,0.0,0.0,0.0,1.0367,1.0009,1.0283,1.0553,0.0,0.0,1.0863,1.06,1.0734,1.0476,0.9354,0.0,0.0,0.0,0.0,0.0,0.0,0.0,0.0,0.0,0.0,0.0,0.0,0.0,0.0,0.0,0.0,0.0,0.0,0.0,0.0,0.0,0.0,0.0,0.0,0.0,0.0,0.0,0.0,0.0,0.0,0.0,0.0,0.0,0.0,0.0,0.0,0.0,0.0,0.0,0.0,0.0,0.0,0.0,0.0,0.0,0.0,0.0,0.0,0.0,0.0,0.0,0.0,0.0,0.5447,0.63,0.7434,0.814,0.8395,0.8438,0.8442,0.8353,0.8683,0.828,0.0,0.0,0.0,0.0,0.0,0.0,0.0,0.0,0.0,0.0,0.0,0.0,0.0,0.0,0.0,0.0,0.0,0.0,0.0,0.0,0.0,0.0,0.0,0.0,0.0,0.0,0.0,0.0,0.5088,0.5241,0.5348,0.0,0.0,0.0,0.0,0.0,0.0,0.0,0.0,0.0,0.0,1.0464,1.0104,1.0656,0.0,0.0,1.145,1.1329,1.1397,1.1035,1.0585,1.0069,0.9231,0.0,0.0,0.0,0.0,0.0,0.0,0.0,0.0,0.0,0.0,0.0,0.0,0.0,0.0,0.0,0.0,0.0,0.0,0.0,0.0,0.0,0.0,0.0,0.0,0.0,0.0,0.0,0.0,0.0,0.0,0.0,0.0,0.0,0.0,0.0,0.0,0.0,0.0,0.0,0.0,0.0,0.0,0.0,0.0,0.0,0.0,0.0,0.0,0.0,0.0,0.0,0.0,0.5569,0.6361,0.7502,0.818,0.8381,0.8428,0.8435,0.8371,0.8412,0.7982,0.0,0.0,0.0,0.0,0.0,0.0,0.0,0.0,0.0,0.0,0.0,0.0,0.0,0.0,0.0,0.0,0.0,0.0,0.0,0.0,0.0,0.0,0.0,0.0,0.0,0.0,0.0,0.0,0.5536,0.5661,0.5591,0.0,0.0,0.0,0.0,0.0,0.0,0.0,0.0,0.0,0.0,1.0777,1.0597,1.1176,1.1795,1.2245,1.185,1.1529,1.1717,1.1216,1.0681,1.0312,0.0,0.0,0.0,0.0,0.0,0.0,0.0,0.0,0.0,0.0,0.0,0.0,0.0,0.0,0.0,0.0,0.0,0.0,0.0,0.0,0.0,0.0,0.0,0.0,0.0,0.0,0.0,0.0,0.0,0.0,0.9487,0.0,0.0,0.0,0.0,0.0,0.0,0.0,0.0,0.0,0.0,0.0,0.0,0.0,0.0,0.0,0.0,0.0,0.0,0.0,0.0,0.0,0.0,0.0,0.6468,0.7688,0.8378,0.8465,0.8479,0.8476,0.8455,0.7811,0.7132,0.6551,0.0,0.0,0.0,0.0,0.0,0.0,0.0,0.0,0.0,0.0,0.0,0.0,0.0,0.0,0.0,0.0,0.0,0.0,0.0,0.0,0.0,0.0,0.0,0.0,0.0,0.0,0.5344,0.5549,0.5618,0.0,0.0,0.0,0.0,0.0,0.0,0.0,0.0,0.0,0.0,1.0816,1.1516,1.1795,1.2111,1.2285,1.2305,1.1977,1.1622,1.1462,1.1382,1.0982,0.0,0.0,0.0,0.0,0.0,0.0,0.0,0.0,0.0,0.0,0.0,0.0,0.0,0.0,0.0,0.0,0.0,0.0,0.0,0.0,0.0,0.0,0.0,0.0,0.0,0.0,0.0,0.6886,0.7573,0.0,0.0,0.0,0.0,0.0,0.0,0.0,0.0,0.0,0.0,0.0,1.2331,1.2757,0.0,0.0,0.0,0.0,0.0,0.0,0.0,0.0,0.0,0.0,0.0,0.0,0.5962,0.6535,0.756,0.8191,0.8336,0.8343,0.8391,0.8336,0.7902,0.7417,0.6926,0.0,0.0,0.0,0.0,0.0,0.0,0.0,0.0,0.0,0.0,0.0,0.0,0.0,0.0,0.0,0.0,0.0,0.0,0.0,0.0,0.0,0.0,0.0,0.0,0.0,0.6071,0.0,0.0,0.0,0.0,0.0,0.0,0.0,0.0,0.0,0.0,0.0,0.9927,1.0608,1.1289,1.1933,1.2422,1.2569,1.2636,0.0,0.0,0.0,0.0,0.0,0.0,0.0,0.0,0.0,0.0,0.0,0.0,0.0,0.0,0.989,0.8212,0.7739,0.7579,0.7479,0.0,0.0,0.0,0.0,0.0,0.0,0.0,0.0,0.0,0.0,0.0,0.0,0.0,0.0,0.0,0.0,0.8995,0.0,0.0,0.0,0.0,0.0,0.0,0.0,0.0,1.2989,1.3928,1.4093,1.4509,1.4389,0.0,1.3233,1.1957,0.0,0.0,0.0,0.0,0.0,0.0,0.0,0.0,0.6203,0.6719,0.7638,0.8167,0.8265,0.8323,0.8323,0.8313,0.7872,0.7417,0.6894,0.6462,0.6432,0.0,0.0,0.0,0.0,0.0,0.0,0.0,0.0,0.0,0.0,0.0,0.0,0.0,0.0,0.0,0.0,0.0,0.0,0.0,0.0,0.0,0.0,0.0,0.6408,0.0,0.0,0.0,0.0,0.0,0.0,0.0,0.0,0.0,0.9566,1.0261,1.0942,1.1564,1.1973,1.2388,1.2878,0.0,0.0,0.0,0.0,0.0,0.0,0.0,1.163,1.1682,1.1436,1.1156,1.1069,1.0707,1.0474,1.0707,0.0,0.0,0.9417,0.8978,0.8844,0.8844,0.8918,0.8925,0.8705,0.8925,0.9065,0.0,0.0,0.0,0.0,0.0,0.0,0.0,0.0,0.7506,0.8521,0.0,1.0381,0.0,0.0,0.0,0.0,0.0,0.0,0.0,0.0,1.4642,1.5852,1.5852,1.5858,1.5571,1.5129,1.5524,1.4883,1.3101,0.9515,0.0,0.0,0.0,0.0,0.0,0.0,0.6566,0.7095,0.7875,0.831,0.8258,0.8313,0.831,0.8238,0.774,0.7153,0.6562,0.6885,0.7019,0.6899,0.6834,0.0,0.0,0.0,0.0,0.0,0.0,0.0,0.0,0.0,0.0,0.0,0.0,0.0,0.0,0.0,0.0,0.0,0.0,0.0,0.0,0.6255,0.0,0.0,0.0,0.0,0.0,0.0,0.0,0.0,0.0,0.0,1.1042,1.1577,1.2141,1.2728,0.0,0.0,0.0,0.0,1.2924,1.318,1.2973,1.2817,1.2797,1.2777,1.267,1.2371,0.0,0.0,1.2087,1.2138,1.2024,1.1216,1.1329,1.1429,1.1389,1.0889,1.0573,1.0559,1.0307,1.0167,1.0167,1.0307,1.0445,0.8238,0.0,0.0,0.0,0.0,0.7551,0.7745,0.7997,0.9176,1.0048,1.0701,1.1636,0.0,0.0,0.0,0.0,0.0,0.0,1.2433,1.3003,1.5114,1.6366,1.6817,1.6774,1.673,1.6563,1.6052,1.5464,1.4699,1.249,1.0529,0.8842,0.0,0.0,0.0,0.0,0.6926,0.7312,0.7834,0.8106,0.8102,0.8106,0.8052,0.7946,0.7678,0.7353,0.6959,0.6867,0.6778,0.6762,0.6924,0.0,0.0,0.0,0.0,0.0,0.0,0.0,0.0,0.0,0.0,0.0,0.0,0.0,0.0,0.0,0.0,0.0,0.0,0.0,0.6587,0.6772,0.7143,0.0,0.0,0.0,0.0,0.0,0.0,0.0,0.0,0.0,1.2214,1.2442,1.2596,0.0,0.0,1.3106,1.32,1.3307,1.342,1.3467,0.0,0.0,0.0,1.2931,1.2837,1.2926,1.3093,1.312,1.2866,1.2899,1.2799,1.2355,1.2348,1.2342,1.2064,1.1577,1.1202,1.1169,1.1102,1.1016,1.1022,1.1122,1.1142,0.8882,0.8225,0.7834,0.7814,0.8041,0.8106,0.8367,0.8848,0.9602,1.0741,1.2072,1.2512,1.3172,1.3941,1.3414,0.0,0.0,0.0,1.3656,1.4076,1.5853,1.6918,1.736,1.7373,1.7306,1.7186,1.6607,1.6146,1.5738,1.4655,1.3021,1.0837,0.0,0.0,0.7194,0.7133,0.7248,0.7546,0.7872,0.7988,0.7988,0.7931,0.7879,0.7729,0.7587,0.739,0.7102,0.6858,0.6827,0.7123,0.7207,0.7156,0.0,0.0,0.0,0.0,0.0,0.0,0.0,0.0,0.0,0.0,0.0,0.5749,0.5384,0.0,0.0,0.0,0.6707,0.7122,0.7652,0.7936,0.0,0.0,0.0,0.0,0.0,0.0,0.0,1.1243,1.1777,1.2245,1.2898,1.3273,1.3454,1.3333,1.334,1.3427,1.354,0.0,1.3646,1.376,1.3821,1.3754,1.3587,1.3407,1.338,1.3527,1.3554,1.3554,1.3554,1.3467,1.3313,1.3146,1.3045,1.2871,1.2532,1.2178,1.1904,1.1797,1.1777,1.177,1.177,1.1777,1.1777,0.9781,0.9602,0.8899,0.8665,0.8777,0.8871,0.9066,0.9245,0.9355,1.098,1.3512,1.3184,1.4129,1.5878,1.4878,0.0,0.0,1.4987,1.5425,1.5285,1.6607,1.738,1.7635,1.7582,1.7442,1.7239,1.7213,1.6924,1.6395,1.6039,1.4953,1.3141,1.0511,0.8966,0.8476,0.7768,0.7546,0.7828,0.7917,0.7988,0.7988,0.7889,0.7743,0.7604,0.7438,0.7278,0.7078,0.6851,0.7037,0.7763,0.7659,0.7635,0.7778,0.0,0.0,0.0,0.0,0.0,0.0,0.0,0.0,0.0,0.0,0.0,0.0,0.0,0.0,0.0,0.8147,0.0,0.8858,0.9365,0.0,0.0,0.0,1.0043,1.0693,1.0399,1.0626,1.1866,0.0,0.0,0.0,0.0,1.4462,1.4188,1.3921,1.3786,1.4021,1.3861,1.3801,1.4041,1.4082,1.4082,1.4028,1.4021,1.4008,1.4028,1.4088,1.4048,1.4035,1.3813,1.3646,1.3567,1.3373,1.3146,1.2871,1.2797,1.273,1.2378,1.2298,1.2285,1.2265,1.2251,1.2251,1.0151,1.0093,0.9741,0.95,0.9235,0.9384,0.9469,0.9617,1.0712,1.2204,1.4006,1.469,1.5796,1.7058,1.4757,1.4195,1.4919,1.4331,1.4537,1.5441,1.6832,1.7515,1.7582,1.7589,1.7549,1.7521,1.7306,1.7132,1.6985,1.664,1.5227,1.2787,1.1935,1.074,0.9131,0.8178,0.7801,0.7934,0.7971,0.7988,0.7985,0.7889,0.7743,0.76,0.7336,0.7126,0.694,0.68,0.7074,0.789,0.8189,0.8446,0.866,0.8306,0.0,0.0,0.0,0.0,0.0,0.0,0.0,0.0,0.0,0.7618,0.6315,0.0,0.8663,0.0,0.9052,0.9434,0.9472,0.9606,0.0,0.0,1.0787,1.0888,1.2114,1.1677,1.1717,1.2772,1.3434,1.3908,1.4175,1.4589,1.4874,1.4807,1.474,1.4436,1.3874,1.4053,1.4249,1.4128,1.4102,1.4088,1.4088,1.4088,1.4088,1.4088,1.4088,1.4088,1.4088,1.4028,1.3908,1.3653,1.3553,1.3387,1.3153,1.31,1.2986,1.2744,1.2502,1.2305,1.2305,1.2305,1.2305,1.0375,1.0361,1.0215,0.9968,0.968,0.9696,0.9703,0.9763,1.0588,1.1718,1.3189,1.5024,1.6685,1.7888,1.6429,1.6142,1.6713,1.5859,1.5903,1.658,1.7265,1.7589,1.7589,1.7589,1.7589,1.7628,1.7422,1.7326,1.7199,1.7038,1.5751,1.3518,1.2831,1.1534,0.9724,0.8486,0.7953,0.7988,0.7988,0.7988,0.7982,0.7828,0.7645,0.7499,0.7268,0.6997,0.6792,0.6746,0.7041,0.7778,0.8268,0.8728,0.9177,0.9044,0.8764,0.0,0.0,0.0,0.0,0.0,0.0,0.0,0.0,0.0,0.0,0.0,0.9568,0.0,1.012,0.0,1.0822,1.1002,1.1464,1.2365,1.2031,1.2201,1.3266,1.2772,1.2792,1.3868,1.4318,1.4536,1.4703,1.5015,1.5149,1.5035,1.5184,1.5084,1.4422,1.4522,1.4656,1.4502,1.4362,1.4222,1.4115,1.4088,1.4088,1.4088,1.4088,1.4088,1.4088,1.4088,1.4028,1.3874,1.3841,1.3748,1.3467,1.3367,1.3307,1.3013,1.2744,1.2516,1.2331,1.2305,1.2305,1.0521,1.0507,1.0368,1.0229,1.0031,0.9924,0.9839,0.9819,0.9819,1.0699,1.2316,1.502,1.7098,1.8597,1.8374,1.841,1.8531,1.8051,1.7919,1.8029,1.7782,1.7642,1.7642,1.7595,1.7589,1.7589,1.7589,1.7507,1.7259,1.7259,1.6285,1.4453,1.3224,1.1774,1.003,0.8697,0.8012,0.7988,0.7988,0.7988,0.7985,0.777,0.7553,0.74,0.7217,0.694,0.6715,0.6847,0.7178,0.7787,0.8367,0.9053,0.9771,0.9829,0.978,0.0,0.9218,0.0,0.0,0.0,0.0,0.0,0.0,0.0,0.0,1.0114,1.0285,1.072,1.1289,1.1815,1.2311,1.2663,1.2985,1.328,1.3327,1.3547,1.4062,1.3748,1.3861,1.4928,1.5089,1.5109,1.5082,1.5277,1.5344,1.519,1.5491,1.5585,1.5223,1.5037,1.5042,1.5022,1.471,1.4409,1.4215,1.4122,1.4088,1.4088,1.4088,1.4088,1.4088,1.4088,1.4082,1.4075,1.4062,1.3988,1.37,1.366,1.356,1.3327,1.3053,1.2817,1.2465,1.2331,1.2305,1.0677,1.0663,1.0514,1.0436,1.0385,1.012,0.9872,0.9819,0.9819,1.1418,1.4178,1.6015,1.771,1.9077,1.7832,1.7829,1.8731,1.739,1.736,1.8397,1.8096,1.7956,1.7896,1.7702,1.7589,1.7589,1.7589,1.7555,1.7554,1.7554,1.6181,1.356,1.3114,1.1586,0.9083,0.0,0.0,0.0,0.7988,0.7988,0.7985,0.7865,0.7702,0.7553,0.7177,0.0,0.675,0.751,0.8243,0.897,0.9873,0.0,0.0,0.0,0.0,0.0,0.0,0.0,0.0,0.0,0.0,0.0,1.127,1.1035,1.0586,1.1579,1.2053,1.1725,1.2378,1.2812,1.2717,1.2978,1.3333,1.3848,1.3921,1.4095,1.4509,1.4723,1.4918,1.5105,1.5471,1.5571,1.5371,1.5571,1.5718,1.5651,1.5704,1.5738,1.5671,1.5451,1.5237,1.5048,1.4736,1.4516,1.4449,1.4242,1.4088,1.4088,1.4088,1.4088,1.4088,1.4088,1.4088,1.4088,1.4088,1.4082,1.4008,1.4001,1.3895,1.358,1.346,1.3313,1.2811,1.2509,1.2305,1.0721,0.0,1.0636,1.0561,0.0,1.0256,1.0076,0.9866,0.9852,1.1615,1.4663,1.6315,1.7864,1.9366,1.8525,1.8506,1.9074,1.8167,1.8026,1.8684,1.8195,1.7989,1.7982,1.7729,1.7589,1.7589,1.7589,1.7589,1.7582,1.6876,1.5417,1.3318,1.2456,1.0915,0.8753,0.8418,0.8194,0.7988,0.7988,0.7988,0.7982,0.7843,0.7706,0.7492,0.0,0.0,0.0,0.0,0.0,0.0,0.0,0.0,0.0,0.0,0.0,1.1643,1.151,1.1356,1.1256,1.1651,1.1991,1.2315,1.2579,1.2432,1.1732,1.2502,1.2913,1.2779,1.33,1.3641,1.3682,1.3936,1.4202,1.4519,1.4566,1.4643,1.4917,1.5078,1.5271,1.5465,1.5658,1.5765,1.5625,1.5678,1.5818,1.5825,1.5825,1.5825,1.5771,1.5712,1.5504,1.5263,1.493,1.4683,1.4529,1.4282,1.4088,1.4088,1.4088,1.4088,1.4088,1.4088,1.4088,1.4088,1.4088,1.4088,1.4088,1.4088,1.4077,1.3888,1.37,1.3533,1.322,1.2832,1.2472,1.0721,1.0721,1.0721,1.0646,1.0521,1.0351,1.0178,0.9998,0.0,0.0,0.0,1.6315,1.7864,1.9366,1.9424,1.9424,1.941,1.9112,1.8998,1.8978,1.845,1.8122,1.8055,1.7809,1.7635,1.7589,1.7589,1.7589,1.7582,1.6333,1.4931,1.3318,1.2082,1.0586,0.881,0.8442,0.8235,0.8039,0.8002,0.8137,0.8333,0.8014,0.7961,0.8134,0.7654,0.7444,0.7548,0.8505,0.9206,0.9658,1.0895,1.1876,1.2417,1.2737,1.2939,1.318,1.3206,1.312,1.2965,1.3146,1.3227,1.3112,1.3514,1.35,1.2985,1.3186,1.344,1.3733,1.4021,1.4282,1.4569,1.481,1.5028,1.5082,1.5089,1.5117,1.5271,1.5298,1.5438,1.5711,1.5771,1.5825,1.5818,1.5818,1.5825,1.5825,1.5825,1.5825,1.5825,1.5812,1.5725,1.5498,1.5231,1.4937,1.4649,1.4369,1.4162,1.4095,1.4088,1.4088,1.4088,1.4088,1.4088,1.4088,1.4088,1.4088,1.4088,1.4088,1.4088,1.4088,1.3895,1.366,1.3573,1.326,1.2864,1.0721,1.0721,1.0721,1.0707,1.067,1.0395,1.0117,0.9978,1.1269,1.2868,1.4663,1.6315,1.7864,1.9424,1.9424,1.9424,1.9424,1.9325,1.9305,0.0,1.8958,1.8671,1.8417,1.8123,1.7842,1.7595,1.7589,1.7589,1.7582,1.7364,1.5962,1.3588,1.3102,1.1495,0.8921,0.8537,0.8381,0.8241,0.8109,0.8581,0.9653,0.8555,0.8987,1.0867,0.8793,0.8574,1.0568,1.0439,1.0773,1.1653,1.271,1.3226,1.3067,1.3133,1.3166,1.3206,1.3213,1.33,1.346,1.3513,1.374,1.4222,1.4349,1.4106,1.3547,1.3788,1.4082,1.4319,1.4436,1.4583,1.4863,1.4995,1.5142,1.5291,1.5337,1.5438,1.5644,1.5678,1.5698,1.5818,1.5825,1.5825,1.5825,1.5825,1.5825,1.5825,1.5825,1.5825,1.5825,1.5825,1.5771,1.5691,1.5518,1.5231,1.4943,1.4649,1.4389,1.4128,1.4108,1.4115,1.4088,1.4088,1.4088,1.4088,1.4088,1.4088,1.4088,1.4088,1.4088,1.4088,1.4015,1.3928,1.3686,1.3513,1.33,1.0721,1.0721,1.0721,1.0673,1.0571,1.028,1.0025,0.9947,1.1499,1.3112,1.4723,1.6315,1.7923,1.9366,1.9424,1.9424,1.9424,1.9424,1.9424,1.9403,1.9058,1.8851,1.8691,1.8202,1.7922,1.7829,1.7662,1.7589,1.7529,1.6823,1.537,1.3318,1.176,1.0202,0.8876,0.8601,0.8807,0.94,0.8503,0.863,0.9948,0.941,0.9953,1.1664,1.0434,1.0296,1.1363,1.1792,1.2151,1.2466,1.3655,1.4222,1.3948,1.4075,1.4162,1.4162,1.4162,1.4222,1.4349,1.4362,1.4476,1.4736,1.4763,1.4656,1.4382,1.4482,1.4623,1.4756,1.4897,1.505,1.519,1.5337,1.5484,1.5618,1.5631,1.5685,1.5744,1.5825,1.5825,1.5825,1.5825,1.5825,1.5825,1.5825,1.5825,1.5825,1.5825,1.5825,1.5825,1.5825,1.5825,1.5805,1.5585,1.5378,1.5204,1.495,1.4663,1.4369,1.4322,1.4255,1.4135,1.4088,1.4088,1.4088,1.4088,1.4088,1.4088,1.4088,1.4088,1.4088,1.4088,1.4015,1.3908,1.372,1.3333,1.07,1.067,1.067,1.0561,1.0375,1.0085,0.9961,0.9947,1.1499,1.3112,1.4718,1.6256,1.7864,1.9307,1.9424,1.9424,1.9424,1.9424,1.9424,1.9403,1.9132,1.8985,1.8871,1.8384,1.8062,1.7962,1.7729,1.7589,1.7477,1.644,1.4984,1.3156,1.0351,0.8937,0.8933,0.8898,0.941,1.0263,0.9388,0.9505,1.0823,1.0583,1.1133,1.251,1.2015,1.1979,1.2455,1.2951,1.329,1.3412,1.441,1.4863,1.4649,1.4836,1.5015,1.5015,1.5015,1.5015,1.5015,1.5015,1.5042,1.5109,1.5109,1.5129,1.515,1.5157,1.5124,1.5104,1.5251,1.5404,1.5498,1.5678,1.5825,1.5825,1.5825,1.5818,1.5825,1.5825,1.5825,1.5825,1.5825,1.5825,1.5825,1.5825,1.5825,1.5825,1.5825,1.5825,1.5825,1.5825,1.5825,1.5792,1.5631,1.5471,1.5404,1.5217,1.495,1.4676,1.4623,1.4496,1.4295,1.4155,1.4088,1.4088,1.4088,1.4088,1.4088,1.4088,1.4088,1.4088,1.4088,1.4082,1.4062,1.3834,1.3394,1.0639,1.0524,1.0521,1.0348,1.0051,1.0,0.9899,1.0011,1.1499,1.3112,1.4663,1.6315,1.7864,1.9307,1.9424,1.9424,1.9424,1.9424,1.9424,1.9424,1.9397,1.9185,1.8925,1.8597,1.831,1.7995,1.7742,1.7602,1.7582,1.7312,1.5902,1.3264,1.0347,0.8992,0.9013,0.9788,1.0288,1.0435,1.1129,1.2188,1.3392,1.2334,1.2904,1.5305,1.3123,1.3021,1.5079,1.4101,1.392,1.5015,1.5,1.5008,1.4981,1.5001,1.5022,1.5028,1.5022,1.5015,1.5022,1.5015,1.5142,1.5324,1.5357,1.5464,1.5691,1.5732,1.5631,1.5438,1.5384,1.5524,1.5745,1.5812,1.5825,1.5825,1.5825,1.5825,1.5825,1.5825,1.5825,1.5825,1.5825,1.5825,1.5825,1.5825,1.5825,1.5825,1.5825,1.5825,1.5825,1.5825,1.5825,1.5825,1.5785,1.5671,1.5484,1.5391,1.5231,1.5042,1.4968,1.479,1.4556,1.4269,1.4095,1.4168,1.4088,1.4088,1.4088,1.4088,1.4088,1.4088,1.4088,1.4088,1.4055,1.3874,1.3393,1.0629,1.05,1.0588,1.0456,1.0195,1.0027,0.9899,0.9947,1.1499,1.3112,1.4718,1.6315,1.7864,1.9366,1.9424,1.9424,1.9424,1.9424,1.9424,1.9424,1.9424,1.9357,1.9165,1.8885,1.8591,1.8303,1.8003,1.7762,1.7338,1.5908,1.4019,1.2132,1.0726,1.0186,1.0268,1.1204,1.2084,1.2838,1.3007,1.3728,1.4704,1.3782,1.3932,1.5439,1.4758,1.4615,1.5622,1.5126,1.5068,1.5598,1.5538,1.5478,1.5478,1.5471,1.5478,1.5478,1.5471,1.5471,1.5471,1.5471,1.5524,1.5645,1.5604,1.5712,1.5812,1.5825,1.5724,1.5685,1.5651,1.5712,1.5812,1.5825,1.5825,1.5825,1.5825,1.5825,1.5825,1.5825,1.5825,1.5825,1.5825,1.5825,1.5825,1.5825,1.5825,1.5825,1.5825,1.5825,1.5825,1.5825,1.5825,1.5825,1.5825,1.5744,1.5665,1.5651,1.5518,1.5311,1.5224,1.5117,1.4816,1.4369,1.4135,1.4315,1.4182,1.4095,1.4088,1.4088,1.4088,1.4088,1.4088,1.4088,1.4088,1.3995,1.3721,1.0629,1.0514,1.0575,1.0426,1.0154,1.0017,0.9899,1.0008,1.1499,1.3112,1.4718,1.6315,1.7923,1.9243,1.9424,1.9424,1.9424,1.9424,1.9424,1.9424,1.9424,1.9424,1.939,1.9065,1.8811,1.8577,1.8169,1.7829,1.7285,1.4663,1.2945,1.224,1.1483,1.1324,1.1774,1.2713,1.3634,1.441,1.4502,1.4977,1.5553,1.4902,1.4854,1.5683,1.5825,1.5825,1.5825,1.5825,1.5825,1.5825,1.5825,1.5825,1.5825,1.5825,1.5825,1.5825,1.5825,1.5825,1.5825,1.5825,1.5825,1.5825,1.5825,1.5825,1.5825,1.5825,1.5825,1.5818,1.5825,1.5818,1.5825,1.5825,1.5825,1.5825,1.5825,1.5825,1.5825,1.5825,1.5825,1.5825,1.5825,1.5825,1.5825,1.5825,1.5825,1.5825,1.5825,1.5825,1.5825,1.5825,1.5825,1.5825,1.5825,1.5825,1.5825,1.5805,1.5705,1.5618,1.5518,1.5418,1.5177,1.473,1.4429,1.4716,1.4369,1.4229,1.4362,1.4335,1.4102,1.4095,1.4088,1.4088,1.4088,1.4082,1.4001,1.0629,1.0483,1.0354,1.0144,0.9859,0.993,0.9903,0.9883,1.1495,1.3112,1.4718,1.6315,1.7864,1.9366,1.9424,1.9424,1.9424,1.9424,1.9424,1.9424,1.9424,1.9424,1.9403,1.9065,1.8918,1.8824,1.8282,1.7856,1.7331,1.4776,1.3965,1.4883,1.2561,1.1914,1.318,1.4295,1.4734,1.4823,1.5585,1.6016,1.5824,1.5743,1.5683,1.5778,1.5825,1.5825,1.5825,1.5825,1.5825,1.5825,1.5825,1.5825,1.5825,1.5825,1.5825,1.5825,1.5825,1.5825,1.5825,1.5825,1.5825,1.5825,1.5825,1.5825,1.5825,1.5825,1.5825,1.5825,1.5825,1.5825,1.5825,1.5825,1.5825,1.5825,1.5825,1.5825,1.5825,1.5825,1.5825,1.5825,1.5825,1.5825,1.5825,1.5825,1.5845,1.5811,1.5798,1.5852,1.5872,1.5858,1.5852,1.5832,1.5825,1.5825,1.5825,1.5825,1.5771,1.5711,1.5691,1.5644,1.5618,1.5484,1.5297,1.505,1.4669,1.4543,1.471,1.4589,1.4255,1.4128,1.4102,1.4095,1.4088,1.4088,1.4035,1.0629,1.048,1.0341,1.0158,0.992,0.9963,0.9903,0.9947,1.1495,1.3112,1.4718,1.6321,1.7923,1.9424,1.9424,1.9424,1.9424,1.9424,1.9424,1.9424,1.9424,1.9424,1.9352,1.9252,1.9098,1.8878,1.8524,1.7568,1.6211,1.5091,1.4395,1.4126,1.396,1.4175,1.4784,1.5805,1.6356,1.6273,1.6322,1.6213,1.6099,1.5925,1.5825,1.5825,1.5825,1.5825,1.5825,1.5825,1.5825,1.5825,1.5825,1.5825,1.5825,1.5825,1.5825,1.5825,1.5825,1.5825,1.5825,1.5825,1.5825,1.5825,1.5825,1.5825,1.5825,1.5825,1.5825,1.5825,1.5825,1.5825,1.5825,1.5825,1.5825,1.5825,1.5825,1.5832,1.5825,1.5825,1.5825,1.5825,1.5825,1.5825,1.5852,1.5832,1.5905,1.6079,1.6112,1.6112,1.6112,1.6112,1.6046,1.5831,1.5825,1.5825,1.5825,1.5825,1.5825,1.5825,1.5798,1.5785,1.5732,1.5712,1.5551,1.5384,1.501,1.4917,1.5084,1.4776,1.4442,1.4342,1.4302,1.4155,1.4088,1.4108,1.4102,1.0602,1.0429,1.0368,1.0202,0.9992,0.9967,0.9899,1.0011,1.1499,1.3108,1.4718,1.6321,1.7864,1.9243,1.9424,1.9424,1.9424,1.9424,1.9424,1.9424,1.9424,1.9424,1.9424,1.9424,1.9212,1.8898,1.8524,1.7514,1.6223,1.563,1.515,1.4829,1.5251,1.5636,1.6143,1.6951,1.7313,1.7139,1.6804,1.6529,1.6286,1.6079,1.5919,1.5838,1.5825,1.5825,1.5825,1.5825,1.5825,1.5825,1.5825,1.5825,1.5825,1.5825,1.5825,1.5825,1.5825,1.5825,1.5825,1.5825,1.5825,1.5825,1.5825,1.5825,1.5825,1.5825,1.5825,1.5825,1.5825,1.5825,1.5825,1.5825,1.5825,1.5825,1.5825,1.5824,1.5959,1.5972,1.5979,1.6005,1.6092,1.6086,1.6005,1.6079,1.6213,1.6393,1.6413,1.6413,1.6413,1.6313,1.6172,1.5899,1.5832,1.5825,1.5825,1.5832,1.5832,1.5832,1.5825,1.5825,1.5825,1.5825,1.5785,1.5638,1.5538,1.5458,1.5257,1.4957,1.4783,1.4669,1.4476,1.4309,1.4229,1.4142,1.4142,1.0548,1.0327,1.0429,1.0229,0.9842,0.992,0.9896,1.0093,1.1503,1.3108,1.4718,1.6315,1.7864,1.9185,1.9424,1.9424,1.9424,1.9424,1.9424,1.9424,1.9424,1.9424,1.9424,1.9424,1.9185,1.8865,1.8288,1.7862,1.7384,1.628,1.6174,1.6988,1.6062,1.6227,1.7523,1.7489,1.7428,1.7273,1.7159,1.6878,1.6359,1.6259,1.6099,1.5865,1.5825,1.5825,1.5825,1.5825,1.5825,1.5825,1.5825,1.5825,1.5825,1.5825,1.5825,1.5825,1.5825,1.5825,1.5825,1.5825,1.5825,1.5825,1.5825,1.5825,1.5825,1.5825,1.5825,1.5825,1.5825,1.5825,1.5825,1.5825,1.5825,1.5832,1.5852,1.5985,1.6172,1.6266,1.6279,1.6306,1.646,1.6553,1.642,1.6446,1.6607,1.668,1.6714,1.67,1.6673,1.652,1.6213,1.5932,1.5851,1.5911,1.5851,1.5791,1.5791,1.5784,1.5832,1.5825,1.5825,1.5825,1.5825,1.5725,1.5718,1.5638,1.5498,1.5224,1.5117,1.4977,1.4736,1.4529,1.4476,1.4402,1.4222,1.0548,1.0297,1.0324,1.0209,0.9916,0.9859,0.9852,1.0084,1.1558,1.3108,1.4718,1.6315,1.787,1.9127,1.9424,1.9424,1.9424,1.9424,1.9424,1.9424,1.9424,1.9424,1.9424,1.9424,1.9162,1.8677,1.845,1.8076,1.7602,1.7094,1.7199,1.7417,1.7147,1.7147,1.7582,1.7582,1.7522,1.7494,1.73,1.7005,1.6587,1.638,1.6139,1.5818,1.5825,1.5825,1.5825,1.5825,1.5825,1.5825,1.5825,1.5825,1.5825,1.5825,1.5825,1.5825,1.5825,1.5825,1.5825,1.5825,1.5825,1.5825,1.5825,1.5825,1.5825,1.5838,1.5838,1.5838,1.5832,1.5825,1.5825,1.5825,1.5858,1.5832,1.6005,1.6159,1.6368,1.6522,1.6553,1.6573,1.6647,1.6647,1.6607,1.67,1.682,1.6987,1.7065,1.7045,1.6907,1.6814,1.6486,1.5999,1.6024,1.6117,1.6057,1.6072,1.6059,1.5952,1.5872,1.5832,1.5825,1.5825,1.5825,1.5825,1.5825,1.5772,1.5631,1.5518,1.5391,1.5257,1.503,1.4897,1.481,1.4656,1.4469,1.0582,1.0365,1.0358,1.0273,1.0197,1.0638,1.0921,1.1256,1.3211,1.4675,1.5741,1.7208,1.8409,1.9249,1.9424,1.9424,1.9424,1.9424,1.9424,1.9424,1.9424,1.9424,1.9403,1.9239,1.8971,1.8551,1.8377,1.807,1.7609,1.7589,1.7589,1.7589,1.7589,1.7589,1.7589,1.7589,1.7589,1.7555,1.7454,1.7219,1.6894,1.6744,1.6453,1.6192,1.6052,1.5999,1.5985,1.5844,1.5825,1.5825,1.5825,1.5825,1.5825,1.5825,1.5825,1.5825,1.5825,1.5825,1.5825,1.5825,1.5825,1.5825,1.5825,1.5825,1.5845,1.5899,1.5992,1.5992,1.6112,1.6111,1.6159,1.6159,1.6104,1.6159,1.6213,1.6373,1.6603,1.686,1.6954,1.6941,1.6974,1.6967,1.6907,1.7001,1.7081,1.7326,1.736,1.7353,1.7201,1.7081,1.6714,1.6486,1.6587,1.656,1.6359,1.6313,1.6293,1.6112,1.5925,1.5865,1.5825,1.5825,1.5825,1.5825,1.5825,1.5825,1.5712,1.5624,1.5571,1.5431,1.5311,1.5197,1.5077,1.487,1.4676,1.0629,1.05,1.049,1.0537,1.0795,1.2138,1.2661,1.3146,1.5761,1.6947,1.725,1.8467,1.9307,1.9366,1.9424,1.9424,1.9424,1.9424,1.9424,1.9424,1.9424,1.9424,1.9397,1.9152,1.8891,1.8557,1.827,1.7949,1.7675,1.7609,1.7589,1.7589,1.7589,1.7589,1.7589,1.7589,1.7589,1.7582,1.7562,1.746,1.7192,1.7166,1.7005,1.666,1.6426,1.6293,1.6266,1.6046,1.5865,1.5832,1.5825,1.5825,1.5825,1.5825,1.5825,1.5825,1.5825,1.5825,1.5825,1.5825,1.5825,1.5825,1.5872,1.5804,1.5919,1.6139,1.6293,1.6306,1.6493,1.6647,1.664,1.6633,1.6647,1.6687,1.6547,1.6697,1.7146,1.7388,1.7368,1.7268,1.7395,1.7534,1.7259,1.7382,1.7541,1.7588,1.7588,1.7515,1.7468,1.7335,1.7275,1.7188,1.7088,1.6914,1.6707,1.6667,1.6627,1.6386,1.6166,1.6039,1.5885,1.5845,1.5825,1.5825,1.5872,1.5858,1.5812,1.5711,1.5698,1.5678,1.5565,1.5458,1.5317,1.5137,1.497,1.0633,1.0497,1.0493,1.1235,1.2318,1.2838,1.3559,1.4713,1.658,1.7428,1.7432,1.87,1.9444,1.9424,1.943,1.9424,1.9424,1.9424,1.9424,1.9424,1.9424,1.9424,1.9424,1.9292,1.9085,1.8791,1.8484,1.8223,1.7869,1.7689,1.7589,1.7589,1.7589,1.7589,1.7589,1.7589,1.7589,1.7589,1.7589,1.7442,1.7259,1.7213,1.7052,1.6727,1.6633,1.6587,1.6567,1.6313,1.6039,1.5845,1.5825,1.5825,1.5845,1.5858,1.5879,1.5879,1.5858,1.5845,1.5852,1.5838,1.5838,1.5804,1.6025,1.6152,1.6166,1.642,1.6567,1.6607,1.668,1.6727,1.672,1.6734,1.6814,1.6987,1.6991,1.7085,1.7407,1.7522,1.7549,1.7548,1.7535,1.7515,1.7502,1.7515,1.7589,1.7589,1.7589,1.7589,1.7535,1.7522,1.7435,1.7482,1.7402,1.7228,1.7088,1.7048,1.6927,1.6687,1.648,1.6299,1.6037,1.5831,1.5852,1.5825,1.5979,1.6019,1.5899,1.5798,1.5825,1.5825,1.5765,1.5638,1.5611,1.5484,1.5337,1.0666,1.0585,1.0588,1.1616,1.3216,1.3874,1.5047,1.6569,1.8117,1.8638,1.8592,1.9168,1.9553,1.9539,1.9426,1.9424,1.9424,1.9424,1.9424,1.9424,1.9424,1.9424,1.9424,1.9424,1.9212,1.8918,1.8624,1.8337,1.7975,1.7729,1.7602,1.7589,1.7589,1.7589,1.7589,1.7589,1.7589,1.7589,1.7582,1.7541,1.7393,1.7387,1.7261,1.7068,1.6974,1.6854,1.6707,1.654,1.6319,1.6092,1.6019,1.6019,1.6025,1.6139,1.6192,1.6192,1.6199,1.6157,1.6172,1.6099,1.6079,1.6166,1.6286,1.6326,1.6473,1.672,1.6894,1.6901,1.6994,1.7068,1.7081,1.7074,1.7154,1.7295,1.7387,1.7454,1.7575,1.7582,1.7589,1.7589,1.7589,1.7589,1.7589,1.7589,1.7589,1.7589,1.7589,1.7589,1.7582,1.7589,1.7589,1.7589,1.7589,1.7422,1.7341,1.7308,1.7246,1.6961,1.678,1.66,1.642,1.6139,1.6059,1.6079,1.6139,1.6091,1.6012,1.5892,1.5825,1.5825,1.5825,1.5812,1.5752,1.5712,1.5585,1.0721,1.0717,1.0913,1.196,1.377,1.5454,1.6972,1.8468,1.9859,2.0325,2.0046,1.9847,1.9766,1.978,1.9486,1.9424,1.9424,1.9424,1.9424,1.9424,1.9424,1.9424,1.9424,1.9424,1.9239,1.8985,1.8664,1.8384,1.8096,1.7776,1.7595,1.7589,1.7589,1.7589,1.7589,1.7589,1.7589,1.7589,1.7589,1.7575,1.7535,1.7535,1.7502,1.7462,1.7353,1.7094,1.6914,1.6774,1.664,1.6429,1.6339,1.6319,1.6353,1.6573,1.6653,1.6647,1.6613,1.6627,1.6647,1.6426,1.6406,1.6567,1.6466,1.6466,1.6747,1.7014,1.7246,1.7246,1.7435,1.7482,1.7502,1.7542,1.7522,1.7535,1.7555,1.7575,1.7589,1.7589,1.7589,1.7589,1.7589,1.7589,1.7589,1.7589,1.7589,1.7589,1.7589,1.7589,1.7589,1.7589,1.7589,1.7589,1.7589,1.7582,1.7555,1.7549,1.746,1.7286,1.7074,1.6921,1.6867,1.6647,1.6466,1.64,1.6406,1.6313,1.6097,1.5984,1.5919,1.5879,1.5919,1.5872,1.5812,1.5792,1.5698,1.0721,1.085,1.215,1.3774,1.5459,1.7211,1.8752,2.0116,2.0495,2.0535,2.0221,1.9933,1.982,1.978,1.9512,1.9424,1.9424,1.9424,1.9424,1.9424,1.9424,1.9424,1.9424,1.9424,1.939,1.9145,1.8724,1.8464,1.8277,1.7889,1.7589,1.7589,1.7589,1.7589,1.7589,1.7589,1.7589,1.7589,1.7589,1.7589,1.7589,1.7589,1.7589,1.7575,1.7561,1.7468,1.7361,1.7226,1.7079,1.6978,1.6804,1.6647,1.664,1.67,1.676,1.6774,1.6747,1.6727,1.67,1.668,1.664,1.674,1.6911,1.7038,1.7099,1.7353,1.7514,1.7495,1.7555,1.7582,1.7589,1.7589,1.7589,1.7589,1.7589,1.7589,1.7589,1.7589,1.7589,1.7589,1.7589,1.7589,1.7589,1.7589,1.7589,1.7589,1.7589,1.7589,1.7589,1.7589,1.7589,1.7589,1.7589,1.7589,1.7589,1.7589,1.7574,1.7481,1.7308,1.7221,1.7168,1.7068,1.6854,1.672,1.664,1.6513,1.6344,1.6159,1.6039,1.6025,1.6019,1.5952,1.5912,1.5879,1.5825,1.3128,1.3255,1.4166,1.5524,1.7141,1.811,1.9402,2.0701,2.0875,2.0715,2.0421,2.0134,1.9933,1.978,1.9506,1.9424,1.9424,1.9424,1.9424,1.9424,1.9424,1.9424,1.9424,1.9424,1.9417,1.935,1.8918,1.8651,1.839,1.805,1.7736,1.7595,1.7589,1.7589,1.7589,1.7589,1.7589,1.7589,1.7589,1.7589,1.7589,1.7589,1.7589,1.7589,1.7589,1.7589,1.7549,1.7494,1.742,1.7367,1.7194,1.7041,1.6974,1.7041,1.7108,1.7114,1.7114,1.7114,1.7114,1.7001,1.6981,1.7088,1.7161,1.7273,1.7373,1.7561,1.7569,1.7589,1.7582,1.7589,1.7589,1.7589,1.7589,1.7589,1.7589,1.7589,1.7589,1.7589,1.7589,1.7589,1.7589,1.7589,1.7589,1.7589,1.7589,1.7589,1.7589,1.7589,1.7589,1.7589,1.7589,1.7589,1.7589,1.7589,1.7589,1.7589,1.7589,1.7535,1.7495,1.7455,1.7428,1.7321,1.7194,1.7074,1.6947,1.6847,1.67,1.6446,1.6286,1.6339,1.6313,1.6139,1.6005,1.5959,1.5885,1.5913,1.5913,1.6172,1.7146,1.8378,1.8838,1.9801,2.0963,2.1056,2.0848,2.0628,2.0334,1.9967,1.9773,1.9492,1.943,1.9424,1.9424,1.9424,1.9424,1.9424,1.9424,1.9424,1.9424,1.9424,1.9332,1.9038,1.8778,1.8544,1.8162,1.7896,1.7695,1.7595,1.7589,1.7589,1.7589,1.7589,1.7589,1.7589,1.7589,1.7589,1.7589,1.7589,1.7589,1.7589,1.7589,1.7589,1.7562,1.7569,1.7589,1.7589,1.7455,1.7407,1.7474,1.7589,1.7562,1.7508,1.7488,1.7442,1.74,1.7367,1.7555,1.7375,1.7393,1.7508,1.7562,1.7582,1.7589,1.7589,1.7589,1.7589,1.7589,1.7589,1.7589,1.7589,1.7589,1.7589,1.7589,1.7589,1.7589,1.7589,1.7589,1.7589,1.7589,1.7589,1.7589,1.7589,1.7589,1.7589,1.7589,1.7589,1.7589,1.7589,1.7589,1.7589,1.7589,1.7589,1.7589,1.7589,1.7589,1.7589,1.7502,1.7382,1.7348,1.73,1.7148,1.7034,1.684,1.674,1.6734,1.6567,1.6359,1.6199,1.6052,1.5965,1.5913,1.6043,1.7468,1.825,1.8704,2.0005,2.0779,2.0999,2.0869,2.0728,2.0601,2.012,1.9867,1.972,1.9492,1.943,1.9424,1.9424,1.9424,1.9424,1.9424,1.9424,1.9424,1.9424,1.9424,1.9285,1.9098,1.8911,1.8718,1.8282,1.7995,1.7869,1.7702,1.7589,1.7589,1.7589,1.7589,1.7589,1.7589,1.7589,1.7589,1.7589,1.7589,1.7589,1.7589,1.7589,1.7589,1.7589,1.7589,1.7589,1.7589,1.7555,1.7502,1.7549,1.7582,1.7589,1.7589,1.7589,1.7562,1.7549,1.7522,1.7562,1.7508,1.7495,1.7569,1.7589,1.7589,1.7589,1.7589,1.7589,1.7589,1.7622,1.7655,1.7595,1.7649,1.7655,1.7649,1.7642,1.7669,1.7716,1.7669,1.7589,1.7589,1.7589,1.7589,1.7589,1.7589,1.7589,1.7589,1.7589,1.7589,1.7589,1.7589,1.7589,1.7589,1.7589,1.7589,1.7589,1.7589,1.7589,1.7589,1.7589,1.7594,1.7534,1.7527,1.7435,1.7315,1.7174,1.7108,1.7048,1.682,1.6573,1.646,1.6339,1.6099,1.857,1.8698,1.9546,1.9871,2.0005,2.0716,2.1102,2.1062,2.0808,2.0581,2.0354,2.0,1.9713,1.9573,1.9504,1.9424,1.9424,1.9424,1.9424,1.9424,1.9424,1.9424,1.9424,1.9424,1.9424,1.9332,1.9212,1.9052,1.8891,1.8497,1.8217,1.7935,1.7736,1.7589,1.7589,1.7589,1.7589,1.7589,1.7589,1.7589,1.7589,1.7589,1.7589,1.7589,1.7589,1.7589,1.7589,1.7589,1.7589,1.7589,1.7589,1.7589,1.7589,1.7589,1.7589,1.7589,1.7589,1.7589,1.7589,1.7589,1.7582,1.7582,1.7589,1.7589,1.7589,1.7589,1.7609,1.7595,1.7589,1.7589,1.7589,1.7722,1.7809,1.7849,1.7936,1.8016,1.8016,1.7949,1.7936,1.7923,1.7789,1.7689,1.7589,1.7589,1.7589,1.7589,1.7589,1.7589,1.7589,1.7589,1.7589,1.7589,1.7589,1.7589,1.7589,1.7589,1.7589,1.7589,1.7589,1.7589,1.7589,1.7589,1.7589,1.7562,1.7582,1.7589,1.7542,1.7388,1.742,1.7373,1.7152,1.6894,1.6817,1.66,1.638,2.1102,2.1102,2.1102,2.1102,2.1102,2.1102,2.1102,2.1049,2.0802,2.0561,2.0294,1.9967,1.9679,1.9492,1.9457,1.9424,1.9424,1.9424,1.9424,1.9424,1.9424,1.9424,1.9424,1.9424,1.9424,1.9424,1.9339,1.9245,1.9038,1.8724,1.843,1.8163,1.7842,1.7622,1.7602,1.7589,1.7589,1.7589,1.7589,1.7589,1.7589,1.7589,1.7589,1.7589,1.7589,1.7589,1.7589,1.7589,1.7589,1.7589,1.7589,1.7589,1.7589,1.7589,1.7589,1.7589,1.7589,1.7589,1.7589,1.7589,1.7589,1.7589,1.7589,1.7589,1.7629,1.7682,1.7742,1.7709,1.7695,1.7762,1.7856,1.7943,1.7995,1.8115,1.8323,1.8464,1.837,1.829,1.823,1.8143,1.7949,1.7856,1.7816,1.7589,1.7589,1.7589,1.7589,1.7589,1.7589,1.7589,1.7589,1.7589,1.7589,1.7589,1.7589,1.7589,1.7589,1.7589,1.7589,1.7589,1.7589,1.7589,1.7589,1.7589,1.7589,1.7589,1.7589,1.7589,1.7568,1.7481,1.7373,1.7233,1.7045,1.6911,1.6693,2.1102,2.1102,2.1102,2.1102,2.1102,2.1102,2.1102,2.1069,2.0802,2.0668,2.0548,2.0054,1.9773,1.9653,1.9452,1.9437,1.9424,1.9424,1.9424,1.9424,1.9424,1.9424,1.9424,1.9424,1.9424,1.9424,1.9424,1.9417,1.9205,1.8971,1.8724,1.8424,1.813,1.7869,1.7722,1.7729,1.7589,1.7609,1.7609,1.7602,1.7589,1.7589,1.7589,1.7589,1.7589,1.7589,1.7589,1.7589,1.7589,1.7589,1.7589,1.7589,1.7589,1.7589,1.7589,1.7589,1.7589,1.7589,1.7589,1.7589,1.7589,1.7595,1.7609,1.7595,1.7716,1.7956,1.8123,1.8123,1.805,1.8076,1.8183,1.817,1.8175,1.8364,1.8551,1.8584,1.8544,1.8651,1.8591,1.8544,1.841,1.8243,1.8136,1.7829,1.7589,1.7589,1.7595,1.7622,1.7675,1.7749,1.7776,1.7822,1.7836,1.7836,1.7789,1.7756,1.7689,1.7662,1.7595,1.7595,1.7589,1.7589,1.7589,1.7589,1.7589,1.7589,1.7589,1.7589,1.7589,1.7542,1.7501,1.7373,1.7219,1.7112,1.6994,2.0955,2.1102,2.1102,2.1102,2.1102,2.1102,2.1102,2.1042,2.0808,2.0675,2.0561,2.0054,1.972,1.9559,1.9406,1.943,1.9424,1.9424,1.9424,1.9424,1.9424,1.9424,1.9424,1.9424,1.9424,1.9424,1.9424,1.9424,1.9272,1.9092,1.8838,1.8711,1.8444,1.825,1.8043,1.8083,1.8103,1.807,1.7949,1.7756,1.7635,1.7589,1.7589,1.7589,1.7589,1.7589,1.7595,1.7589,1.7589,1.7589,1.7589,1.7589,1.7589,1.7589,1.7589,1.7589,1.7589,1.7589,1.7589,1.7595,1.7615,1.7655,1.7736,1.7869,1.7989,1.8263,1.8517,1.8531,1.8384,1.839,1.8517,1.8531,1.8617,1.8724,1.8831,1.8905,1.8975,1.8938,1.8965,1.8925,1.8858,1.8671,1.8457,1.8163,1.7976,1.8003,1.7976,1.7956,1.8056,1.819,1.819,1.817,1.8176,1.8176,1.811,1.805,1.7929,1.7849,1.7635,1.7622,1.7595,1.7589,1.7589,1.7589,1.7589,1.7589,1.7589,1.7589,1.7589,1.7589,1.7582,1.7507,1.74,1.7434,1.7261,2.0808,2.1009,2.1076,2.1102,2.1102,2.1102,2.1102,2.1076,2.0895,2.0748,2.0528,2.0067,1.9639,1.9477,1.943,1.9424,1.9424,1.9424,1.9424,1.9424,1.9424,1.9424,1.9424,1.9424,1.9424,1.9424,1.9424,1.9424,1.9363,1.9165,1.9025,1.8868,1.8698,1.8531,1.849,1.8437,1.841,1.8397,1.8243,1.8016,1.7789,1.7722,1.7716,1.7689,1.7642,1.7668,1.7675,1.7602,1.7589,1.7589,1.7589,1.7589,1.7589,1.7689,1.7736,1.7776,1.7822,1.7889,1.7856,1.7822,1.7749,1.7849,1.7963,1.8176,1.8277,1.8604,1.8811,1.8784,1.8691,1.8644,1.8718,1.8865,1.8898,1.9025,1.9185,1.9299,1.941,1.9296,1.9243,1.9158,1.9105,1.9052,1.8818,1.8517,1.839,1.8424,1.8384,1.8317,1.839,1.8517,1.847,1.841,1.839,1.839,1.835,1.8277,1.8115,1.7982,1.7822,1.7662,1.7635,1.7602,1.7589,1.7589,1.7589,1.7589,1.7589,1.7589,1.7589,1.7589,1.7589,1.7589,1.7555,1.7589,1.7535,2.0688,2.0728,2.0995,2.1096,2.1102,2.1102,2.1102,2.1102,2.1076,2.0889,2.0575,2.0074,1.9639,1.9484,1.9424,1.9424,1.9424,1.9424,1.9424,1.9424,1.9424,1.9424,1.9424,1.9424,1.9424,1.9424,1.9424,1.9424,1.9417,1.9377,1.9138,1.8951,1.8925,1.8731,1.8637,1.8651,1.8597,1.8571,1.8477,1.8317,1.8103,1.7962,1.8016,1.7896,1.7782,1.7709,1.7916,1.7736,1.7589,1.7589,1.7655,1.7655,1.7709,1.7936,1.8043,1.8056,1.8183,1.827,1.8297,1.8156,1.8176,1.833,1.8444,1.849,1.8591,1.8764,1.8898,1.8951,1.8918,1.9011,1.9078,1.9132,1.9112,1.9199,1.9305,1.9383,1.9424,1.9417,1.937,1.9352,1.9312,1.9225,1.9178,1.8878,1.8738,1.8758,1.8731,1.8664,1.8624,1.8698,1.8631,1.8584,1.8557,1.8544,1.8531,1.847,1.843,1.8209,1.7995,1.7836,1.7682,1.7642,1.7589,1.7589,1.7589,1.7589,1.7589,1.7589,1.7589,1.7589,1.7589,1.7589,1.7589,1.7589,1.7589,2.0347,2.0688,2.0802,2.0942,2.1102,2.1102,2.1102,2.1102,2.1102,2.0835,2.0388,1.998,1.9639,1.9432,1.9424,1.9424,1.9424,1.9424,1.9424,1.9424,1.9424,1.9424,1.9424,1.9424,1.9424,1.9424,1.9424,1.9424,1.9424,1.9424,1.9383,1.9219,1.9172,1.9152,1.9052,1.8958,1.8905,1.8778,1.8731,1.8611,1.839,1.8323,1.8323,1.8297,1.8029,1.7882,1.7929,1.7736,1.7629,1.7662,1.7836,1.7883,1.7936,1.8263,1.8384,1.8343,1.8484,1.8604,1.8691,1.8517,1.8464,1.8677,1.8764,1.8818,1.8938,1.9132,1.9185,1.9199,1.9172,1.9252,1.9279,1.9265,1.9265,1.9397,1.9424,1.9424,1.9424,1.9424,1.9424,1.9424,1.9424,1.939,1.9357,1.9239,1.9152,1.9085,1.9052,1.9011,1.8951,1.8925,1.8891,1.8934,1.8871,1.8961,1.8961,1.8818,1.8711,1.8504,1.8235,1.809,1.7889,1.7635,1.7595,1.7589,1.7609,1.7622,1.7622,1.7595,1.7589,1.7589,1.7589,1.7589,1.7589,1.7589,1.7589,2.0094,2.0541,2.0635,2.0842,2.1089,2.1102,2.1102,2.1102,2.1102,2.0782,2.0214,1.9853,1.9566,1.9464,1.9424,1.9424,1.9424,1.9424,1.9424,1.9424,1.9424,1.9424,1.9424,1.9424,1.9424,1.9424,1.9424,1.9424,1.9424,1.9424,1.9403,1.9403,1.9424,1.939,1.939,1.941,1.9259,1.9112,1.9032,1.8905,1.8664,1.8617,1.8624,1.8577,1.833,1.8283,1.8209,1.8123,1.7949,1.7996,1.811,1.8223,1.835,1.851,1.8698,1.8698,1.8724,1.8851,1.8925,1.8918,1.8844,1.9025,1.9058,1.9165,1.9305,1.9424,1.9383,1.9397,1.9403,1.9424,1.9424,1.9339,1.9325,1.9424,1.9424,1.9424,1.9424,1.9424,1.9424,1.9424,1.9424,1.9424,1.941,1.9377,1.935,1.9232,1.9219,1.9263,1.9263,1.9256,1.9283,1.9283,1.9296,1.9343,1.939,1.9158,1.8971,1.8771,1.8571,1.8335,1.817,1.7903,1.7769,1.7856,1.7842,1.7722,1.7649,1.7602,1.7589,1.7589,1.7589,1.7589,1.7589,1.7589,1.7589,1.9973,2.0267,2.0548,2.0828,2.1089,2.1102,2.1102,2.1089,2.1036,2.0735,2.0187,1.9679,1.947,1.9424,1.9424,1.9424,1.9424,1.9424,1.9424,1.9424,1.9424,1.9424,1.9424,1.9424,1.9424,1.9424,1.9424,1.9424,1.9424,1.9424,1.9424,1.9424,1.9424,1.9424,1.9424,1.9424,1.9417,1.9352,1.9383,1.9145,1.8978,1.8918,1.8918,1.8851,1.8631,1.8577,1.8624,1.8444,1.8297,1.833,1.8424,1.8497,1.8537,1.8784,1.8931,1.8931,1.9152,1.9343,1.939,1.9383,1.935,1.9279,1.9252,1.937,1.941,1.9424,1.9424,1.9424,1.9424,1.9424,1.9424,1.9424,1.9424,1.9424,1.9424,1.9424,1.9424,1.9424,1.9424,1.9424,1.9424,1.9424,1.9424,1.9417,1.9417,1.9403,1.9417,1.9424,1.9424,1.9424,1.9424,1.9424,1.9424,1.9424,1.9424,1.9424,1.929,1.9038,1.8838,1.8637,1.8464,1.8257,1.817,1.8183,1.8043,1.7896,1.7736,1.7595,1.7589,1.7589,1.7589,1.7589,1.7589,1.7589,1.7589,1.9793,2.0234,2.0347,2.0661,2.1069,2.1102,2.1102,2.1029,2.0708,2.0414,2.0147,1.9619,1.9424,1.9424,1.9437,1.9444,1.9437,1.9424,1.9424,1.9424,1.9424,1.9424,1.9424,1.9424,1.9424,1.9424,1.9424,1.9424,1.9424,1.9424,1.9424,1.9424,1.9424,1.9424,1.9424,1.9424,1.9424,1.9424,1.941,1.9312,1.9225,1.9205,1.9199,1.9192,1.8918,1.8851,1.8938,1.8691,1.8584,1.8597,1.8677,1.8778,1.8824,1.9052,1.9185,1.9205,1.9417,1.9417,1.9424,1.941,1.9417,1.9424,1.9424,1.9424,1.9424,1.9424,1.9424,1.9424,1.9424,1.9424,1.9424,1.9424,1.9424,1.9424,1.9424,1.9424,1.9424,1.9424,1.9424,1.9424,1.9424,1.9457,1.947,1.9497,1.9497,1.9437,1.9424,1.9424,1.9424,1.9424,1.9424,1.9424,1.9424,1.9424,1.9424,1.9424,1.9424,1.9219,1.9032,1.8795,1.8691,1.8584,1.8557,1.8557,1.831,1.8063,1.7896,1.7742,1.7629,1.7589,1.7589,1.7589,1.7589,1.7589,1.7589,1.9706,2.0214,2.0173,2.0568,2.1056,2.1102,2.1102,2.1022,2.0601,2.0341,2.016,1.982,1.9613,1.9559,1.9519,1.9519,1.9512,1.9457,1.9424,1.9424,1.9424,1.9424,1.9424,1.9424,1.9424,1.9424,1.9424,1.9424,1.9424,1.9424,1.9424,1.9424,1.9424,1.9424,1.9424,1.9424,1.9424,1.9424,1.9424,1.9417,1.9397,1.9403,1.941,1.9357,1.9185,1.9092,1.9032,1.8911,1.8784,1.8838,1.8938,1.9072,1.9145,1.9232,1.9424,1.9424,1.9424,1.9424,1.9424,1.9424,1.9424,1.9424,1.9424,1.9424,1.9424,1.9424,1.9424,1.9424,1.9437,1.945,1.9457,1.9457,1.9504,1.9511,1.9526,1.9533,1.9511,1.9517,1.9626,1.9599,1.9613,1.9593,1.9526,1.9512,1.9591,1.9504,1.9424,1.943,1.943,1.9424,1.9424,1.9424,1.9424,1.9424,1.9424,1.9424,1.9424,1.9424,1.9219,1.9045,1.9052,1.8971,1.8951,1.8905,1.8671,1.841,1.8096,1.7903,1.7736,1.7629,1.7589,1.7589,1.7589,1.7589,1.7589,1.97,2.018,2.0234,2.0561,2.1029,2.1089,2.1102,2.1082,2.0795,2.0508,2.0187,2.0214,2.002,1.984,1.9813,1.9813,1.9793,1.9566,1.9537,1.9491,1.9517,1.9477,1.9437,1.9424,1.9424,1.9424,1.9424,1.9424,1.9424,1.9424,1.9424,1.9424,1.9424,1.9424,1.9424,1.9424,1.9424,1.9424,1.9424,1.9424,1.9424,1.9424,1.9424,1.9397,1.9363,1.935,1.933,1.9296,1.931,1.9343,1.9383,1.9397,1.9417,1.9424,1.9424,1.9424,1.9424,1.9424,1.9424,1.9424,1.9424,1.943,1.9477,1.945,1.9424,1.943,1.9464,1.9452,1.9499,1.9472,1.9466,1.9539,1.9606,1.9693,1.98,1.9746,1.9626,1.9713,1.9947,2.0027,2.006,2.0013,1.9853,1.9786,1.974,1.9573,1.9492,1.947,1.9464,1.9424,1.9424,1.9424,1.9424,1.9424,1.9424,1.9424,1.9424,1.9424,1.9424,1.9252,1.935,1.9285,1.9263,1.9112,1.9011,1.8751,1.8337,1.8023,1.7789,1.7782,1.8082,1.786,1.7933,1.7655,1.7589,1.9593,1.9933,2.0147,2.0454,2.0802,2.1022,2.1102,2.1062,2.0802,2.0615,2.0535,2.0321,2.0221,2.0107,2.0114,2.0107,2.0074,2.0007,1.9846,1.9746,1.9626,1.9526,1.9491,1.9424,1.9424,1.9424,1.9424,1.9424,1.9424,1.9424,1.9424,1.9424,1.9424,1.9424,1.9424,1.9424,1.9424,1.9424,1.9424,1.9424,1.9424,1.9424,1.9424,1.9424,1.9424,1.9424,1.9424,1.9424,1.9424,1.9424,1.9424,1.9424,1.9424,1.9424,1.9424,1.9424,1.9424,1.9424,1.9424,1.9424,1.9437,1.9504,1.9546,1.9512,1.9504,1.947,1.9479,1.9599,1.9793,1.988,1.9846,1.986,1.9933,2.0027,2.0107,2.006,1.998,2.0094,2.0301,2.0273,2.0313,2.0307,2.0154,2.0107,2.0034,1.9806,1.9646,1.9573,1.9459,1.9484,1.9424,1.9424,1.9424,1.9424,1.9424,1.9424,1.9424,1.9424,1.9424,1.9424,1.9403,1.9397,1.9417,1.9265,1.9085,1.8811,1.847,1.8217,1.8084,1.8699,1.8986,1.854,1.8213,1.8172,1.786,1.9539,1.9806,1.9987,2.0287,2.0695,2.0982,2.1102,2.1069,2.0922,2.0802,2.0675,2.0621,2.0514,2.0414,2.0414,2.0408,2.0394,2.0221,2.0034,1.982,1.982,1.9599,1.9459,1.943,1.9424,1.9424,1.9424,1.9424,1.9424,1.9424,1.9424,1.9424,1.9424,1.9424,1.9424,1.9424,1.9424,1.9424,1.9424,1.9424,1.9424,1.9424,1.9424,1.9424,1.9424,1.9424,1.9424,1.9424,1.9424,1.9424,1.9424,1.9424,1.9424,1.9424,1.9424,1.9424,1.9424,1.9424,1.9424,1.9424,1.9484,1.9546,1.9706,1.9753,1.9653,1.9573,1.972,1.9873,2.0174,2.0388,2.0301,2.018,2.0314,2.0394,2.0401,2.0408,2.0461,2.0521,2.0575,2.054,2.0581,2.0535,2.0474,2.0434,2.0321,2.0094,1.996,1.9927,1.9726,1.9519,1.9491,1.9424,1.9424,1.9424,1.9424,1.9424,1.9424,1.9424,1.9424,1.9424,1.9424,1.9424,1.9424,1.9316,1.9105,1.8898,1.8751,1.8586,1.8549,1.9216,1.9897,1.9964,1.9694,1.9533,1.8999,1.9395,1.976,1.98,2.0134,2.0635,2.0889,2.1015,2.1076,2.1022,2.0942,2.0795,2.0982,2.0915,2.0735,2.0708,2.0708,2.0661,2.0514,2.0247,1.9867,1.99,1.9726,1.9466,1.9399,1.9484,1.9464,1.9464,1.9452,1.9437,1.9424,1.9424,1.9424,1.9424,1.9424,1.9424,1.9424,1.9424,1.9424,1.9424,1.9424,1.9424,1.9424,1.9424,1.9424,1.9424,1.9424,1.9424,1.9424,1.9424,1.9424,1.9424,1.9424,1.9424,1.9424,1.9424,1.9424,1.9424,1.9424,1.9457,1.9491,1.9579,1.9706,1.9853,2.0034,2.002,1.982,1.992,2.0227,2.0535,2.0655,2.0608,2.0568,2.0608,2.0675,2.0702,2.0708,2.0735,2.0802,2.0848,2.0869,2.0855,2.0808,2.0748,2.0702,2.0595,2.0368,2.0261,2.0247,2.002,1.9726,1.9546,1.9484,1.943,1.943,1.9424,1.9424,1.9424,1.9424,1.9424,1.9424,1.9424,1.9424,1.9424,1.9336,1.9199,1.9219,1.9105,1.8955,1.9067,1.971,2.0409,2.12,2.1217,2.0727,1.9638,1.8317,1.9492,1.9706,2.0013,2.0321,2.0408,2.0581,2.0775,2.0775,2.0869,2.0995,2.1062,2.1076,2.0982,2.0962,2.0962,2.0935,2.0815,2.0568,2.0274,2.0134,1.9887,1.9533,1.9619,1.9573,1.9499,1.9512,1.9599,1.9492,1.9484,1.9437,1.9437,1.943,1.9424,1.9424,1.9424,1.9424,1.9424,1.9424,1.9424,1.9424,1.9424,1.9424,1.9424,1.9424,1.9424,1.9424,1.9424,1.9424,1.9424,1.9424,1.9424,1.9424,1.9424,1.9424,1.9424,1.943,1.9437,1.9511,1.9566,1.9733,1.9947,2.0147,2.0401,2.0428,2.0174,2.0201,2.0561,2.0782,2.0869,2.0909,2.0882,2.0875,2.0929,2.0982,2.0982,2.0982,2.1036,2.1096,2.1102,2.1102,2.1056,2.0995,2.0922,2.0828,2.0715,2.0615,2.0501,2.0247,1.9973,1.9726,1.9579,1.9464,1.943,1.943,1.9424,1.9424,1.9424,1.9424,1.9424,1.9424,1.9424,1.9424,1.9417,1.9325,1.9319,1.9312,1.9343,1.9546,2.0196,2.0708,2.1456,2.1614,2.1264,1.9942,1.7501,1.844,1.9437,1.9893,2.0047,2.0174,2.0334,2.0481,2.0615,2.0768,2.0935,2.1036,2.1102,2.1102,2.1102,2.1102,2.1102,2.1096,2.0802,2.0535,2.0354,2.0154,1.9993,1.9893,1.99,1.9833,1.9887,1.9893,1.9713,1.9606,1.9573,1.9533,1.9531,1.9444,1.9437,1.943,1.9437,1.9424,1.943,1.9437,1.9437,1.943,1.9424,1.9424,1.9424,1.9424,1.9424,1.9424,1.9424,1.9424,1.9424,1.9424,1.9424,1.9424,1.9424,1.9424,1.9437,1.9419,1.9553,1.972,1.994,2.0207,2.0388,2.0628,2.0848,2.0641,2.0635,2.0935,2.0955,2.1022,2.1022,2.1009,2.1002,2.1042,2.1049,2.1049,2.1049,2.1076,2.1102,2.1102,2.1102,2.1096,2.1049,2.1042,2.0969,2.0955,2.0869,2.0842,2.0575,2.0267,2.0007,1.9773,1.9619,1.9491,1.9424,1.9424,1.9424,1.9424,1.9424,1.9424,1.9424,1.9424,1.9424,1.9417,1.9417,1.9417,1.9417,1.9424,2.009,2.0793,2.1205,2.1632,2.1681,2.1662,2.0862,1.6968,1.7537,1.9083,1.9746,1.9793,2.0054,2.0201,2.0287,2.0548,2.0708,2.0808,2.1022,2.1089,2.1102,2.1102,2.1102,2.1102,2.1102,2.0902,2.0722,2.0641,2.0368,2.0247,2.0241,2.0241,2.0214,2.0207,2.0194,2.0127,1.9967,1.9826,1.9766,1.9626,1.9452,1.9464,1.947,1.9504,1.947,1.9412,1.9439,1.9419,1.9386,1.943,1.9424,1.9424,1.9424,1.9424,1.9424,1.9424,1.9424,1.9424,1.9424,1.9424,1.9424,1.9424,1.943,1.9524,1.9579,1.9733,1.992,2.0227,2.0508,2.0648,2.0822,2.1036,2.1082,2.1076,2.1082,2.1096,2.1102,2.1102,2.1102,2.1102,2.1102,2.1102,2.1102,2.1102,2.1102,2.1102,2.1102,2.1102,2.1102,2.1102,2.1102,2.1102,2.1102,2.1102,2.1102,2.0989,2.0655,2.0354,2.0107,1.99,1.9706,1.9497,1.9444,1.945,1.9424,1.9424,1.9424,1.9424,1.9424,1.9424,1.9424,1.9424,1.9424,1.9424,1.9424,2.0199,2.0866,2.0816,2.0873,2.1358,2.1398,2.1816,1.6621,1.8952,1.9367,1.9452,1.9564,1.9766,2.0013,2.0261,2.0541,2.0802,2.0962,2.1042,2.1102,2.1102,2.1102,2.1102,2.1102,2.1102,2.0929,2.0715,2.0742,2.0514,2.0414,2.0535,2.0575,2.0535,2.0428,2.0213,2.0374,2.0247,2.0034,1.986,2.0067,1.984,1.9517,1.9519,1.9639,1.9586,1.9639,1.9713,1.9639,1.9559,1.9444,1.9424,1.9424,1.9424,1.9424,1.9424,1.9424,1.9424,1.9437,1.945,1.9444,1.945,1.9464,1.9484,1.9526,1.9713,1.988,2.0194,2.0535,2.0681,2.0822,2.0975,2.1096,2.1096,2.1096,2.1096,2.1102,2.1102,2.1102,2.1102,2.1102,2.1102,2.1102,2.1102,2.1102,2.1102,2.1102,2.1102,2.1102,2.1102,2.1102,2.1102,2.1102,2.1102,2.1102,2.1102,2.1082,2.0875,2.0675,2.0468,2.0227,1.9786,1.9446,1.9491,1.9491,1.9457,1.9424,1.9424,1.9424,1.9424,1.9424,1.9424,1.9424,1.9424,1.9424,1.9424,1.9533,1.9975,1.9815,1.9873,2.0479,2.1023,2.1284]}]]